Date StartTime U_cm/s V_cm/s W_cm/s Ustd_cm/s Vstd_cm/s Wstd_cm/s Uvar_(cm/s)^2 Vvar_(cm/s)^2 Wvar_(cm/s)^2 KE_(m/s)^2 TurbulentKE_(m/s)^2 HorizWindSpeed_cm/s FrictionSpeec_cm/s DragCoef SpeedOfSound_m/s SonicTemperature_C Pressure_mb 
06/08/2013  00:00:00     -151.870      -15.532      -19.948       50.115       52.869       25.374     2511.531     2795.166      643.818        1.483        0.298      152.663       10.524        0.005      347.051       25.741      861.006
06/08/2013  00:01:00     -181.341      -55.828      -17.917       54.548       46.297       31.644     2975.469     2143.382     1001.355        2.122        0.306      189.741       28.829        0.023      346.984       25.622      861.005
06/08/2013  00:02:00     -151.243        9.123      -14.538       69.352       64.728       36.056     4809.747     4189.732     1300.063        1.673        0.515      151.518       32.957        0.047      346.958       25.580      861.013
06/08/2013  00:03:00     -150.972      -60.721      -17.321       47.875       56.182       35.557     2292.039     3156.460     1264.328        1.674        0.336      162.725       19.826        0.015      346.961       25.583      861.010
06/08/2013  00:04:00     -187.221      -20.320      -19.209       76.372       65.864       40.448     5832.747     4338.106     1636.017        2.382        0.590      188.321       34.732        0.034      346.881       25.444      861.020
06/08/2013  00:05:00     -223.905      -31.413      -19.712       55.812       63.724       37.935     3114.982     4060.719     1439.067        3.006        0.431      226.098       26.737        0.014      346.857       25.402      861.021
06/08/2013  00:06:00     -165.794       -3.210      -20.736       49.020       76.148       34.934     2402.968     5798.583     1220.362        1.867        0.471      165.825       30.991        0.035      346.870       25.428      861.026
06/08/2013  00:07:00     -136.269      -58.148       -3.959       57.510       51.431       32.085     3307.355     2645.144     1029.466        1.447        0.349      148.157       27.129        0.034      346.883       25.451      861.031
06/08/2013  00:08:00     -131.143        6.432      -26.624       38.714       46.614       29.258     1498.802     2172.911      856.042        1.124        0.226      131.301       22.330        0.029      346.845       25.386      861.030
06/08/2013  00:09:00     -146.206      -56.305      -12.505       56.466       44.586       35.028     3188.424     1987.923     1226.986        1.555        0.320      156.673       33.206        0.045      346.793       25.296      861.032
06/08/2013  00:10:00     -177.070      -34.689      -20.591       46.399       38.436       26.197     2152.823     1477.324      686.301        1.865        0.216      180.436       20.341        0.013      346.750       25.222      861.036
06/08/2013  00:11:00     -181.237      -50.319      -26.642       50.380       39.179       25.805     2538.142     1534.972      665.913        2.041        0.237      188.092       21.072        0.013      346.708       25.147      861.034
06/08/2013  00:12:00     -172.834      -66.701      -16.027       51.641       38.680       30.069     2666.838     1496.120      904.164        1.982        0.253      185.258       24.610        0.018      346.608       24.975      861.037
06/08/2013  00:13:00     -145.307      -71.807      -22.578       47.380       47.675       35.028     2244.900     2272.897     1226.926        1.626        0.287      162.082       24.994        0.024      346.614       24.988      861.037
06/08/2013  00:14:00     -162.794      -33.951       -8.553       68.654       68.026       34.399     4713.434     4627.469     1183.297        1.912        0.526      166.297       38.006        0.052      346.708       25.148      861.037
06/08/2013  00:15:00     -106.189      -23.631      -11.541       52.211       49.475       34.737     2726.003     2447.823     1206.680        0.917        0.319      108.786       26.601        0.060      346.638       25.029      861.031
06/08/2013  00:16:00     -125.268      -51.183      -13.331       42.411       43.057       31.870     1798.658     1853.936     1015.700        1.158        0.233      135.321       24.311        0.032      346.723       25.176      861.023
06/08/2013  00:17:00     -135.496      -53.403      -17.512       47.639       46.833       33.415     2269.435     2193.309     1116.563        1.355        0.279      145.641       30.940        0.045      346.672       25.087      861.025
06/08/2013  00:18:00     -145.574      -43.873       -9.445       62.626       55.136       29.315     3921.958     3039.998      859.381        1.551        0.391      152.041       28.219        0.034      346.883       25.449      861.028
06/08/2013  00:19:00     -122.955      -26.501       -2.904       82.396       57.298       41.210     6789.073     3283.068     1698.250        1.380        0.589      125.778       48.319        0.148      346.760       25.239      861.024
06/08/2013  00:20:00     -181.685      -42.100      -14.191       54.722       52.309       36.369     2994.530     2736.252     1322.684        2.102        0.353      186.499       30.712        0.027      346.655       25.056      861.034
06/08/2013  00:21:00     -144.257      -13.605       -9.246       69.637       61.162       37.484     4849.299     3740.746     1405.043        1.554        0.500      144.897       31.824        0.048      346.673       25.088      861.026
06/08/2013  00:22:00     -143.420      -33.077      -13.187       49.223       40.131       24.223     2422.939     1610.502      586.755        1.323        0.231      147.185       22.339        0.023      346.695       25.128      861.031
06/08/2013  00:23:00     -193.243      -73.811      -16.804       36.331       37.779       24.418     1319.976     1427.267      596.224        2.321        0.167      206.860       12.593        0.004      346.566       24.904      861.023
06/08/2013  00:24:00     -169.727      -10.972      -19.269       52.244       41.631       27.271     2729.466     1733.154      743.710        1.725        0.260      170.081       27.650        0.026      346.639       25.028      861.020
06/08/2013  00:25:00     -182.662      -17.086      -22.249       54.835       46.450       33.523     3006.883     2157.646     1123.807        2.022        0.314      183.460       30.173        0.027      346.688       25.115      861.014
06/08/2013  00:26:00     -200.862      -25.458      -22.052       55.547       52.206       35.532     3085.487     2725.414     1262.526        2.428        0.354      202.469       32.286        0.025      346.633       25.018      860.999
06/08/2013  00:27:00     -204.986      -34.051      -28.562       48.200       54.459       29.026     2323.252     2965.786      842.490        2.506        0.307      207.795       27.432        0.017      346.644       25.037      861.001
06/08/2013  00:28:00     -227.854      -21.697      -22.803       54.188       42.714       32.872     2936.360     1824.469     1080.571        2.937        0.292      228.885       31.083        0.018      346.599       24.961      860.996
06/08/2013  00:29:00     -255.278      -17.040      -24.441       56.404       45.514       32.082     3181.446     2071.534     1029.270        3.617        0.314      255.846       27.384        0.011      346.609       24.975      860.994
06/08/2013  00:30:00     -234.008      -40.507      -34.223       37.616       43.719       31.696     1414.987     1911.309     1004.634        3.095        0.217      237.488       25.655        0.012      346.582       24.930      860.994
06/08/2013  00:31:00     -181.666      -53.626      -13.381       54.947       68.520       35.473     3019.184     4694.982     1258.300        2.251        0.449      189.415       29.566        0.024      346.605       24.971      860.991
06/08/2013  00:32:00     -177.279      -34.132      -12.951       53.734       42.021       34.509     2887.318     1765.776     1190.855        1.930        0.292      180.535       28.410        0.025      346.616       24.990      860.994
06/08/2013  00:33:00     -213.277        0.728      -24.079       50.617       34.963       27.660     2562.030     1222.438      765.061        2.531        0.227      213.279       26.430        0.015      346.578       24.925      860.989
06/08/2013  00:34:00     -215.072      -23.643      -24.793       58.971       42.898       25.134     3477.535     1840.215      631.723        2.669        0.297      216.368       15.063        0.005      346.528       24.838      861.002
06/08/2013  00:35:00     -226.287       29.933      -26.834       53.220       52.200       32.863     2832.412     2724.817     1079.970        2.973        0.332      228.258       28.549        0.016      346.641       25.030      860.983
06/08/2013  00:36:00     -160.930      -29.151      -15.604       41.668       43.688       30.270     1736.211     1908.680      916.298        1.578        0.228      163.549       26.097        0.025      346.593       24.951      860.981
06/08/2013  00:37:00     -128.432      -25.907      -13.064       52.087       40.253       23.584     2713.031     1620.343      556.215        1.111        0.244      131.019       25.561        0.038      346.640       25.034      860.967
06/08/2013  00:38:00     -200.631      -17.006      -26.922       60.431       37.106       23.290     3651.904     1376.853      542.442        2.342        0.279      201.350       29.068        0.021      346.754       25.228      860.967
06/08/2013  00:39:00     -183.694        1.252      -19.835       40.134       26.714       19.674     1610.736      713.613      387.066        1.842        0.136      183.698       17.781        0.009      346.687       25.112      860.955
06/08/2013  00:40:00     -172.586        2.789      -17.767       42.402       28.879       19.195     1797.940      834.006      368.434        1.655        0.150      172.609       20.650        0.014      346.698       25.132      860.951
06/08/2013  00:41:00     -166.173       18.655      -14.535       28.600       26.630       17.274      817.965      709.157      298.378        1.500        0.091      167.216       15.059        0.008      346.658       25.064      860.956
06/08/2013  00:42:00     -165.302      -20.585      -19.874       27.446       29.503       18.840      753.258      870.414      354.962        1.506        0.099      166.579       11.333        0.005      346.619       24.997      860.957
06/08/2013  00:43:00     -136.817      -30.319      -10.194       24.412       24.560       20.949      595.930      603.193      438.858        1.069        0.082      140.136       16.603        0.014      346.518       24.824      860.963
06/08/2013  00:44:00     -141.803      -25.288      -12.111       35.399       30.900       22.750     1253.114      954.792      517.561        1.181        0.136      144.040       18.366        0.016      346.578       24.926      860.961
06/08/2013  00:45:00     -172.955        4.083      -21.413       35.289       26.425       22.516     1245.312      698.303      506.965        1.642        0.123      173.003       21.299        0.015      346.593       24.951      860.966
06/08/2013  00:46:00     -167.490       13.105      -19.974       33.095       29.519       22.469     1095.305      871.349      504.865        1.555        0.124      168.001       20.314        0.015      346.517       24.822      860.965
06/08/2013  00:47:00     -153.564        9.628       -9.892       43.330       38.826       31.435     1877.461     1507.480      988.158        1.407        0.219      153.866       27.133        0.031      346.559       24.894      860.959
06/08/2013  00:48:00     -178.840        7.650      -10.827       31.163       41.838       26.399      971.158     1750.393      696.913        1.779        0.171      179.004       25.036        0.020      346.593       24.951      860.965
06/08/2013  00:49:00     -161.747       11.232      -14.638       49.948       48.226       29.342     2494.810     2325.752      860.976        1.609        0.284      162.137       23.464        0.021      346.634       25.022      860.946
06/08/2013  00:50:00     -155.809      -11.201      -13.606       43.459       49.454       32.566     1888.682     2445.725     1060.516        1.499        0.270      156.211       26.598        0.029      346.587       24.942      860.947
06/08/2013  00:51:00     -176.514      -32.543      -19.506       54.540       43.979       29.789     2974.591     1934.143      887.402        1.920        0.290      179.489       32.156        0.032      346.418       24.651      860.945
06/08/2013  00:52:00     -187.384       67.348      -18.357       41.248       52.108       33.946     1701.389     2715.252     1152.313        2.278        0.278      199.120       23.338        0.014      346.390       24.602      860.937
06/08/2013  00:53:00     -160.924       58.702      -15.710       37.866       38.611       26.111     1433.854     1490.818      681.789        1.660        0.180      171.296       11.236        0.004      346.457       24.717      860.951
06/08/2013  00:54:00     -119.344       17.545      -16.866       28.819       43.682       21.205      830.558     1908.131      449.648        0.901        0.159      120.627       15.443        0.016      346.386       24.596      860.955
06/08/2013  00:55:00     -112.514      -24.159       -2.326       40.298       53.934       28.377     1623.957     2908.823      805.249        0.929        0.267      115.079       23.350        0.041      346.396       24.614      860.944
06/08/2013  00:56:00     -150.138       13.927      -15.956       60.202       45.489       26.017     3624.281     2069.214      676.884        1.468        0.319      150.782       23.309        0.024      346.496       24.783      860.958
06/08/2013  00:57:00     -182.292      -11.340      -17.692       44.180       62.168       30.116     1951.837     3864.812      907.001        2.020        0.336      182.644       26.235        0.021      346.530       24.843      860.954
06/08/2013  00:58:00     -164.889      -17.218      -16.571       38.782       36.506       26.861     1504.049     1332.688      721.540        1.566        0.178      165.786       21.401        0.017      346.434       24.677      860.952
06/08/2013  00:59:00     -168.324      -12.934      -21.330       45.742       49.068       28.942     2092.305     2407.699      837.644        1.715        0.267      168.820       20.609        0.015      346.472       24.743      860.959
06/08/2013  01:00:00     -179.507      -10.851      -15.203       40.039       40.609       26.501     1603.154     1649.069      702.324        1.826        0.198      179.835       26.161        0.021      346.358       24.548      860.963
06/08/2013  01:01:00     -170.168       18.285      -18.428       46.089       38.743       21.180     2124.166     1501.015      448.574        1.685        0.204      171.148       18.745        0.012      346.395       24.611      860.942
06/08/2013  01:02:00     -138.753       -2.866      -14.335       46.272       33.331       21.427     2141.068     1110.970      459.125        1.159        0.186      138.783       24.188        0.030      346.421       24.655      860.939
06/08/2013  01:03:00     -117.998      -31.322      -12.293       29.865       33.175       21.106      891.908     1100.586      445.470        0.875        0.122      122.084       14.110        0.013      346.426       24.666      860.933
06/08/2013  01:04:00     -138.703      -21.514      -15.020       23.232       24.920       15.133      539.727      621.006      229.014        1.066        0.069      140.361        8.281        0.003      346.461       24.726      860.921
06/08/2013  01:05:00     -136.412      -10.213      -14.898       29.994       27.591       14.005      899.657      761.246      196.135        1.040        0.093      136.794        5.288        0.001      346.381       24.588      860.912
06/08/2013  01:06:00     -123.937      -45.327       -6.060       42.556       26.455       21.561     1811.000      699.841      464.870        1.021        0.149      131.965       20.667        0.025      346.408       24.633      860.908
06/08/2013  01:07:00     -124.675      -29.762       -7.747       25.894       33.486       21.720      670.522     1121.294      471.765        0.938        0.113      128.178       17.887        0.019      346.368       24.565      860.898
06/08/2013  01:08:00     -104.934      -31.570        1.561       37.729       25.685       20.625     1423.471      659.698      425.401        0.726        0.125      109.581       19.409        0.031      346.343       24.522      860.894
06/08/2013  01:09:00      -87.462      -19.060        0.419       30.784       22.614       16.445      947.662      511.393      270.452        0.487        0.086       89.515       17.803        0.040      346.310       24.466      860.891
06/08/2013  01:10:00     -119.926        1.670      -10.258       23.797       26.349       16.559      566.297      694.267      274.185        0.801        0.077      119.938       13.573        0.013      346.352       24.537      860.885
06/08/2013  01:11:00     -148.059       -4.347      -18.881       21.891       19.638       14.754      479.230      385.655      217.683        1.169        0.054      148.123        7.765        0.003      346.328       24.497      860.875
06/08/2013  01:12:00     -155.199       10.280      -14.070       17.242       19.714        9.378      297.302      388.626       87.940        1.258        0.039      155.539        3.168        0.000      346.264       24.386      860.877
06/08/2013  01:13:00     -159.975       36.410       -8.957       25.821       21.107       13.725      666.735      445.522      188.366        1.415        0.065      164.066       10.520        0.004      346.260       24.379      860.882
06/08/2013  01:14:00     -170.526       13.893      -11.719       22.873       17.856       12.963      523.166      318.832      168.047        1.521        0.051      171.091        9.758        0.003      346.231       24.329      860.876
06/08/2013  01:15:00     -155.833       21.137       -6.574       23.883       22.244       14.694      570.415      494.784      215.900        1.303        0.064      157.260        9.281        0.003      346.185       24.251      860.872
06/08/2013  01:16:00     -177.422       17.193      -13.197       17.920       18.059       12.418      321.121      326.131      154.199        1.637        0.040      178.253        8.564        0.002      346.185       24.249      860.869
06/08/2013  01:17:00     -194.647        8.436      -17.095       21.971       20.464       13.953      482.734      418.789      194.675        1.967        0.055      194.830        9.267        0.002      346.280       24.414      860.861
06/08/2013  01:18:00     -182.705        8.148      -15.505       21.038       29.325       16.078      442.578      859.975      258.493        1.762        0.078      182.886       14.668        0.006      346.355       24.542      860.871
06/08/2013  01:19:00     -178.875       18.088      -11.040       45.076       44.773       28.403     2031.891     2004.586      806.743        1.864        0.242      179.787       24.062        0.018      346.371       24.569      860.872
06/08/2013  01:20:00     -153.020       -9.023      -12.547       45.005       43.425       25.592     2025.415     1885.743      654.962        1.411        0.228      153.286       24.358        0.025      346.290       24.430      860.867
06/08/2013  01:21:00     -136.172      -37.376       -2.662       47.431       47.709       28.565     2249.718     2276.102      815.946        1.264        0.267      141.208       26.199        0.034      346.143       24.177      860.860
06/08/2013  01:22:00     -177.373      -40.084       -4.312       68.237       36.874       28.537     4656.223     1359.687      814.352        1.996        0.342      181.846       32.753        0.032      346.300       24.447      860.862
06/08/2013  01:23:00     -159.035      -24.757       -7.784       49.429       32.480       26.209     2443.191     1054.961      686.905        1.507        0.209      160.950       24.120        0.022      346.203       24.280      860.860
06/08/2013  01:24:00     -184.270      -24.891        1.289       58.312       38.404       34.553     3400.299     1474.896     1193.939        2.032        0.303      185.943       29.659        0.025      346.418       24.651      860.857
06/08/2013  01:25:00     -183.974      -49.468       -7.722       69.251       42.360       35.827     4795.696     1794.373     1283.568        2.211        0.394      190.509       36.283        0.036      346.475       24.746      860.852
06/08/2013  01:26:00     -123.796      -29.254       -5.498       54.252       37.792       21.715     2943.246     1428.208      471.522        1.053        0.242      127.206       26.972        0.045      346.165       24.217      860.858
06/08/2013  01:27:00     -131.346      -30.604       -3.469       52.608       41.256       26.952     2767.594     1702.041      726.425        1.170        0.260      134.864       28.291        0.044      346.099       24.102      860.873
06/08/2013  01:28:00     -163.514      -23.339       -3.879       68.541       52.139       34.516     4697.803     2718.511     1191.321        1.795        0.430      165.171       35.939        0.047      346.266       24.387      860.888
06/08/2013  01:29:00     -207.903      -16.697      -21.157       74.395       62.087       35.335     5534.603     3854.769     1248.581        2.729        0.532      208.572       38.907        0.035      346.382       24.586      860.899
06/08/2013  01:30:00     -154.329      -21.579       -7.659       79.331       65.511       35.267     6293.468     4291.707     1243.792        1.808        0.591      155.831       36.968        0.056      346.272       24.398      860.911
06/08/2013  01:31:00     -171.737       61.932      -16.414       65.937       62.624       42.968     4347.712     3921.792     1846.256        2.186        0.506      182.562       34.125        0.035      346.399       24.616      860.927
06/08/2013  01:32:00     -182.655      -62.450       -6.273       72.288       63.097       38.873     5225.625     3981.183     1511.087        2.401        0.536      193.036       37.784        0.038      346.313       24.467      860.943
06/08/2013  01:33:00     -281.315       12.845      -23.520       69.663       51.909       35.118     4852.892     2694.562     1233.285        4.432        0.439      281.608       34.896        0.015      346.528       24.835      860.953
06/08/2013  01:34:00     -238.068      -23.139      -17.569       76.682       56.501       41.999     5880.121     3192.333     1763.929        3.418        0.542      239.190       42.899        0.032      346.416       24.643      860.949
06/08/2013  01:35:00     -185.822      -25.966       -3.786       59.381       54.962       37.785     3526.131     3020.797     1427.718        2.159        0.399      187.628       26.627        0.020      346.344       24.522      860.959
06/08/2013  01:36:00     -184.573      -35.295      -22.420       78.798       58.802       28.088     6209.079     3457.661      788.945        2.313        0.523      187.918       34.719        0.034      346.315       24.471      860.964
06/08/2013  01:37:00     -142.800       -3.790      -12.592       50.648       35.488       30.238     2565.204     1259.389      914.318        1.265        0.237      142.850       27.620        0.037      346.177       24.236      860.968
06/08/2013  01:38:00     -148.687      -30.715      -14.616       41.332       42.755       24.441     1708.375     1827.997      597.344        1.370        0.207      151.827       17.016        0.013      346.168       24.220      860.981
06/08/2013  01:39:00     -138.740        5.701       -9.158       46.996       42.785       25.778     2208.605     1830.531      664.511        1.203        0.235      138.857       21.692        0.024      346.237       24.340      860.989
06/08/2013  01:40:00     -150.985      -59.776      -11.645       39.674       32.340       23.437     1574.008     1045.855      549.314        1.484        0.158      162.387       10.405        0.004      346.167       24.219      860.977
06/08/2013  01:41:00     -161.050      -13.196      -10.793       59.270       45.699       27.221     3512.883     2088.377      740.986        1.628        0.317      161.590       31.843        0.039      346.150       24.189      860.976
06/08/2013  01:42:00     -131.022       21.320      -15.082       63.052       63.338       31.392     3975.561     4011.664      985.482        1.341        0.449      132.745       27.007        0.041      346.016       23.960      860.988
06/08/2013  01:43:00     -174.833      -59.407       -3.157       65.330       45.178       27.713     4268.057     2041.082      768.014        2.059        0.354      184.650       31.614        0.029      346.130       24.155      860.963
06/08/2013  01:44:00     -109.591      -67.792        9.494       77.511       72.212       42.237     6007.921     5214.612     1783.938        1.485        0.650      128.864       42.401        0.108      346.183       24.245      860.952
06/08/2013  01:45:00      -94.938       54.440        0.566       43.879       34.830       24.461     1925.329     1213.095      598.348        0.786        0.187      109.439       24.817        0.051      345.942       23.833      860.967
06/08/2013  01:46:00     -190.986      -66.334      -16.739       61.055       53.934       25.498     3727.685     2908.909      650.164        2.422        0.364      202.178       21.512        0.011      346.085       24.077      860.960
06/08/2013  01:47:00     -109.619      -34.183       -1.219       55.620       51.469       26.299     3093.579     2649.100      691.635        0.981        0.322      114.825       20.883        0.033      346.205       24.284      860.956
06/08/2013  01:48:00      -31.718       76.443        1.054       27.658       49.935       22.717      764.947     2493.481      516.054        0.531        0.189       82.762       27.329        0.109      346.037       23.997      860.978
06/08/2013  01:49:00     -111.034       91.571      -25.016       39.338       52.265       24.695     1547.510     2731.682      609.821        1.311        0.244      143.923       18.879        0.017      346.151       24.191      860.989
06/08/2013  01:50:00      -87.667       49.994      -15.348       36.383       35.977       22.670     1323.695     1294.325      513.937        0.678        0.157      100.920       19.636        0.038      346.152       24.192      860.984
06/08/2013  01:51:00      -86.658       17.924       -4.355       40.628       25.442       20.079     1650.674      647.313      403.147        0.527        0.135       88.492       21.387        0.058      346.262       24.383      860.980
06/08/2013  01:52:00     -114.274       27.031       -8.149       32.618       26.450       18.949     1063.955      699.603      359.061        0.799        0.106      117.428        8.878        0.006      346.367       24.563      860.974
06/08/2013  01:53:00     -134.840      -45.627      -11.026       30.612       24.896       15.988      937.097      619.810      255.601        1.110        0.091      142.351        7.988        0.003      346.053       24.024      860.959
06/08/2013  01:54:00     -155.414      -43.277       -8.173       16.300       13.495        9.589      265.674      182.120       91.952        1.332        0.027      161.327        7.994        0.002      345.822       23.626      860.957
06/08/2013  01:55:00     -168.316        4.574      -16.442       38.427       28.587       16.128     1476.613      817.241      260.127        1.559        0.128      168.378       15.654        0.009      345.794       23.581      860.963
06/08/2013  01:56:00     -193.378       16.371      -14.442       35.212       28.886       22.496     1239.906      834.407      506.055        2.023        0.129      194.070       20.198        0.011      345.738       23.481      860.976
06/08/2013  01:57:00     -148.933        2.505      -16.260       38.002       37.475       21.264     1444.151     1404.398      452.170        1.288        0.165      148.954       19.198        0.017      345.750       23.504      860.972
06/08/2013  01:58:00     -126.842       -2.213      -10.057       21.836       23.405       20.954      476.808      547.780      439.088        0.883        0.073      126.861        9.689        0.006      345.758       23.518      860.972
06/08/2013  01:59:00      -90.351      -42.469      -11.089       53.980       30.370       21.714     2913.798      922.354      471.496        0.720        0.215       99.835       10.719        0.012      345.729       23.468      860.958
06/08/2013  02:00:00     -145.930      -50.158       -3.138       45.373       41.404       23.480     2058.704     1714.252      551.291        1.407        0.216      154.309       17.120        0.012      345.690       23.399      860.955
06/08/2013  02:01:00      -69.511      -37.769        6.130       48.356       42.525       26.823     2338.343     1808.399      719.447        0.558        0.243       79.109       27.891        0.124      345.781       23.556      860.946
06/08/2013  02:02:00      -98.131        3.555      -11.614       31.379       23.191       13.741      984.620      537.812      188.802        0.574        0.086       98.196       10.484        0.011      345.742       23.489      860.949
06/08/2013  02:03:00     -103.875       10.274       -6.449       42.020       27.744       21.232     1765.718      769.706      450.810        0.696        0.149      104.382       15.745        0.023      345.742       23.490      860.940
06/08/2013  02:04:00      -78.964       19.477       -3.749       38.547       19.236       13.257     1485.902      370.004      175.737        0.433        0.102       81.331       10.180        0.016      345.724       23.460      860.949
06/08/2013  02:05:00     -126.475       -8.063      -19.932       23.193       17.488       16.267      537.925      305.816      264.608        0.878        0.055      126.732        8.968        0.005      345.718       23.450      860.949
06/08/2013  02:06:00     -133.250        7.764      -12.855       17.032       24.158        9.088      290.092      583.598       82.600        0.947        0.048      133.476        8.565        0.004      345.827       23.635      860.945
06/08/2013  02:07:00     -175.993      -12.114      -22.180       23.554       20.522       14.663      554.795      421.136      215.018        1.640        0.060      176.410        9.444        0.003      345.825       23.632      860.944
06/08/2013  02:08:00     -190.289      -46.465      -20.808       23.385       27.069       15.962      546.849      732.716      254.799        2.017        0.077      195.880       15.986        0.007      345.667       23.361      860.949
06/08/2013  02:09:00     -119.030      -32.300        2.366       48.423       33.475       18.521     2344.830     1120.549      343.024        0.951        0.190      123.334       18.181        0.022      345.579       23.209      860.954
06/08/2013  02:10:00      -80.863       -2.366       -1.187       43.379       23.106       16.674     1881.715      533.890      278.019        0.462        0.135       80.898       20.566        0.065      345.515       23.100      860.973
06/08/2013  02:11:00     -130.413      -17.516       -5.910       50.272       42.323       28.783     2527.310     1791.233      828.438        1.125        0.257      131.584       29.096        0.049      345.527       23.121      860.970
06/08/2013  02:12:00     -141.514      -68.596       -2.307       40.974       37.803       25.067     1678.905     1429.090      628.333        1.424        0.187      157.263       20.671        0.017      345.568       23.192      860.964
06/08/2013  02:13:00     -163.742      -42.915      -11.452       67.592       37.501       28.300     4568.684     1406.350      800.882        1.778        0.339      169.273       27.719        0.027      345.607       23.258      860.970
06/08/2013  02:14:00     -142.925      -30.707       -0.814       57.448       41.963       29.388     3300.269     1760.917      863.665        1.365        0.296      146.187       31.889        0.048      345.681       23.384      860.974
06/08/2013  02:15:00     -125.218      -25.589       -2.948       53.258       46.135       26.093     2836.368     2128.417      680.827        1.099        0.282      127.806       23.973        0.035      345.732       23.472      860.977
06/08/2013  02:16:00     -136.588      -52.044       -2.560       66.288       35.148       28.541     4394.115     1235.374      814.567        1.391        0.322      146.167       36.264        0.062      345.860       23.691      860.972
06/08/2013  02:17:00     -101.674      -31.672       -3.013       40.613       32.551       22.825     1649.436     1059.577      521.001        0.729        0.162      106.493       22.700        0.045      345.892       23.747      860.956
06/08/2013  02:18:00      -95.351      -41.159       -0.915       37.945       31.600       19.243     1439.797      998.574      370.279        0.680        0.140      103.855       17.613        0.029      345.879       23.726      860.965
06/08/2013  02:19:00      -94.714      -45.377        0.469       32.989       26.863       18.326     1088.244      721.616      335.851        0.659        0.107      105.023       15.140        0.021      346.019       23.965      860.973
06/08/2013  02:20:00      -45.500      -46.823        3.863       35.862       30.807       17.481     1286.090      949.066      305.573        0.341        0.127       65.289       15.991        0.060      346.060       24.036      860.963
06/08/2013  02:21:00      -69.635     -102.588       -3.440       52.901       45.720       29.041     2798.523     2090.361      843.406        1.056        0.287      123.989       30.309        0.060      346.080       24.070      860.963
06/08/2013  02:22:00      -97.654     -117.955       -3.852       59.370       40.416       32.311     3524.826     1633.466     1043.994        1.483        0.310      153.133       33.336        0.047      346.157       24.202      860.965
06/08/2013  02:23:00      -77.303      -86.106        3.862       50.642       48.247       30.936     2564.581     2327.786      957.030        0.963        0.292      115.715       22.102        0.036      346.070       24.051      860.975
06/08/2013  02:24:00      -51.154      -86.972        3.247       41.678       41.694       26.884     1737.020     1738.362      722.725        0.719        0.210      100.901       15.913        0.025      345.883       23.732      860.984
06/08/2013  02:25:00      -57.979      -54.688       -3.316       35.562       48.319       26.765     1264.676     2334.729      716.378        0.534        0.216       79.702       11.171        0.020      345.758       23.517      860.995
06/08/2013  02:26:00      -52.332      -38.009       -0.191       47.298       37.729       21.810     2237.105     1423.460      475.662        0.416        0.207       64.679       15.931        0.061      345.803       23.595      861.024
06/08/2013  02:27:00      -75.109      -70.383       -0.905       34.421       32.771       18.242     1184.839     1073.928      332.775        0.659        0.130      102.933       11.920        0.013      345.983       23.903      861.035
06/08/2013  02:28:00      -72.758      -24.627       -2.301       31.353       24.448       18.072      982.981      597.712      326.614        0.391        0.095       76.813       16.017        0.043      345.828       23.637      861.032
06/08/2013  02:29:00      -89.209      -77.483        2.491       52.996       52.981       29.699     2808.625     2807.005      882.003        1.023        0.325      118.160       20.941        0.031      345.915       23.788      861.035
06/08/2013  02:30:00      -67.176      -82.756        4.008       58.525       72.829       32.953     3425.132     5304.109     1085.886        1.059        0.491      106.589       35.215        0.109      345.880       23.726      861.038
06/08/2013  02:31:00     -122.189      -60.130       -0.364       82.141       49.200       34.136     6747.182     2420.650     1165.298        1.444        0.517      136.183       15.820        0.013      345.726       23.462      861.057
06/08/2013  02:32:00      -95.924      -99.787       -2.133       67.598       66.170       35.617     4569.524     4378.435     1268.581        1.469        0.511      138.416       38.458        0.077      345.706       23.427      861.060
06/08/2013  02:33:00      -65.675      -64.505        9.173       51.019       41.666       22.793     2602.915     1736.051      519.520        0.671        0.243       92.055       22.083        0.058      345.653       23.337      861.049
06/08/2013  02:34:00     -117.610      -84.015        4.872       41.997       34.245       26.993     1763.739     1172.724      728.608        1.229        0.183      144.536       19.520        0.018      345.628       23.292      861.052
06/08/2013  02:35:00     -106.097      -71.546        6.842       58.457       59.092       37.222     3417.173     3491.815     1385.472        1.236        0.415      127.966       31.906        0.062      345.775       23.547      861.044
06/08/2013  02:36:00      -92.618      -90.458        7.016       90.741       68.490       45.744     8233.886     4690.872     2092.529        1.591        0.751      129.463       46.558        0.129      345.738       23.481      861.040
06/08/2013  02:37:00     -190.877     -118.880       -8.010       61.560       51.247       35.362     3789.677     2626.269     1250.454        2.915        0.383      224.870       29.733        0.017      345.892       23.743      861.043
06/08/2013  02:38:00     -113.885      -65.017        5.383       47.798       38.878       26.758     2284.667     1511.530      716.016        1.087        0.226      131.138       28.015        0.046      345.869       23.708      861.059
06/08/2013  02:39:00      -79.386      -64.239        6.132       50.645       46.223       29.741     2564.927     2136.581      884.509        0.803        0.279      102.122       26.063        0.065      345.830       23.640      861.063
06/08/2013  02:40:00      -49.025      -41.087       10.605       57.241       55.977       30.349     3276.527     3133.480      921.073        0.577        0.367       63.966       30.576        0.228      346.001       23.936      861.061
06/08/2013  02:41:00     -105.956      -68.247        3.547       43.958       38.669       24.610     1932.267     1495.294      605.628        0.996        0.202      126.033       18.814        0.022      345.891       23.746      861.064
06/08/2013  02:42:00      -70.890       -4.668        6.975       36.310       38.319       19.206     1318.420     1468.338      368.875        0.413        0.158       71.044       18.639        0.069      345.653       23.336      861.075
06/08/2013  02:43:00      -82.697       -5.759        0.250       30.243       25.059       17.708      914.655      627.930      313.584        0.436        0.093       82.898       14.509        0.031      345.531       23.127      861.063
06/08/2013  02:44:00      -65.321      -21.410        5.476       44.754       24.939       19.688     2002.892      621.963      387.617        0.388        0.151       68.740       22.420        0.106      345.506       23.083      861.054
06/08/2013  02:45:00      -21.675       -9.740        9.798       28.229       16.433       17.602      796.863      270.047      309.847        0.102        0.069       23.763       11.079        0.217      345.544       23.149      861.066
06/08/2013  02:46:00      -54.763       -1.819        1.256       27.873       13.957        9.815      776.917      194.810       96.333        0.204        0.053       54.793       11.550        0.044      345.560       23.177      861.067
06/08/2013  02:47:00       -0.335      -30.933        0.365       27.939       15.052       10.654      780.603      226.559      113.515        0.104        0.056       30.935       12.583        0.165      345.502       23.078      861.075
06/08/2013  02:48:00       45.084       13.914        6.766       10.867       12.168       11.235      118.089      148.065      126.216        0.133        0.020       47.183        6.923        0.022      345.364       22.839      861.078
06/08/2013  02:49:00       42.938       45.334        1.046       16.951       16.713       13.559      287.325      279.313      183.857        0.233        0.038       62.441        9.995        0.026      345.145       22.467      861.079
06/08/2013  02:50:00       29.887       16.847        9.468       20.234       12.196       10.247      409.396      148.750      104.999        0.096        0.033       34.308        7.782        0.051      345.127       22.438      861.077
06/08/2013  02:51:00       -5.938        1.641        0.360       14.994       11.424       11.704      224.810      130.499      136.988        0.027        0.025        6.161        8.483        1.896      345.323       22.772      861.084
06/08/2013  02:52:00       -3.338      -18.857        4.662        9.616       13.361        7.391       92.464      178.504       54.621        0.036        0.016       19.150        5.328        0.077      345.469       23.022      861.086
06/08/2013  02:53:00      -44.411       -5.590        0.208       20.485       17.066       10.713      419.632      291.251      114.766        0.141        0.041       44.761        9.875        0.049      345.408       22.917      861.080
06/08/2013  02:54:00      -44.254        5.931        0.683       20.310       12.906       11.460      412.511      166.562      131.337        0.135        0.036       44.649       11.289        0.064      345.313       22.753      861.079
06/08/2013  02:55:00      -78.022        9.253       -6.686       31.907       41.492       24.546     1018.053     1721.604      602.528        0.478        0.167       78.569       19.841        0.064      345.692       23.403      861.081
06/08/2013  02:56:00      -28.514      -14.403       -2.335       36.964       23.059       11.749     1366.316      531.727      138.050        0.153        0.102       31.945        9.517        0.089      345.549       23.160      861.064
06/08/2013  02:57:00      -30.178      -17.773       -3.525       33.000       16.364        9.322     1088.975      267.772       86.908        0.134        0.072       35.023       12.321        0.124      345.652       23.335      861.049
06/08/2013  02:58:00       -3.941       20.868       10.548       23.816       17.496       15.768      567.217      306.096      248.627        0.084        0.056       21.237       13.754        0.419      345.403       22.907      861.058
06/08/2013  02:59:00       19.410       60.681      -14.953       13.701       19.670       10.963      187.705      386.923      120.188        0.249        0.035       63.710        9.295        0.021      345.139       22.458      861.064
06/08/2013  03:00:00       29.643       36.930        1.014       13.832       22.102       20.491      191.312      488.481      419.874        0.167        0.055       47.356       10.089        0.045      345.037       22.281      861.067
06/08/2013  03:01:00       18.421      -11.096        4.260       15.151       13.892        8.729      229.558      193.001       76.188        0.049        0.025       21.505        5.356        0.062      345.017       22.249      861.080
06/08/2013  03:02:00      -18.282       -1.699       -0.798       37.603       10.240        7.806     1413.970      104.857       60.932        0.096        0.079       18.360       11.036        0.361      345.122       22.430      861.083
06/08/2013  03:03:00       41.358       21.463        7.572       32.300       12.206        7.627     1043.312      148.983       58.171        0.174        0.063       46.595        9.693        0.043      345.129       22.441      861.094
06/08/2013  03:04:00       19.437       20.563       13.135       18.815       15.179        7.865      354.015      230.408       61.856        0.081        0.032       28.295        6.148        0.047      345.016       22.246      861.072
06/08/2013  03:05:00       29.987      -35.959       -0.659       18.338       12.306        7.382      336.293      151.432       54.495        0.137        0.027       46.822        7.267        0.024      345.142       22.461      861.059
06/08/2013  03:06:00       10.015      -69.606       -6.949       26.228       22.580       15.072      687.910      509.864      227.150        0.321        0.071       70.323       12.017        0.029      345.203       22.566      861.062
06/08/2013  03:07:00       24.508      -73.608      -11.612       28.114       26.862       20.793      790.418      721.578      432.336        0.405        0.097       77.581       16.716        0.046      345.146       22.469      861.060
06/08/2013  03:08:00      -28.915      -80.601        2.108       49.530       40.997       26.497     2453.222     1680.738      702.073        0.609        0.242       85.631       16.989        0.039      345.124       22.433      861.059
06/08/2013  03:09:00      -49.428      -47.268        4.155       42.698       32.482       19.633     1823.119     1055.049      385.474        0.398        0.163       68.392        9.066        0.018      345.105       22.399      861.068
06/08/2013  03:10:00        8.637      -57.030        7.882       24.171       27.943       22.640      584.259      780.801      512.585        0.263        0.094       57.681       10.236        0.031      345.155       22.485      861.064
06/08/2013  03:11:00      -30.189      -48.307        8.490       42.052       32.822       25.050     1768.389     1077.258      627.515        0.339        0.174       56.964       19.214        0.114      345.176       22.520      861.064
06/08/2013  03:12:00        2.695      -62.196       -0.901       31.721       41.535       22.326     1006.233     1725.125      498.434        0.355        0.161       62.254       12.873        0.043      345.111       22.410      861.074
06/08/2013  03:13:00      -14.437      -73.750       12.184       48.647       42.634       28.893     2366.495     1817.699      834.798        0.541        0.251       75.150       20.647        0.075      345.188       22.540      861.071
06/08/2013  03:14:00      -13.902      -62.381      -15.605       29.110       40.138       26.651      847.367     1611.094      710.290        0.375        0.158       63.912       24.710        0.149      345.130       22.440      861.063
06/08/2013  03:15:00        3.505      -86.745       -6.269       42.448       36.181       26.955     1801.828     1309.037      726.572        0.571        0.192       86.815       21.770        0.063      345.164       22.499      861.048
06/08/2013  03:16:00       13.322      -56.032       -1.775       26.980       48.093       27.281      727.916     2312.927      744.249        0.355        0.189       57.594       28.644        0.247      345.164       22.498      861.042
06/08/2013  03:17:00       -3.733      -19.937       -1.531       16.012       17.176       10.407      256.380      295.018      108.300        0.054        0.033       20.283        6.651        0.108      345.076       22.348      861.056
06/08/2013  03:18:00      -54.221      -21.958        4.367       39.562       33.177       18.682     1565.189     1100.695      349.004        0.323        0.151       58.499       15.606        0.071      344.972       22.170      861.067
06/08/2013  03:19:00      -28.897      -39.745        4.125       44.607       30.404       22.159     1989.819      924.389      491.037        0.292        0.170       49.140       19.037        0.150      344.882       22.015      861.076
06/08/2013  03:20:00      -31.461      -31.932        1.262       21.275       19.760       16.045      452.616      390.440      257.450        0.156        0.055       44.827       10.007        0.050      344.880       22.013      861.071
06/08/2013  03:21:00      -45.484      -20.697        2.338       21.896       20.715       14.819      479.427      429.118      219.596        0.182        0.056       49.972       13.137        0.069      344.945       22.123      861.079
06/08/2013  03:22:00      -81.102      -23.712       -2.152       35.544       29.658       17.571     1263.400      879.619      308.739        0.480        0.123       84.497       15.447        0.033      344.923       22.086      861.083
06/08/2013  03:23:00      -95.431      -52.757       -6.850       27.118       23.609       12.230      735.361      557.372      149.582        0.669        0.072      109.043       12.647        0.013      344.889       22.028      861.084
06/08/2013  03:24:00      -68.232      -59.030        4.703       35.231       29.122       20.095     1241.255      848.092      403.795        0.533        0.125       90.223       19.212        0.045      344.873       22.000      861.083
06/08/2013  03:25:00      -65.962      -34.018        3.003       48.768       24.620       25.059     2378.356      606.131      627.940        0.456        0.181       74.217       24.301        0.107      344.790       21.859      861.092
06/08/2013  03:26:00      -72.863      -61.209        3.858       40.740       33.293       21.825     1659.737     1108.436      476.327        0.616        0.162       95.161       18.186        0.037      344.807       21.889      861.091
06/08/2013  03:27:00      -52.440      -53.216        6.247       67.752       34.111       22.211     4590.348     1163.569      493.310        0.593        0.312       74.712       27.783        0.138      344.700       21.705      861.096
06/08/2013  03:28:00      -62.661      -53.623        5.448       43.332       23.153       24.707     1877.630      536.047      610.417        0.493        0.151       82.473       19.140        0.054      344.596       21.527      861.092
06/08/2013  03:29:00      -25.595      -75.538       11.494       45.155       26.761       25.731     2039.004      716.147      662.067        0.495        0.171       79.756       15.345        0.037      344.598       21.531      861.103
06/08/2013  03:30:00      -25.774      -42.327       -1.700       40.110       47.601       19.638     1608.825     2265.866      385.654        0.336        0.213       49.557       19.579        0.156      344.563       21.471      861.104
06/08/2013  03:31:00      -35.636       14.142        2.795       37.012       20.701       17.699     1369.888      428.532      313.240        0.179        0.106       38.340       15.675        0.167      344.472       21.313      861.117
06/08/2013  03:32:00      -86.145      -27.946       -0.077       28.534       33.517       19.354      814.197     1123.358      374.588        0.526        0.116       90.564       14.249        0.025      344.531       21.415      861.126
06/08/2013  03:33:00      -62.544      -19.720       -6.037       35.021       25.765       17.287     1226.498      663.858      298.850        0.326        0.109       65.579       16.530        0.064      344.448       21.274      861.135
06/08/2013  03:34:00      -40.884      -43.972       -6.430       27.413       21.470       13.207      751.448      460.948      174.412        0.252        0.069       60.042        9.784        0.027      344.442       21.264      861.128
06/08/2013  03:35:00      -35.150      -60.105       -1.676       47.993       35.927       24.513     2303.354     1290.730      600.907        0.452        0.210       69.629       19.486        0.078      344.438       21.257      861.122
06/08/2013  03:36:00      -38.504      -62.310       -0.368       48.031       33.284       25.823     2306.999     1107.792      666.835        0.472        0.204       73.246       22.886        0.098      344.436       21.253      861.124
06/08/2013  03:37:00      -18.987      -59.196        7.479       46.702       34.563       23.337     2181.105     1194.586      544.628        0.392        0.196       62.166       16.028        0.066      344.484       21.336      861.115
06/08/2013  03:38:00       -1.565      -18.457        7.651       13.152       24.604       21.679      172.966      605.377      469.999        0.082        0.062       18.523       10.452        0.318      344.412       21.212      861.106
06/08/2013  03:39:00      -40.186      -11.661       -1.004       37.313       18.738       11.731     1392.260      351.099      137.612        0.182        0.094       41.843       14.878        0.126      344.492       21.348      861.115
06/08/2013  03:40:00      -88.585      -21.198        2.404       39.990       27.307       17.600     1599.174      745.649      309.758        0.548        0.133       91.086       14.488        0.025      344.362       21.127      861.133
06/08/2013  03:41:00      -59.910        0.188        0.635       38.650       31.933       15.434     1493.834     1019.699      238.214        0.317        0.138       59.910       16.225        0.073      344.253       20.940      861.130
06/08/2013  03:42:00      -13.934       63.863       -9.579       18.048       19.721        9.192      325.736      388.926       84.494        0.258        0.040       65.365        6.444        0.010      344.357       21.118      861.124
06/08/2013  03:43:00      -16.218       33.233       -0.786       16.118       11.053        9.025      259.794      122.178       81.451        0.092        0.023       36.979        4.545        0.015      344.428       21.239      861.120
06/08/2013  03:44:00      -83.345       -4.534      -12.357       31.540       15.959        9.186      994.787      254.687       84.377        0.423        0.067       83.468        8.569        0.011      344.429       21.242      861.120
06/08/2013  03:45:00     -153.692      -31.381      -10.865       16.919       22.927       12.185      286.259      525.669      148.469        1.284        0.048      156.863        7.204        0.002      344.284       20.993      861.115
06/08/2013  03:46:00     -139.050      -44.506       -9.834       22.138       21.722       17.147      490.091      471.862      294.005        1.133        0.063      145.999       11.320        0.006      344.256       20.945      861.134
06/08/2013  03:47:00     -120.619      -38.745      -10.286       25.470       24.363       16.095      648.740      593.541      259.055        0.883        0.075      126.689        8.343        0.004      344.196       20.844      861.148
06/08/2013  03:48:00      -52.751      -21.155        0.496       38.698       26.010       13.004     1497.540      676.516      169.108        0.279        0.117       56.834       15.891        0.078      344.132       20.734      861.144
06/08/2013  03:49:00      -40.887      -35.519       -8.697       28.446       12.567        8.082      809.180      157.935       65.317        0.202        0.052       54.160        6.081        0.013      344.326       21.066      861.132
06/08/2013  03:50:00       -0.230      -24.688       -8.550       13.160        9.897       12.712      173.193       97.947      161.591        0.056        0.022       24.689        1.793        0.005      344.324       21.063      861.126
06/08/2013  03:51:00      -16.808      -36.497        0.014       17.925       18.975       13.182      321.317      360.043      173.759        0.123        0.043       40.181        7.879        0.038      344.415       21.218      861.126
06/08/2013  03:52:00      -14.862        1.778        8.376       13.845       16.413        8.646      191.697      269.387       74.756        0.041        0.027       14.967        6.655        0.198      344.324       21.061      861.160
06/08/2013  03:53:00      -68.325      -14.066       -4.154       24.389       23.428       11.985      594.844      548.868      143.645        0.309        0.064       69.758       12.861        0.034      344.117       20.709      861.182
06/08/2013  03:54:00      -45.489      -64.828       -0.355       20.993       22.574       13.189      440.722      509.577      173.938        0.370        0.056       79.195        6.906        0.008      344.259       20.952      861.197
06/08/2013  03:55:00      -60.044      -97.831      -16.963       23.201       17.830       15.042      538.265      317.922      226.248        0.727        0.054      114.787       11.355        0.010      344.221       20.888      861.199
06/08/2013  03:56:00      -32.415      -55.113      -10.757       31.408       33.005       26.282      986.447     1089.327      690.750        0.348        0.138       63.939       21.426        0.112      344.241       20.921      861.205
06/08/2013  03:57:00      -17.278        1.075        1.644       16.906       19.523       18.108      285.802      381.134      327.916        0.065        0.050       17.311       12.579        0.528      344.177       20.812      861.213
06/08/2013  03:58:00      -16.770       16.800       11.719       14.329       13.122       10.944      205.321      172.190      119.765        0.060        0.025       23.737        4.891        0.042      344.173       20.804      861.239
06/08/2013  03:59:00      -16.335       12.433        2.707       16.638       15.655       11.741      276.831      245.071      137.859        0.054        0.033       20.529        8.984        0.192      344.170       20.800      861.258
06/08/2013  04:00:00      -25.890       -0.016       -6.421       13.726       20.920       12.698      188.403      437.635      161.251        0.075        0.039       25.890        4.930        0.036      344.202       20.854      861.260
06/08/2013  04:01:00      -30.793      -12.094        8.285       36.102       16.603       15.140     1303.330      275.649      229.206        0.149        0.090       33.082       12.000        0.132      344.154       20.770      861.253
06/08/2013  04:02:00      -29.677      -19.979        6.857       30.318       26.424       14.545      919.170      698.207      211.555        0.158        0.091       35.776       17.399        0.237      344.079       20.645      861.256
06/08/2013  04:03:00      -94.725      -70.698        2.338       38.016       43.265       19.304     1445.194     1871.868      372.633        0.883        0.184      118.199       20.393        0.030      344.095       20.671      861.246
06/08/2013  04:04:00      -99.262      -77.034        2.638       53.816       44.801       28.177     2896.189     2007.123      793.962        1.074        0.285      125.647       25.962        0.043      344.053       20.598      861.228
06/08/2013  04:05:00     -125.569     -102.660        6.166       52.726       40.436       29.465     2779.979     1635.073      868.209        1.581        0.264      162.193       29.276        0.033      344.068       20.626      861.233
06/08/2013  04:06:00     -127.908      -91.093       -6.179       67.057       43.002       27.997     4496.580     1849.132      783.826        1.591        0.356      157.030       24.409        0.024      344.082       20.648      861.218
06/08/2013  04:07:00      -88.434      -69.213       -1.989       53.526       38.357       30.191     2865.041     1471.240      911.497        0.893        0.262      112.299       21.216        0.036      344.084       20.655      861.226
06/08/2013  04:08:00      -82.222      -41.543        6.404       48.939       31.372       22.802     2394.983      984.217      519.945        0.621        0.195       92.121       14.614        0.025      344.013       20.529      861.250
06/08/2013  04:09:00     -108.418      -57.243       -3.842       34.271       35.157       22.598     1174.502     1236.043      510.654        0.898        0.146      122.602       17.415        0.020      343.978       20.471      861.270
06/08/2013  04:10:00      -94.705      -47.298       -3.489       31.570       38.702       19.177      996.635     1497.849      367.754        0.704        0.143      105.859       16.369        0.024      343.947       20.418      861.285
06/08/2013  04:11:00     -121.350      -13.240       -3.275       62.225       52.671       27.911     3871.942     2774.276      779.041        1.117        0.371      122.070       29.538        0.059      343.883       20.310      861.303
06/08/2013  04:12:00     -193.536      -38.220      -24.458       47.099       39.295       19.975     2218.297     1544.094      398.991        2.184        0.208      197.274       21.797        0.012      343.753       20.085      861.303
06/08/2013  04:13:00     -137.580      -68.128      -10.615       27.810       48.703       26.617      773.402     2372.029      708.446        1.377        0.193      153.524       15.594        0.010      343.705       20.004      861.298
06/08/2013  04:14:00     -135.614      -54.878       -0.345       32.355       33.218       18.469     1046.871     1103.403      341.092        1.195        0.125      146.297       13.992        0.009      343.702       19.999      861.314
06/08/2013  04:15:00     -136.506      -45.450      -16.152       24.310       31.989       19.443      590.988     1023.289      378.012        1.148        0.100      143.873       15.239        0.011      343.663       19.935      861.319
06/08/2013  04:16:00     -122.379      -47.424       -3.591       28.611       37.461       18.182      818.585     1403.315      330.581        0.989        0.128      131.246       12.788        0.009      343.655       19.918      861.324
06/08/2013  04:17:00     -141.017      -73.776       -6.757       34.962       42.484       25.850     1222.308     1804.929      668.226        1.453        0.185      159.150       19.171        0.015      343.657       19.923      861.333
06/08/2013  04:18:00     -120.172      -43.164       -2.451       46.262       37.620       23.710     2140.163     1415.276      562.162        1.021        0.206      127.689       22.014        0.030      343.651       19.912      861.341
06/08/2013  04:19:00     -149.024      -46.498       -7.342       38.698       27.515       17.000     1497.564      757.066      288.994        1.348        0.127      156.110       20.281        0.017      343.618       19.856      861.336
06/08/2013  04:20:00      -93.952      -21.887       -4.397       36.592       33.760       19.922     1338.958     1139.720      396.867        0.610        0.144       96.468       22.130        0.053      343.548       19.738      861.326
06/08/2013  04:21:00      -97.928      -21.962       -2.233       23.885       26.609       19.385      570.487      708.024      375.778        0.587        0.083      100.360       13.791        0.019      343.590       19.809      861.325
06/08/2013  04:22:00      -91.942      -25.923       -6.312       23.001       28.513       14.722      529.035      812.984      216.748        0.536        0.078       95.527       10.121        0.011      343.709       20.011      861.312
06/08/2013  04:23:00      -75.686      -26.118      -11.617       26.531       27.579       22.516      703.895      760.621      506.969        0.426        0.099       80.066       14.633        0.033      343.861       20.272      861.304
06/08/2013  04:24:00      -77.593        2.303       -8.334       38.958       23.430       17.462     1517.705      548.975      304.919        0.423        0.119       77.627       22.579        0.085      343.582       19.794      861.312
06/08/2013  04:25:00      -60.087       -1.963      -13.722       18.705       22.387       11.613      349.877      501.160      134.865        0.239        0.049       60.119        9.330        0.024      343.585       19.799      861.308
06/08/2013  04:26:00      -53.889      -24.233      -11.598       17.493       21.856       10.067      306.013      477.672      101.352        0.226        0.044       59.087        8.750        0.022      343.623       19.863      861.297
06/08/2013  04:27:00      -66.579        5.777       -9.564       32.413       25.074       17.745     1050.616      628.689      314.883        0.328        0.100       66.829       16.099        0.058      343.983       20.478      861.299
06/08/2013  04:28:00      -58.152       -6.533       -8.913       22.991       16.954       12.547      528.578      287.454      157.433        0.224        0.049       58.518        5.692        0.009      343.900       20.338      861.285
06/08/2013  04:29:00     -105.758        5.097      -11.247       30.077       17.925       19.512      904.638      321.300      380.729        0.647        0.080      105.881       16.954        0.026      343.688       19.976      861.276
06/08/2013  04:30:00      -81.139       -6.100      -15.609       23.595       25.532       17.688      556.729      651.889      312.861        0.419        0.076       81.368       12.343        0.023      343.660       19.926      861.271
06/08/2013  04:31:00      -99.833       -4.465      -16.449       37.082       30.586       21.597     1375.045      935.480      466.441        0.652        0.139       99.933       18.306        0.034      343.687       19.975      861.250
06/08/2013  04:32:00     -104.959       17.798      -13.727       40.927       29.556       19.534     1674.995      873.583      381.574        0.723        0.147      106.458       21.019        0.039      343.672       19.949      861.252
06/08/2013  04:33:00     -149.275       11.112      -18.697       30.892       26.853       17.724      954.293      721.102      314.130        1.237        0.099      149.688       13.388        0.008      343.639       19.892      861.250
06/08/2013  04:34:00     -163.779       35.613      -10.510       30.962       25.433       14.079      958.653      646.853      198.220        1.500        0.090      167.606       14.336        0.007      344.188       20.829      861.236
06/08/2013  04:35:00     -142.448       15.637       -7.505       26.249       19.473       16.330      689.036      379.196      266.669        1.096        0.067      143.303       10.978        0.006      343.995       20.500      861.222
06/08/2013  04:36:00     -133.164       20.385      -10.676       22.588       29.185       15.433      510.222      851.788      238.183        0.993        0.080      134.716       10.393        0.006      343.990       20.492      861.223
06/08/2013  04:37:00     -138.312        4.987      -12.720       23.654       22.847       13.689      559.525      521.996      187.388        1.029        0.063      138.402        6.401        0.002      344.081       20.646      861.207
06/08/2013  04:38:00     -148.572       22.236      -10.410       21.847       17.761       10.768      477.293      315.470      115.954        1.179        0.045      150.227        8.324        0.003      344.089       20.660      861.203
06/08/2013  04:39:00     -103.296      -30.627       -7.424       36.276       26.259       20.809     1315.920      689.529      433.017        0.705        0.122      107.741       22.179        0.042      343.988       20.487      861.203
06/08/2013  04:40:00     -132.918      -30.714      -22.443       29.113       30.665       18.291      847.543      940.328      334.559        1.062        0.106      136.421       10.874        0.006      344.058       20.608      861.201
06/08/2013  04:41:00     -149.756      -51.856      -11.136       35.896       39.528       20.624     1288.515     1562.441      425.339        1.426        0.164      158.479       16.130        0.010      344.117       20.709      861.202
06/08/2013  04:42:00     -203.009      -14.190      -26.742       79.165       41.396       32.832     6267.034     1713.639     1077.939        2.559        0.453      203.504       40.947        0.040      344.392       21.176      861.220
06/08/2013  04:43:00     -109.604      -32.113      -15.663       54.648       53.852       32.989     2986.355     2900.055     1088.257        1.013        0.349      114.212       29.378        0.066      344.272       20.974      861.224
06/08/2013  04:44:00     -152.856      -24.396      -22.543       39.036       38.027       29.069     1523.799     1446.030      845.029        1.414        0.191      154.791       19.773        0.016      344.309       21.035      861.236
06/08/2013  04:45:00     -188.700      -61.652       -9.267       49.748       54.579       36.227     2474.833     2978.864     1312.410        2.313        0.338      198.517       27.380        0.019      344.267       20.961      861.246
06/08/2013  04:46:00     -111.024      -30.965       -4.058       82.959       70.549       25.606     6882.261     4977.151      655.646        1.291        0.626      115.261       27.467        0.057      344.240       20.916      861.245
06/08/2013  04:47:00     -145.069       11.173       -8.955       65.056       53.584       27.620     4232.286     2871.232      762.865        1.456        0.393      145.499       22.952        0.025      344.286       20.995      861.262
06/08/2013  04:48:00     -137.756       -1.471      -13.765       30.634       44.344       26.572      938.457     1966.384      706.096        1.139        0.181      137.764       14.733        0.011      344.256       20.946      861.269
06/08/2013  04:49:00     -148.526      -17.005       -6.645       55.829       44.414       27.125     3116.841     1972.596      735.743        1.411        0.291      149.496       23.791        0.025      344.235       20.909      861.272
06/08/2013  04:50:00     -141.132       14.670      -10.647       40.712       48.484       23.747     1657.461     2350.729      563.903        1.241        0.229      141.893       13.754        0.009      344.263       20.958      861.293
06/08/2013  04:51:00     -115.076      -24.814      -21.564       36.694       35.461       22.172     1346.425     1257.452      491.582        0.871        0.155      117.721       19.352        0.027      344.392       21.177      861.309
06/08/2013  04:52:00      -52.649      -21.478       -1.030       46.838       42.053       23.312     2193.824     1768.484      543.440        0.387        0.225       56.862       24.243        0.182      344.282       20.992      861.321
06/08/2013  04:53:00      -45.182      -50.597        3.079       55.422       46.006       24.523     3071.557     2116.574      601.373        0.520        0.289       67.834       30.372        0.200      344.332       21.076      861.351
06/08/2013  04:54:00      -50.540      -71.664       -7.084       61.579       32.866       28.314     3791.960     1080.169      801.671        0.671        0.284       87.692       17.365        0.039      344.288       20.999      861.378
06/08/2013  04:55:00      -43.793      -47.011       -9.086       52.572       30.671       23.452     2763.840      940.696      549.976        0.423        0.213       64.248       19.150        0.089      344.124       20.719      861.383
06/08/2013  04:56:00      -26.674      -24.130        4.768       28.919       25.346       14.184      836.336      642.415      201.189        0.150        0.084       35.969       11.957        0.111      344.014       20.531      861.394
06/08/2013  04:57:00       -2.625      -18.253       11.315       26.775       24.756       20.858      716.900      612.874      435.041        0.112        0.088       18.441       11.295        0.375      343.775       20.124      861.415
06/08/2013  04:58:00      -43.037      -31.575       13.707       34.039       33.748       32.456     1158.660     1138.926     1053.376        0.319        0.168       53.377       28.846        0.292      343.652       19.916      861.436
06/08/2013  04:59:00      -31.950     -121.157      -20.516       43.791       42.419       34.367     1917.668     1799.396     1181.062        1.051        0.245      125.299       21.738        0.030      343.587       19.803      861.445
06/08/2013  05:00:00      -45.875     -140.244      -12.155       39.394       65.721       25.880     1551.860     4319.262      669.766        1.423        0.327      147.556       17.614        0.014      343.725       20.038      861.462
06/08/2013  05:01:00      -31.087     -100.346       -5.742       48.855       41.854       29.484     2386.830     1751.728      869.281        0.804        0.250      105.051       16.415        0.024      343.776       20.126      861.475
06/08/2013  05:02:00      -43.767      -92.839       13.743       61.508       52.161       37.138     3783.241     2720.746     1379.204        0.930        0.394      102.639       36.294        0.125      343.669       19.943      861.493
06/08/2013  05:03:00      -47.252      -43.857       16.705       60.340       33.955       28.078     3640.970     1152.918      788.363        0.501        0.279       64.468       24.213        0.141      343.577       19.786      861.511
06/08/2013  05:04:00      -58.815      -45.404       -1.012       58.877       43.906       30.702     3466.464     1927.714      942.607        0.593        0.317       74.301       28.575        0.148      343.524       19.696      861.526
06/08/2013  05:05:00      -97.159      -67.469        0.793       66.378       45.437       31.992     4406.046     2064.482     1023.467        1.074        0.375      118.287       23.930        0.041      343.439       19.552      861.540
06/08/2013  05:06:00      -60.023      -55.272        3.987       47.322       43.372       38.084     2239.412     1881.163     1450.412        0.612        0.279       81.595       19.024        0.054      343.346       19.394      861.550
06/08/2013  05:07:00      -19.824      -44.366       27.113       68.251       50.065       33.338     4658.252     2506.542     1111.445        0.568        0.414       48.594       30.358        0.390      343.327       19.361      861.561
06/08/2013  05:08:00      -12.382      -65.507        4.488       49.693       49.590       32.163     2469.365     2459.153     1034.473        0.521        0.298       66.667       20.359        0.093      343.315       19.341      861.570
06/08/2013  05:09:00      -18.899      -67.887       27.862       50.538       48.575       31.996     2554.131     2359.490     1023.748        0.584        0.297       70.469       32.802        0.217      343.351       19.401      861.585
06/08/2013  05:10:00     -130.471      -97.281        1.403       68.751       68.777       37.158     4726.661     4730.309     1380.706        1.866        0.542      162.746       31.697        0.038      343.269       19.261      861.613
06/08/2013  05:11:00      -52.502     -112.797       10.339       74.816       87.657       37.301     5597.468     7683.784     1391.344        1.513        0.734      124.418       35.770        0.083      343.284       19.285      861.641
06/08/2013  05:12:00      -78.288     -148.888        7.875       73.945       84.052       41.802     5467.926     7064.702     1747.408        2.132        0.714      168.216       41.880        0.062      343.276       19.271      861.668
06/08/2013  05:13:00     -113.357     -161.151        5.558       62.069      110.184       47.270     3852.600    12140.612     2234.427        2.854        0.911      197.026       41.308        0.044      343.264       19.249      861.707
06/08/2013  05:14:00      -42.702     -124.342       11.071       60.858       87.370       47.796     3703.723     7633.526     2284.437        1.551        0.681      131.471       41.116        0.098      343.273       19.268      861.724
06/08/2013  05:15:00      -90.033      -88.723       -2.585       73.202       75.028       38.914     5358.556     5629.191     1514.282        1.424        0.625      126.403       35.008        0.077      343.286       19.290      861.752
06/08/2013  05:16:00       -7.067      -97.109        2.300       45.410       44.084       33.670     2062.035     1943.362     1133.639        0.731        0.257       97.366       20.384        0.044      343.309       19.330      861.784
06/08/2013  05:17:00      -93.502      -62.736        5.540       63.643       41.120       25.827     4050.470     1690.818      667.015        0.956        0.320      112.598       24.564        0.048      343.236       19.203      861.803
06/08/2013  05:18:00      -61.207     -114.477        8.961       56.577       56.029       31.268     3200.934     3139.235      977.667        1.212        0.366      129.812       27.570        0.045      343.263       19.249      861.826
06/08/2013  05:19:00     -101.079     -170.666      -12.960       84.266       86.302       47.202     7100.705     7447.991     2228.060        2.814        0.839      198.353       45.463        0.053      343.280       19.277      861.820
06/08/2013  05:20:00      -13.798     -112.078       15.420       49.723       51.670       50.894     2472.347     2669.752     2590.232        1.036        0.387      112.924       32.502        0.083      343.350       19.399      861.812
06/08/2013  05:21:00     -108.709      -65.509        5.237       84.374       47.401       39.607     7119.021     2246.869     1568.751        1.353        0.547      126.922       22.920        0.033      343.367       19.427      861.815
06/08/2013  05:22:00     -190.441     -127.277      -11.085       79.476       62.423       41.485     6316.389     3896.636     1721.039        3.226        0.597      229.057       42.970        0.035      343.248       19.222      861.821
06/08/2013  05:23:00     -153.713      -45.063        1.499       68.697       63.245       32.972     4719.228     3999.918     1087.163        1.773        0.490      160.183       31.942        0.040      343.242       19.213      861.842
06/08/2013  05:24:00     -169.061      -40.054       -8.866       44.203       40.615       24.733     1953.931     1649.576      611.744        1.724        0.211      173.741       13.230        0.006      343.254       19.233      861.837
06/08/2013  05:25:00     -112.463      -41.940        4.639       48.862       26.005       26.171     2387.528      676.273      684.929        0.909        0.187      120.028       24.204        0.041      343.277       19.275      861.835
06/08/2013  05:26:00      -61.939      -56.019        6.229       48.543       34.215       22.801     2356.438     1170.683      519.890        0.553        0.202       83.513       20.814        0.062      343.253       19.235      861.837
06/08/2013  05:27:00     -123.696      -54.598      -12.501       28.126       29.918       20.559      791.098      895.068      422.660        1.027        0.105      135.209       12.536        0.009      343.312       19.334      861.840
06/08/2013  05:28:00      -68.727      -11.445       -3.674       29.194       25.879       20.163      852.270      669.745      406.540        0.340        0.096       69.674       16.547        0.056      343.251       19.231      861.848
06/08/2013  05:29:00      -89.806       -1.994        7.260       57.790       32.451       25.782     3339.733     1053.077      664.715        0.659        0.253       89.829       27.386        0.093      343.152       19.063      861.878
06/08/2013  05:30:00      -35.134      -34.374        2.015       35.322       21.079       14.738     1247.670      444.333      217.207        0.216        0.095       49.152        9.056        0.034      343.113       18.996      861.887
06/08/2013  05:31:00      -34.540       -6.761       -0.015       19.264       18.696       15.369      371.083      349.540      236.212        0.110        0.048       35.195       10.661        0.092      343.165       19.085      861.913
06/08/2013  05:32:00      -24.327      -10.676        4.933       14.976       13.046        7.229      224.280      170.186       52.253        0.059        0.022       26.567        6.824        0.066      343.133       19.028      861.928
06/08/2013  05:33:00      -14.548       -1.398        0.438       10.605        4.758        8.146      112.456       22.636       66.364        0.021        0.010       14.615        3.943        0.073      343.141       19.041      861.935
06/08/2013  05:34:00      -51.759      -14.070       -3.706       11.858       16.284       11.128      140.617      265.169      123.836        0.171        0.026       53.637        7.615        0.020      343.226       19.188      861.952
06/08/2013  05:35:00      -61.638      -28.009       -2.444       26.344       21.025       12.804      694.002      442.033      163.943        0.294        0.065       67.703        7.238        0.011      343.183       19.115      861.962
06/08/2013  05:36:00       -5.641      -30.357       -0.506       15.454       15.815       14.638      238.815      250.115      214.264        0.083        0.035       30.876        7.525        0.059      343.218       19.175      861.957
06/08/2013  05:37:00      -26.758      -22.712        1.398       16.581       19.106       15.576      274.936      365.057      242.613        0.106        0.044       35.098        8.066        0.053      343.219       19.177      861.954
06/08/2013  05:38:00      -72.156       -2.711       -4.326       22.762       12.543       11.080      518.123      157.333      122.758        0.302        0.040       72.207       10.595        0.022      343.177       19.107      861.987
06/08/2013  05:39:00      -68.619      -23.939       -4.343       12.825       16.215       11.511      164.482      262.921      132.492        0.293        0.028       72.675        7.683        0.011      343.121       19.010      861.989
06/08/2013  05:40:00      -59.383      -15.599        0.555       30.899       19.693       11.829      954.733      387.832      139.915        0.263        0.074       61.398       13.323        0.047      343.084       18.949      861.982
06/08/2013  05:41:00     -114.893      -16.854       -5.129       26.188       21.893       12.435      685.808      479.319      154.621        0.742        0.066      116.123       12.656        0.012      343.016       18.831      861.990
06/08/2013  05:42:00     -118.131      -40.955       -4.079       35.070       29.305       18.672     1229.898      858.801      348.647        0.904        0.122      125.029       17.348        0.019      343.009       18.818      861.995
06/08/2013  05:43:00      -67.830      -30.399        5.347       45.461       22.521       15.269     2066.659      507.202      233.132        0.418        0.140       74.330       19.984        0.072      342.982       18.772      861.990
06/08/2013  05:44:00     -109.492       15.914      -12.767       21.630       22.283       12.607      467.836      496.514      158.928        0.676        0.056      110.643        7.156        0.004      342.999       18.803      862.007
06/08/2013  05:45:00     -157.005      -11.513      -15.162       30.152       42.413       18.383      909.127     1798.904      337.941        1.403        0.152      157.427       11.535        0.005      343.113       18.996      862.016
06/08/2013  05:46:00      -65.816      -43.017        2.789       50.024       32.565       19.593     2502.424     1060.452      383.876        0.507        0.197       78.627       18.106        0.053      343.223       19.183      862.008
06/08/2013  05:47:00      -82.748      -53.571        2.368       52.145       35.501       20.591     2719.086     1260.307      423.969        0.706        0.220       98.575       26.332        0.071      343.213       19.167      862.000
06/08/2013  05:48:00      -69.505      -46.039        2.345       49.524       24.361       24.916     2452.626      593.440      620.794        0.531        0.183       83.370       24.818        0.089      343.162       19.080      862.010
06/08/2013  05:49:00      -96.729      -56.482       -6.015       55.110       26.671       25.412     3037.105      711.321      645.790        0.849        0.220      112.012       27.721        0.061      343.190       19.127      862.015
06/08/2013  05:50:00     -141.886      -70.059      -13.142       28.660       30.635       21.468      821.377      938.508      460.889        1.372        0.111      158.240       19.448        0.015      343.153       19.064      862.017
06/08/2013  05:51:00      -92.185      -60.834       -5.246       50.866       27.076       21.591     2587.355      733.086      466.174        0.801        0.189      110.448       16.880        0.023      343.158       19.073      862.033
06/08/2013  05:52:00      -62.534      -41.742        2.390       40.658       24.486       19.305     1653.060      599.546      372.700        0.414        0.131       75.185       20.668        0.076      343.205       19.154      862.044
06/08/2013  05:53:00      -72.914      -69.691        5.164       39.153       33.607       19.660     1532.945     1129.455      386.530        0.662        0.152      100.863       16.147        0.026      343.255       19.236      862.054
06/08/2013  05:54:00      -53.392      -48.610       14.220       74.952       49.023       26.845     5617.866     2403.263      720.662        0.708        0.437       72.206       39.204        0.295      343.222       19.182      862.074
06/08/2013  05:55:00       -3.238      -49.239       13.931       41.018       37.434       28.194     1682.458     1401.274      794.909        0.325        0.194       49.345       33.713        0.467      343.310       19.330      862.094
06/08/2013  05:56:00      -86.551      -54.515       -6.148       24.651       28.995       17.167      607.666      840.737      294.704        0.612        0.087      102.288       11.425        0.012      343.320       19.349      862.124
06/08/2013  05:57:00       -8.573      -67.800       -4.358       53.142       36.976       22.982     2824.055     1367.249      528.174        0.470        0.236       68.340       19.074        0.078      343.287       19.294      862.127
06/08/2013  05:58:00      -18.085      -25.879       16.616       32.845       37.087       23.592     1078.812     1375.437      556.580        0.214        0.151       31.572       16.848        0.285      343.271       19.265      862.134
06/08/2013  05:59:00      -52.527      -34.683        4.253       38.430       28.187       19.661     1476.899      794.513      386.553        0.332        0.133       62.944       21.859        0.121      343.187       19.122      862.134
06/08/2013  06:00:00      -61.527      -70.467       -8.172       39.292       30.915       18.340     1543.852      955.766      336.349        0.583        0.142       93.548       15.624        0.028      343.364       19.423      862.133
06/08/2013  06:01:00        2.758      -26.304        9.645       24.092       23.885       17.154      580.415      570.491      294.255        0.112        0.072       26.448       12.533        0.225      343.444       19.560      862.157
06/08/2013  06:02:00      -42.672      -46.830        7.550       66.609       30.947       18.832     4436.745      957.735      354.630        0.491        0.287       63.356       26.429        0.174      343.516       19.683      862.168
06/08/2013  06:03:00      -99.085      -44.821        3.448       59.004       43.151       26.549     3481.425     1862.026      704.865        0.894        0.302      108.751       18.391        0.029      343.268       19.259      862.182
06/08/2013  06:04:00      -93.503      -46.487       -0.274       60.638       48.099       30.623     3676.965     2313.472      937.781        0.891        0.346      104.421       20.062        0.037      343.161       19.078      862.196
06/08/2013  06:05:00      -66.133      -40.263        7.641       67.751       50.112       31.191     4590.148     2511.189      972.862        0.706        0.404       77.425       31.871        0.169      343.176       19.103      862.208
06/08/2013  06:06:00     -128.231     -104.387       -3.230       70.116       49.927       31.756     4916.298     2492.729     1008.442        1.788        0.421      165.348       32.758        0.039      343.198       19.139      862.212
06/08/2013  06:07:00     -177.406      -94.841       -1.464       73.155       52.986       34.474     5351.651     2807.477     1188.475        2.491        0.467      201.166       34.326        0.029      343.158       19.070      862.205
06/08/2013  06:08:00     -124.995     -104.140       -5.986       55.064       40.234       32.797     3032.055     1618.763     1075.667        1.611        0.286      162.692       32.825        0.041      343.231       19.196      862.215
06/08/2013  06:09:00      -61.973      -53.115        0.284       44.943       33.234       18.385     2019.865     1104.523      338.027        0.506        0.173       81.620       18.685        0.052      343.397       19.478      862.223
06/08/2013  06:10:00      -88.940      -64.901       -5.366       40.481       33.579       16.082     1638.739     1127.541      258.625        0.759        0.151      110.102       20.809        0.036      343.437       19.548      862.239
06/08/2013  06:11:00      -65.878      -24.399        7.240       38.790       41.853       22.637     1504.690     1751.637      512.411        0.438        0.188       70.251       22.774        0.105      343.369       19.430      862.241
06/08/2013  06:12:00      -56.392      -43.059       -1.785       26.893       21.262       14.414      723.231      452.056      207.769        0.321        0.069       70.952       13.175        0.034      343.327       19.360      862.237
06/08/2013  06:13:00      -50.305      -32.412       -3.686       13.819       26.660       14.919      190.970      710.776      222.588        0.236        0.056       59.843       10.537        0.031      343.308       19.330      862.241
06/08/2013  06:14:00      -50.892      -27.894        2.997       13.520       19.646       10.858      182.798      385.969      117.896        0.203        0.034       58.036        6.459        0.012      343.361       19.417      862.230
06/08/2013  06:15:00      -55.256        1.397       -1.098       26.875       14.697       11.323      722.242      216.011      128.209        0.206        0.053       55.274       13.466        0.059      343.362       19.421      862.244
06/08/2013  06:16:00      -55.400       -4.696       -1.404       18.164       16.216        8.635      329.928      262.950       74.571        0.188        0.033       55.598        6.660        0.014      343.362       19.421      862.257
06/08/2013  06:17:00      -47.893      -10.838        0.906       23.440       18.340       16.271      549.412      336.339      264.760        0.178        0.058       49.104       16.899        0.118      343.491       19.639      862.266
06/08/2013  06:18:00      -26.595      -36.772        9.413       32.490       34.576       17.121     1055.578     1195.502      293.144        0.235        0.127       45.382       22.549        0.247      343.627       19.874      862.281
06/08/2013  06:19:00      -56.561      -88.171       -5.186       19.529       24.264       18.706      381.397      588.752      349.927        0.616        0.066      104.754       14.371        0.019      343.408       19.498      862.270
06/08/2013  06:20:00      -55.520      -90.811       -3.332       26.401       39.793       21.781      697.013     1583.518      474.410        0.705        0.138      106.438       19.583        0.034      343.418       19.515      862.260
06/08/2013  06:21:00      -70.880      -55.698        4.315       54.089       34.566       26.276     2925.609     1194.825      690.443        0.648        0.241       90.146       32.402        0.129      343.386       19.462      862.278
06/08/2013  06:22:00      -73.440      -82.320       -5.640       31.229       27.040       20.935      975.279      731.175      438.258        0.717        0.107      110.317       15.017        0.019      343.344       19.390      862.283
06/08/2013  06:23:00       -9.629      -47.106       14.180       34.542       18.413       22.301     1193.136      339.029      497.326        0.227        0.101       48.080       22.058        0.210      343.489       19.638      862.291
06/08/2013  06:24:00      -33.599      -65.957        5.263       28.194       21.733       17.821      794.909      472.308      317.587        0.355        0.079       74.022       16.004        0.047      343.490       19.639      862.281
06/08/2013  06:25:00      -62.014      -56.612       -0.263       47.411       29.631       21.393     2247.802      877.992      457.680        0.532        0.179       83.969       28.327        0.114      343.564       19.766      862.285
06/08/2013  06:26:00      -71.039      -58.799        1.268       31.972       24.284       21.719     1022.228      589.695      471.724        0.529        0.104       92.216       22.526        0.060      343.472       19.608      862.285
06/08/2013  06:27:00      -81.514      -59.910       -0.633       33.999       27.281       18.898     1155.926      744.228      357.116        0.625        0.113      101.162       20.787        0.042      343.470       19.606      862.289
06/08/2013  06:28:00      -41.601      -54.403        0.092       28.463       26.437       21.821      810.128      698.914      476.175        0.334        0.099       68.486       15.617        0.052      343.464       19.594      862.295
06/08/2013  06:29:00      -42.978      -49.803        5.027       30.593       26.371       18.629      935.913      695.413      347.057        0.317        0.099       65.783       13.737        0.044      343.513       19.679      862.291
06/08/2013  06:30:00      -80.848      -67.082       -5.369       44.956       33.571       26.808     2021.082     1127.027      718.675        0.747        0.193      105.054       23.846        0.052      343.457       19.581      862.309
06/08/2013  06:31:00      -45.831      -17.596       -8.578       37.866       40.130       19.679     1433.871     1610.392      387.270        0.296        0.172       49.093       12.408        0.064      343.450       19.569      862.316
06/08/2013  06:32:00      -42.660      -44.335        9.929       31.169       30.961       23.482      971.501      958.560      551.396        0.318        0.124       61.527       17.749        0.083      343.475       19.613      862.337
06/08/2013  06:33:00      -79.141      -73.467        2.463       47.046       45.633       27.248     2213.365     2082.351      742.427        0.835        0.252      107.985       24.696        0.052      343.410       19.500      862.340
06/08/2013  06:34:00     -112.337      -42.298        3.484       55.421       44.969       34.481     3071.482     2022.250     1188.934        1.035        0.314      120.036       28.566        0.057      343.387       19.461      862.354
06/08/2013  06:35:00     -114.599      -88.074        3.737       73.657       51.152       34.679     5425.353     2616.577     1202.639        1.507        0.462      144.534       37.585        0.068      343.336       19.375      862.354
06/08/2013  06:36:00     -140.520      -63.559       -3.449       50.806       39.101       34.250     2581.238     1528.875     1173.032        1.454        0.264      154.225       29.642        0.037      343.215       19.170      862.362
06/08/2013  06:37:00     -105.283      -46.879       10.962       75.534       48.143       35.201     5705.425     2317.744     1239.125        1.133        0.463      115.248       35.483        0.095      343.323       19.353      862.347
06/08/2013  06:38:00     -119.237      -56.530        6.372       79.040       52.722       41.243     6247.290     2779.635     1700.945        1.409        0.536      131.959       40.852        0.096      343.297       19.308      862.351
06/08/2013  06:39:00      -96.037      -53.369       11.100       82.608       49.275       37.909     6824.026     2427.977     1437.077        1.144        0.534      109.870       26.215        0.057      343.231       19.195      862.345
06/08/2013  06:40:00      -59.741      -33.234       14.009       60.019       48.826       34.066     3602.336     2383.951     1160.461        0.601        0.357       68.363       34.479        0.254      343.269       19.262      862.360
06/08/2013  06:41:00      -73.825      -73.080       11.124       67.525       70.816       34.222     4559.672     5014.959     1171.129        1.083        0.537      103.879       31.367        0.091      343.217       19.172      862.367
06/08/2013  06:42:00      -15.863      -67.662       -4.782       67.098       49.039       36.657     4502.077     2404.844     1343.755        0.655        0.413       69.496       22.198        0.102      343.304       19.321      862.396
06/08/2013  06:43:00      -50.233      -52.902       10.386       66.248       51.750       34.279     4388.742     2678.056     1175.040        0.683        0.412       72.952       23.081        0.100      343.239       19.211      862.421
06/08/2013  06:44:00      -31.640     -102.311       24.116       59.849       61.173       36.865     3581.859     3742.158     1359.044        1.036        0.434      107.092       34.778        0.105      343.281       19.282      862.444
06/08/2013  06:45:00     -106.709     -123.604        4.308       68.426       62.890       35.875     4682.057     3955.212     1287.039        1.830        0.496      163.294       19.782        0.015      343.270       19.262      862.452
06/08/2013  06:46:00      -73.070      -65.187        6.546       68.709       53.533       26.319     4720.991     2865.766      692.672        0.895        0.414       97.921       29.002        0.088      343.471       19.605      862.463
06/08/2013  06:47:00      -96.203      -90.933       -0.734       66.045       49.971       32.501     4361.982     2497.108     1056.287        1.272        0.396      132.378       31.876        0.058      343.300       19.313      862.470
06/08/2013  06:48:00      -61.985      -46.925       24.531       64.924       43.840       29.902     4215.095     1921.964      894.108        0.684        0.352       77.744       32.842        0.178      343.394       19.477      862.482
06/08/2013  06:49:00      -69.760      -71.664        3.742       61.226       47.433       34.987     3748.647     2249.927     1224.070        0.862        0.361      100.011       30.642        0.094      343.348       19.394      862.497
06/08/2013  06:50:00      -40.087      -63.475        4.875       50.874       50.989       36.407     2588.113     2599.911     1325.481        0.609        0.326       75.074       30.368        0.164      343.411       19.506      862.505
06/08/2013  06:51:00      -86.961     -125.267        5.382       39.744       50.619       30.157     1579.602     2562.284      909.469        1.417        0.253      152.492       22.689        0.022      343.412       19.505      862.515
06/08/2013  06:52:00      -59.785      -71.868        0.747       40.211       43.750       24.611     1616.957     1914.102      605.681        0.644        0.207       93.484       17.761        0.036      343.488       19.636      862.511
06/08/2013  06:53:00      -25.826      -23.408       15.299       41.849       26.483       25.279     1751.379      701.338      639.053        0.227        0.155       34.856       22.682        0.423      343.780       20.133      862.511
06/08/2013  06:54:00      -24.343      -55.825        6.633       37.747       37.773       21.108     1424.849     1426.800      445.566        0.352        0.165       60.902       17.628        0.084      343.622       19.863      862.501
06/08/2013  06:55:00      -45.406      -53.767       -0.881       29.766       32.804       21.051      885.992     1076.108      443.147        0.368        0.120       70.375        5.954        0.007      343.636       19.887      862.506
06/08/2013  06:56:00      -38.843      -68.490       -4.401       38.268       34.146       20.485     1464.429     1165.982      419.620        0.463        0.153       78.738       16.448        0.044      343.715       20.021      862.507
06/08/2013  06:57:00      -41.894      -57.621       -1.717       52.526       38.607       24.359     2758.964     1490.514      593.377        0.496        0.242       71.241       19.572        0.075      343.712       20.015      862.509
06/08/2013  06:58:00      -42.026      -50.156       -1.298       29.145       46.219       18.225      849.442     2136.225      332.153        0.380        0.166       65.435       14.738        0.051      343.697       19.991      862.504
06/08/2013  06:59:00      -69.323      -67.232       -0.760       45.273       32.842       23.820     2049.616     1078.609      567.402        0.651        0.185       96.570       24.738        0.066      343.660       19.929      862.504
06/08/2013  07:00:00      -86.413      -54.285        6.599       44.316       31.661       23.288     1963.951     1002.424      542.317        0.698        0.175      102.050       22.126        0.047      343.675       19.952      862.485
06/08/2013  07:01:00      -89.879      -72.592        2.981       37.850       28.912       19.659     1432.594      835.921      386.466        0.801        0.133      115.533       19.620        0.029      343.665       19.937      862.483
06/08/2013  07:02:00      -72.975      -81.449       -1.846       20.943       21.997       14.448      438.592      483.851      208.737        0.655        0.057      109.358       10.616        0.009      343.718       20.028      862.476
06/08/2013  07:03:00      -93.512     -115.478       -6.754       27.201       29.536       20.484      739.868      872.368      419.614        1.208        0.102      148.592       15.703        0.011      343.747       20.076      862.479
06/08/2013  07:04:00      -56.900     -103.287       -1.224       29.947       37.697       17.247      896.809     1421.054      297.452        0.826        0.131      117.923       12.373        0.011      343.741       20.066      862.480
06/08/2013  07:05:00      -71.285      -94.892       -5.684       27.271       26.477       19.749      743.729      701.048      390.006        0.798        0.092      118.685       18.116        0.023      343.723       20.034      862.490
06/08/2013  07:06:00      -70.996      -42.718       -5.629       34.783       28.051       19.657     1209.830      786.860      386.407        0.464        0.119       82.857       22.211        0.072      343.806       20.176      862.489
06/08/2013  07:07:00      -43.100      -53.562        6.339       28.080       32.202       20.731      788.500     1036.960      429.765        0.351        0.113       68.750       17.880        0.068      343.852       20.255      862.506
06/08/2013  07:08:00      -13.531      -82.598        3.935       30.946       34.600       21.978      957.661     1197.137      483.045        0.483        0.132       83.699       15.027        0.032      343.828       20.214      862.508
06/08/2013  07:09:00      -87.986      -84.827       -2.519       43.783       38.982       23.284     1916.993     1519.592      542.143        0.946        0.199      122.218       19.708        0.026      343.866       20.280      862.508
06/08/2013  07:10:00      -74.583      -67.311        2.297       44.169       34.618       23.648     1950.900     1198.427      559.222        0.690        0.185      100.465       18.572        0.034      343.922       20.374      862.508
06/08/2013  07:11:00     -122.423      -88.968       -1.625       37.649       39.390       23.483     1417.452     1551.534      551.469        1.321        0.176      151.337       19.925        0.017      343.873       20.289      862.504
06/08/2013  07:12:00      -75.477      -87.897       -2.572       37.115       43.817       22.476     1377.511     1919.910      505.186        0.862        0.190      115.857       22.442        0.038      343.999       20.507      862.508
06/08/2013  07:13:00      -94.814      -63.997       -0.180       49.347       35.834       22.788     2435.137     1284.104      519.313        0.866        0.212      114.391       22.928        0.040      344.087       20.657      862.500
06/08/2013  07:14:00      -59.001      -81.984       11.720       36.688       39.848       24.205     1346.011     1587.853      585.876        0.693        0.176      101.007       21.208        0.044      344.069       20.627      862.499
06/08/2013  07:15:00      -86.754      -91.772       -6.022       49.324       35.219       22.971     2432.893     1240.390      527.677        1.009        0.210      126.287       22.649        0.032      344.055       20.603      862.498
06/08/2013  07:16:00      -92.526      -80.809        1.266       41.468       36.990       26.767     1719.600     1368.272      716.450        0.945        0.190      122.846       29.933        0.059      344.124       20.721      862.490
06/08/2013  07:17:00      -65.998      -84.749       -0.830       17.114       22.402       13.398      292.886      501.845      179.499        0.626        0.049      107.416        9.654        0.008      344.076       20.637      862.489
06/08/2013  07:18:00      -60.854      -37.003        4.762       24.680       24.005       14.461      609.100      576.230      209.109        0.324        0.070       71.222       11.923        0.028      344.232       20.905      862.482
06/08/2013  07:19:00      -60.204      -51.305       -0.808       17.984       34.527       13.949      323.414     1192.140      194.575        0.398        0.086       79.100        9.036        0.013      344.226       20.894      862.484
06/08/2013  07:20:00      -55.795      -31.344       -1.509       15.319       25.261        9.938      234.661      638.143       98.773        0.253        0.049       63.997        8.847        0.019      344.282       20.989      862.479
06/08/2013  07:21:00     -112.887      -20.852       -0.015       36.407       28.192       13.630     1325.457      794.762      185.769        0.774        0.115      114.797        8.115        0.005      344.263       20.958      862.477
06/08/2013  07:22:00      -76.336      -13.464        8.693       42.041       50.130       19.127     1767.477     2513.012      365.859        0.536        0.232       77.514       20.148        0.068      344.343       21.095      862.483
06/08/2013  07:23:00      -23.648      -29.421       14.167       41.797       33.436       30.811     1747.010     1117.935      949.334        0.272        0.191       37.747       24.422        0.419      344.666       21.647      862.488
06/08/2013  07:24:00      -63.111      -68.268        7.376       53.845       39.334       29.881     2899.314     1547.182      892.883        0.702        0.267       92.971       34.035        0.134      344.520       21.398      862.486
06/08/2013  07:25:00      -64.651      -43.914        0.897       36.609       22.360       20.742     1340.223      499.947      430.223        0.419        0.114       78.155       19.779        0.064      344.420       21.227      862.487
06/08/2013  07:26:00      -60.355      -60.103       -4.410       30.571       29.498       19.869      934.557      870.119      394.771        0.474        0.110       85.177       19.035        0.050      344.513       21.384      862.483
06/08/2013  07:27:00      -64.295      -74.942       -0.763       26.849       24.193       15.564      720.877      585.279      242.225        0.565        0.077       98.743       14.011        0.020      344.554       21.455      862.486
06/08/2013  07:28:00      -28.940      -57.751        9.820       48.530       24.934       21.003     2355.174      621.690      441.143        0.384        0.171       64.597       23.976        0.138      344.662       21.639      862.481
06/08/2013  07:29:00      -76.541      -66.150       -9.409       21.608       28.902       18.242      466.923      835.309      332.763        0.598        0.082      101.165       14.502        0.021      344.570       21.481      862.475
06/08/2013  07:30:00      -21.480      -94.456        3.645       24.590       34.250       16.165      604.665     1173.076      261.299        0.572        0.102       96.867       19.287        0.040      344.585       21.508      862.478
06/08/2013  07:31:00       -6.833      -72.918       -2.116       27.492       27.970       17.672      755.804      782.335      312.310        0.361        0.093       73.237       16.145        0.049      344.635       21.594      862.484
06/08/2013  07:32:00      -50.482      -65.086       -5.441       27.477       32.419       17.963      755.010     1051.004      322.684        0.447        0.106       82.369        7.540        0.008      344.655       21.629      862.490
06/08/2013  07:33:00      -36.524      -58.325        0.676       29.175       35.985       23.587      851.167     1294.890      556.362        0.372        0.135       68.818       21.804        0.100      344.782       21.845      862.498
06/08/2013  07:34:00      -59.607      -51.403       -2.279       18.543       32.723       14.491      343.853     1070.776      210.000        0.391        0.081       78.710       13.738        0.030      344.674       21.661      862.499
06/08/2013  07:35:00      -41.893      -29.835        7.980       28.414       21.360       15.177      807.348      456.243      230.351        0.210        0.075       51.431       14.348        0.078      344.964       22.158      862.507
06/08/2013  07:36:00      -90.748      -68.938       -5.538       27.466       36.001       21.554      754.365     1296.039      464.594        0.777        0.126      113.963       17.027        0.022      344.646       21.613      862.508
06/08/2013  07:37:00      -43.156      -48.405        4.857       38.778       29.478       17.864     1503.768      868.974      319.134        0.346        0.135       64.849       19.375        0.089      344.889       22.028      862.522
06/08/2013  07:38:00      -59.308      -57.731        1.247       32.168       32.429       22.175     1034.801     1051.630      491.735        0.471        0.129       82.766       22.597        0.075      344.839       21.943      862.537
06/08/2013  07:39:00      -49.389      -79.589        2.396       40.320       45.632       19.180     1625.702     2082.313      367.876        0.643        0.204       93.668       24.511        0.068      344.842       21.949      862.556
06/08/2013  07:40:00      -92.629     -108.231      -13.816       32.577       34.505       20.947     1061.286     1190.589      438.779        1.159        0.135      142.458       19.029        0.018      344.786       21.850      862.557
06/08/2013  07:41:00      -48.194      -66.468       13.065       42.470       48.438       22.347     1803.701     2346.265      499.388        0.578        0.232       82.101       25.299        0.095      345.073       22.343      862.551
06/08/2013  07:42:00      -74.769      -54.730        6.995       58.866       34.402       22.178     3465.251     1183.473      491.874        0.689        0.257       92.660       23.628        0.065      344.988       22.200      862.535
06/08/2013  07:43:00      -74.984      -67.274        6.150       51.054       32.094       23.176     2606.537     1030.040      537.123        0.718        0.209      100.740       22.235        0.049      344.895       22.037      862.523
06/08/2013  07:44:00      -74.857      -98.548       -1.217       35.325       35.183       24.900     1247.838     1237.816      620.034        0.921        0.155      123.755       22.316        0.033      344.876       22.006      862.523
06/08/2013  07:45:00      -44.236     -111.340       -8.028       47.543       34.177       17.977     2260.332     1168.041      323.186        0.908        0.188      119.806       13.952        0.014      344.909       22.062      862.517
06/08/2013  07:46:00      -60.546     -117.033       -0.437       29.525       47.909       22.748      871.744     2295.248      517.451        1.052        0.184      131.768       18.431        0.020      344.942       22.118      862.506
06/08/2013  07:47:00      -47.333     -151.941       -4.822       26.376       31.459       14.025      695.712      989.650      196.705        1.362        0.094      159.143       10.083        0.004      344.898       22.044      862.501
06/08/2013  07:48:00      -34.051      -73.109       -0.006       23.452       41.599       21.095      549.981     1730.485      444.995        0.461        0.136       80.650        8.500        0.011      345.032       22.273      862.493
06/08/2013  07:49:00      -33.809        1.021       -8.193       27.995       27.538       23.359      783.705      758.355      545.657        0.165        0.104       33.825       12.174        0.130      345.329       22.782      862.483
06/08/2013  07:50:00       -6.537        2.287        9.556       50.313       23.555       33.501     2531.364      554.815     1122.324        0.217        0.210        6.925       19.028        7.549      345.439       22.971      862.483
06/08/2013  07:51:00      -39.593       -2.055       -1.994       32.858       16.012       22.745     1079.632      256.387      517.321        0.171        0.093       39.646       18.500        0.218      345.248       22.645      862.487
06/08/2013  07:52:00        2.110       -3.671       10.733       36.596       30.119       33.753     1339.263      907.161     1139.254        0.176        0.169        4.234       24.105       32.405      345.636       23.311      862.497
06/08/2013  07:53:00      -41.691       -3.302       -1.655       39.318       21.064       17.734     1545.892      443.707      314.478        0.203        0.115       41.821        5.491        0.017      345.166       22.503      862.500
06/08/2013  07:54:00      -22.092        4.856       -1.840       22.902       24.145       22.063      524.517      582.961      486.786        0.105        0.080       22.620       14.713        0.423      345.513       23.097      862.506
06/08/2013  07:55:00       -5.299        6.626       28.591       18.150       23.887       18.446      329.405      570.595      340.269        0.106        0.062        8.485       16.369        3.722      345.964       23.871      862.524
06/08/2013  07:56:00        9.795       17.086       42.985       36.328       43.951       27.576     1319.725     1931.685      760.448        0.312        0.201       19.695       12.456        0.400      345.332       22.788      862.544
06/08/2013  07:57:00      -11.642       31.722       47.467       25.637       34.700       26.570      657.277     1204.117      705.984        0.298        0.128       33.791       22.951        0.461      345.485       23.050      862.549
06/08/2013  07:58:00      -63.527      -10.742       10.101       37.635       25.611       27.880     1416.410      655.937      777.272        0.355        0.142       64.429       26.952        0.175      345.351       22.819      862.556
06/08/2013  07:59:00      -25.144       16.679       25.306       36.360       24.910       26.730     1322.066      620.492      714.485        0.210        0.133       30.173       17.503        0.336      345.457       23.002      862.552
06/08/2013  08:00:00       29.210       -6.438       16.053       35.484       35.027       27.462     1259.145     1226.867      754.188        0.220        0.162       29.911       21.377        0.511      345.517       23.106      862.556
06/08/2013  08:01:00       24.110       -7.629       19.457       29.599       24.253       27.461      876.083      588.225      754.128        0.162        0.111       25.288       22.022        0.758      345.547       23.157      862.557
06/08/2013  08:02:00       17.105       12.890       41.031       30.730       29.591       28.757      944.332      875.599      826.952        0.239        0.132       21.418       24.656        1.325      345.469       23.022      862.563
06/08/2013  08:03:00       45.374       -3.065       19.363       30.958       27.459       28.963      958.420      754.017      838.833        0.250        0.128       45.477       16.184        0.127      345.259       22.663      862.555
06/08/2013  08:04:00        5.574      -22.728       24.835       19.549       24.099       20.419      382.157      580.750      416.934        0.127        0.069       23.401       10.135        0.188      345.700       23.417      862.541
06/08/2013  08:05:00       14.782       11.669       22.421       26.124       27.729       24.535      682.457      768.881      601.960        0.145        0.103       18.833       14.701        0.609      345.795       23.582      862.537
06/08/2013  08:06:00       19.527       29.639       60.773       36.426       41.080       26.534     1326.847     1687.557      704.077        0.434        0.186       35.493       23.661        0.444      346.075       24.062      862.532
06/08/2013  08:07:00        5.268       27.204       60.330       28.717       48.104       30.776      824.638     2314.033      947.172        0.425        0.204       27.710       34.564        1.556      346.191       24.261      862.528
06/08/2013  08:08:00       60.600       16.210       46.861       35.521       49.949       37.065     1261.737     2494.931     1373.823        0.563        0.257       62.731       30.006        0.229      345.939       23.827      862.539
06/08/2013  08:09:00       31.709        8.252       24.738       36.702       31.851       26.013     1347.059     1014.476      676.685        0.236        0.152       32.765       18.161        0.307      346.123       24.145      862.534
06/08/2013  08:10:00       34.700       -1.465       23.315       48.025       47.272       30.708     2306.424     2234.631      942.975        0.362        0.274       34.731       34.308        0.976      346.155       24.200      862.525
06/08/2013  08:11:00       16.241       50.899       68.807       27.111       38.795       26.080      734.990     1505.075      680.157        0.525        0.146       53.427       25.353        0.225      346.124       24.145      862.521
06/08/2013  08:12:00       26.731       36.939       47.356       25.294       25.996       16.047      639.770      675.781      257.509        0.295        0.079       45.597       10.707        0.055      345.861       23.694      862.519
06/08/2013  08:13:00       21.756       56.395       69.647       33.415       43.188       30.674     1116.537     1865.182      940.898        0.621        0.196       60.446       28.792        0.227      346.050       24.018      862.521
06/08/2013  08:14:00       25.338       49.608       41.707       32.917       32.384       28.722     1083.553     1048.725      824.961        0.390        0.148       55.704       12.456        0.050      346.197       24.271      862.513
06/08/2013  08:15:00       16.828       18.564       34.175       31.259       22.555       20.697      977.129      508.743      428.354        0.185        0.096       25.056        5.207        0.043      346.664       25.075      862.509
06/08/2013  08:16:00       -3.889       23.248       27.102       36.564       23.505       22.909     1336.957      552.470      524.816        0.185        0.121       23.571       14.883        0.399      346.548       24.875      862.505
06/08/2013  08:17:00        4.629      -37.537       27.402       18.110       34.210       19.094      327.960     1170.323      364.563        0.202        0.093       37.821       17.244        0.208      346.377       24.581      862.503
06/08/2013  08:18:00       17.785        2.293       20.532       29.368       41.370       29.475      862.499     1711.460      868.799        0.209        0.172       17.932       25.403        2.007      346.568       24.909      862.513
06/08/2013  08:19:00       19.333        7.395       21.077       25.463       32.873       28.665      648.385     1080.658      821.698        0.171        0.128       20.699       18.715        0.817      346.752       25.226      862.516
06/08/2013  08:20:00       14.545      -23.409       28.931       24.407       37.251       30.777      595.698     1387.644      947.222        0.226        0.147       27.559       21.474        0.607      346.587       24.942      862.520
06/08/2013  08:21:00       -6.212        0.676       40.197       19.542       30.058       21.063      381.904      903.463      443.637        0.169        0.086        6.249       15.633        6.259      347.007       25.666      862.520
06/08/2013  08:22:00        5.794      -14.043       17.822       22.750       29.749       16.830      517.570      885.003      283.238        0.112        0.084       15.192       17.507        1.328      346.411       24.640      862.526
06/08/2013  08:23:00       -2.519      -14.071       28.526       24.931       33.114       31.623      621.550     1096.508      999.993        0.187        0.136       14.295       21.462        2.254      346.658       25.065      862.530
06/08/2013  08:24:00       37.001      -14.021       30.006       42.649       52.604       42.236     1818.967     2767.177     1783.861        0.442        0.319       39.569       34.550        0.762      346.353       24.540      862.527
06/08/2013  08:25:00       40.882      -41.533        4.382       39.107       47.605       29.012     1529.390     2266.273      841.669        0.403        0.232       58.278        1.403        0.001      346.081       24.074      862.538
06/08/2013  08:26:00       41.717      -15.564       26.549       48.518       37.815       39.739     2354.034     1429.958     1579.184        0.402        0.268       44.526       38.610        0.752      346.512       24.813      862.560
06/08/2013  08:27:00       84.472       68.113       41.331       57.569       42.823       43.192     3314.183     1833.821     1865.506        1.025        0.351      108.513       35.886        0.109      346.171       24.226      862.565
06/08/2013  08:28:00      101.910       69.450       22.430       45.206       44.515       31.533     2043.614     1981.595      994.330        1.036        0.251      123.325       21.131        0.029      346.218       24.307      862.571
06/08/2013  08:29:00      107.423       60.866       10.148       62.981       45.295       35.641     3966.582     2051.679     1270.286        1.132        0.364      123.468       16.057        0.017      346.203       24.282      862.579
06/08/2013  08:30:00      140.689       78.560       16.548       41.522       31.670       33.377     1724.071     1003.014     1114.013        1.504        0.192      161.137       20.095        0.016      346.023       23.973      862.571
06/08/2013  08:31:00      137.530       89.040       20.080       47.882       36.797       36.394     2292.639     1354.014     1324.523        1.611        0.249      163.837       19.614        0.014      346.087       24.081      862.577
06/08/2013  08:32:00      113.913       65.399       20.006       48.615       44.069       40.062     2363.430     1942.039     1604.959        1.178        0.296      131.351       29.349        0.050      346.220       24.312      862.577
06/08/2013  08:33:00       80.517       39.576        6.226       32.440       29.054       28.699     1052.330      844.158      823.606        0.540        0.136       89.717       16.935        0.036      346.208       24.289      862.580
06/08/2013  08:34:00       62.424       44.385       17.307       28.579       22.636       25.680      816.779      512.411      659.452        0.408        0.099       76.595       13.144        0.029      346.516       24.820      862.582
06/08/2013  08:35:00       56.572       42.259       15.486       31.110       24.927       34.823      967.810      621.340     1212.651        0.401        0.140       70.613       19.043        0.073      346.668       25.082      862.586
06/08/2013  08:36:00       90.262       64.768       21.534       33.783       31.063       37.875     1141.260      964.933     1434.527        0.817        0.177      111.095       12.427        0.013      346.454       24.713      862.583
06/08/2013  08:37:00       84.452       73.763       26.897       54.649       46.677       46.955     2986.501     2178.738     2204.783        1.033        0.369      112.130       34.708        0.096      346.474       24.748      862.588
06/08/2013  08:38:00      106.107       88.311       32.907       51.908       50.574       50.663     2694.477     2557.715     2566.723        1.398        0.391      138.049       36.683        0.071      346.455       24.715      862.587
06/08/2013  08:39:00       93.990       74.023       59.607       53.250       44.702       39.332     2835.588     1998.292     1546.990        1.212        0.319      119.639       15.497        0.017      346.376       24.578      862.583
06/08/2013  08:40:00      162.555       99.246       11.027       48.197       29.719       40.629     2322.933      883.217     1650.695        2.063        0.243      190.457       24.769        0.017      346.186       24.253      862.592
06/08/2013  08:41:00      161.404      102.753        9.999       55.993       42.283       40.644     3135.258     1787.882     1651.895        2.164        0.329      191.336       30.048        0.025      346.390       24.601      862.592
06/08/2013  08:42:00       57.359       53.142       50.465       61.806       55.358       31.092     3820.014     3064.489      966.699        0.825        0.393       78.193       23.375        0.089      346.932       25.536      862.595
06/08/2013  08:43:00       19.772       -2.173       36.246       39.206       44.450       46.411     1537.108     1975.814     2153.944        0.369        0.283       19.891       38.206        3.689      347.049       25.737      862.599
06/08/2013  08:44:00       52.290       55.733       45.839       76.444       29.006       24.627     5843.752      841.371      606.490        0.762        0.365       76.423       31.200        0.167      346.635       25.024      862.604
06/08/2013  08:45:00       76.862       36.034       24.423       50.435       39.619       38.678     2543.651     1569.653     1495.977        0.670        0.280       84.890       28.946        0.116      346.640       25.034      862.602
06/08/2013  08:46:00       34.235       42.202       53.314       33.844       42.948       38.184     1145.397     1844.491     1458.024        0.512        0.222       54.342       33.899        0.389      346.764       25.247      862.599
06/08/2013  08:47:00       35.181       16.310       27.000       34.418       51.494       33.050     1184.608     2651.649     1092.301        0.358        0.246       38.778       32.394        0.698      346.407       24.633      862.611
06/08/2013  08:48:00       98.778      -42.039       10.497       52.587       51.688       35.290     2765.396     2671.623     1245.383        0.916        0.334      107.351       28.590        0.071      346.209       24.292      862.615
06/08/2013  08:49:00       31.089      -54.907        2.023       44.787       41.009       31.363     2005.856     1681.740      983.646        0.433        0.234       63.097       31.983        0.257      346.222       24.314      862.618
06/08/2013  08:50:00       26.136       -1.376       46.408       34.822       41.763       22.396     1212.560     1744.147      501.575        0.315        0.173       26.172       16.040        0.376      346.977       25.613      862.606
06/08/2013  08:51:00       40.969      -23.642       30.212       45.152       50.946       30.792     2038.680     2595.534      948.169        0.437        0.279       47.301       21.080        0.199      346.846       25.386      862.592
06/08/2013  08:52:00       30.488      -11.915       34.520       35.853       63.131       34.366     1285.409     3985.464     1180.988        0.436        0.323       32.734       15.856        0.235      346.980       25.620      862.583
06/08/2013  08:53:00       58.402       60.024       57.473       45.413       33.892       32.375     2062.362     1148.659     1048.148        0.729        0.213       83.747       11.478        0.019      346.916       25.507      862.583
06/08/2013  08:54:00       32.182       32.466       69.906       42.977       33.048       32.736     1846.983     1092.188     1071.657        0.549        0.201       45.713       18.199        0.158      347.019       25.685      862.586
06/08/2013  08:55:00       55.742       52.785       45.482       45.681       61.042       39.160     2086.744     3726.082     1533.517        0.765        0.367       76.769       37.702        0.241      346.800       25.309      862.591
06/08/2013  08:56:00      172.577      123.100       11.673       46.547       36.189       38.490     2166.609     1309.643     1481.499        2.501        0.248      211.982       24.017        0.013      346.477       24.750      862.589
06/08/2013  08:57:00      126.221       93.829       31.808       35.039       35.560       35.606     1227.757     1264.508     1267.817        1.475        0.188      157.276       27.000        0.029      346.604       24.973      862.592
06/08/2013  08:58:00      127.308       79.081       60.577       63.399       41.675       49.209     4019.392     1736.787     2421.481        1.715        0.409      149.870       40.642        0.074      346.674       25.091      862.591
06/08/2013  08:59:00      120.467       75.544       38.415       67.097       46.282       44.187     4502.014     2142.009     1952.504        1.514        0.430      142.194       30.144        0.045      346.701       25.137      862.593
06/08/2013  09:00:00       79.278       70.871       46.331       80.358       40.161       36.140     6457.465     1612.923     1306.102        1.141        0.469      106.337       27.880        0.069      346.933       25.538      862.602
06/08/2013  09:01:00       12.056        5.963       56.541       41.879       64.012       43.211     1753.819     4097.564     1867.194        0.555        0.386       13.450       43.218       10.325      346.951       25.569      862.595
06/08/2013  09:02:00       17.605      -20.461       41.491       45.397       62.002       35.782     2060.888     3844.307     1280.323        0.482        0.359       26.993       24.289        0.810      347.173       25.951      862.598
06/08/2013  09:03:00       91.312       44.161       12.410       85.019       81.033       35.280     7228.251     6566.281     1244.657        1.274        0.752      101.431       22.030        0.047      346.779       25.272      862.598
06/08/2013  09:04:00      158.918       82.723       23.812       45.206       39.570       36.846     2043.538     1565.779     1357.598        1.881        0.248      179.159       16.261        0.008      346.737       25.199      862.616
06/08/2013  09:05:00       92.570       83.354       23.764       34.399       35.595       40.530     1183.291     1267.016     1642.648        1.009        0.205      124.568        1.784        0.000      346.752       25.225      862.616
06/08/2013  09:06:00       87.826       37.151        1.799       43.179       36.172       33.059     1864.400     1308.380     1092.909        0.668        0.213       95.361       15.479        0.026      346.930       25.532      862.609
06/08/2013  09:07:00        6.579      -31.030       31.936       44.403       76.137       35.351     1971.666     5796.851     1249.672        0.552        0.451       31.720       33.503        1.116      347.183       25.970      862.604
06/08/2013  09:08:00       35.164      -68.491       10.672       42.492       61.013       43.573     1805.541     3722.595     1898.597        0.673        0.371       76.990       25.127        0.107      346.904       25.487      862.594
06/08/2013  09:09:00       39.482      -61.103      -10.573       32.420       40.405       22.144     1051.057     1632.533      490.349        0.429        0.159       72.749       19.109        0.069      346.336       24.512      862.600
06/08/2013  09:10:00       22.977        1.272       40.054       32.456       40.834       27.529     1053.361     1667.386      757.856        0.281        0.174       23.012       29.193        1.609      347.191       25.983      862.594
06/08/2013  09:11:00       73.890      -20.526       16.073       40.140       61.882       40.670     1611.223     3829.405     1654.021        0.662        0.355       76.688       36.882        0.231      346.535       24.852      862.586
06/08/2013  09:12:00       93.377       29.903       16.413       72.979       67.800       35.871     5325.863     4596.853     1286.762        1.054        0.560       98.048       19.426        0.039      347.073       25.778      862.568
06/08/2013  09:13:00      113.888       70.089       23.781       39.220       46.421       49.398     1538.214     2154.936     2440.202        1.229        0.307      133.727       32.352        0.059      347.039       25.720      862.501
06/08/2013  09:14:00       13.918      153.843       -8.785       48.364       87.304       36.498     2339.030     7621.967     1332.124        1.761        0.565      154.471       41.255        0.071      347.046       25.731      862.548
06/08/2013  09:15:00       18.860       25.867       17.745       30.725       46.082       30.387      944.020     2123.539      923.395        0.266        0.200       32.012       20.084        0.394      347.922       27.243      862.572
06/08/2013  09:16:00       -8.331        8.363      -29.423       28.190       33.845       12.380      794.683     1145.497      153.258        0.155        0.105       11.804       12.038        1.040      347.017       25.681      862.575
06/08/2013  09:17:00       -9.162      -47.799       18.275       37.932       45.565       36.893     1438.867     2076.137     1361.128        0.379        0.244       48.669       19.404        0.159      347.177       25.957      862.563
06/08/2013  09:18:00       22.506      -64.365        5.187       34.385       38.213       34.024     1182.342     1460.216     1157.618        0.424        0.190       68.186       22.847        0.112      346.849       25.393      862.556
06/08/2013  09:19:00       15.987      -42.635       17.159       36.869       57.568       45.791     1359.287     3314.073     2096.787        0.457        0.339       45.534       24.292        0.285      347.362       26.276      862.554
06/08/2013  09:20:00       63.368      -37.245       27.181       44.736       60.622       32.549     2001.319     3675.051     1059.443        0.644        0.337       73.503       20.489        0.078      347.467       26.457      862.553
06/08/2013  09:21:00       74.063       40.696       17.454       52.240       32.879       33.154     2729.006     1080.997     1099.199        0.618        0.245       84.508       27.157        0.103      347.645       26.764      862.554
06/08/2013  09:22:00       13.569       -0.065       21.238       26.814       37.159       29.372      718.987     1380.813      862.733        0.180        0.148       13.569       17.041        1.577      347.961       27.311      862.554
06/08/2013  09:23:00       59.221       51.934       69.397       33.163       29.729       26.695     1099.794      883.803      712.641        0.686        0.135       78.767       13.757        0.031      347.440       26.411      862.545
06/08/2013  09:24:00        7.931      -34.646       23.054       32.959       47.831       33.554     1086.313     2287.821     1125.866        0.315        0.225       35.542       26.527        0.557      347.232       26.052      862.533
06/08/2013  09:25:00       50.337      -64.159        9.985       51.957       90.326       46.734     2699.501     8158.782     2184.052        0.989        0.652       81.548       52.028        0.407      347.431       26.394      862.526
06/08/2013  09:26:00       53.384      -32.684       30.686       44.963       58.393       44.899     2021.686     3409.759     2015.877        0.615        0.372       62.595       37.696        0.363      347.669       26.808      862.512
06/08/2013  09:27:00       50.800      -47.682       11.126       30.239       53.885       32.732      914.373     2903.607     1071.364        0.493        0.244       69.672       36.216        0.270      347.097       25.821      862.515
06/08/2013  09:28:00       19.741       -2.178       34.474       30.312       41.431       30.218      918.799     1716.545      913.152        0.257        0.177       19.860       30.571        2.369      347.622       26.726      862.489
06/08/2013  09:29:00       57.491       -8.025       40.647       51.020       64.309       36.148     2603.039     4135.597     1306.694        0.653        0.402       58.048       45.684        0.619      347.290       26.153      862.477
06/08/2013  09:30:00       71.921       16.498       43.129       53.580       87.483       35.055     2870.830     7653.329     1228.825        0.953        0.588       73.789       29.464        0.159      347.403       26.347      862.463
06/08/2013  09:31:00       21.940       47.366       76.299       36.613       49.374       30.190     1340.503     2437.800      911.447        0.662        0.234       52.201       27.803        0.284      347.626       26.731      862.451
06/08/2013  09:32:00      100.334       45.357       32.131       56.675       59.924       52.259     3212.061     3590.836     2730.968        1.134        0.477      110.109       48.070        0.191      347.115       25.850      862.461
06/08/2013  09:33:00       57.263       20.102       40.234       45.447       59.906       26.344     2065.409     3588.759      694.004        0.582        0.317       60.689       15.183        0.063      347.508       26.529      862.448
06/08/2013  09:34:00       70.215       62.022       43.873       48.614       38.306       29.496     2363.349     1467.367      869.987        0.770        0.235       93.685       14.444        0.024      347.203       26.002      862.437
06/08/2013  09:35:00       90.850       76.270       30.484       22.594       26.429       32.341      510.500      698.499     1045.920        0.863        0.113      118.621       15.061        0.016      347.134       25.884      862.444
06/08/2013  09:36:00       15.897       -8.301       -4.543       24.781       21.099       19.114      614.082      445.165      365.358        0.088        0.071       17.934        7.845        0.191      347.501       26.515      862.439
06/08/2013  09:37:00      -58.907      -36.941      -13.492       18.087       11.748       11.156      327.149      138.006      124.464        0.280        0.029       69.532        4.168        0.004      347.098       25.820      862.428
06/08/2013  09:38:00       21.528        7.747       22.945       47.088       28.663       22.765     2217.237      821.556      518.229        0.230        0.178       22.879        7.297        0.102      347.753       26.952      862.418
06/08/2013  09:39:00       39.399       41.397       26.879       49.456       35.123       34.144     2445.938     1233.621     1165.802        0.442        0.242       57.149       24.701        0.187      348.079       27.516      862.412
06/08/2013  09:40:00       45.385       57.985       28.468       56.566       46.661       39.738     3199.663     2177.274     1579.110        0.659        0.348       73.635       33.440        0.206      348.091       27.534      862.399
06/08/2013  09:41:00       70.683       39.071       33.368       74.434       50.031       30.695     5540.423     2503.121      942.177        0.831        0.449       80.763       26.474        0.107      347.879       27.169      862.387
06/08/2013  09:42:00       44.938       51.769       51.115       47.599       51.492       41.858     2265.643     2651.439     1752.066        0.699        0.333       68.553       31.197        0.207      347.862       27.139      862.379
06/08/2013  09:43:00       34.770      -26.431       32.816       56.255       85.201       41.583     3164.603     7259.126     1729.154        0.757        0.608       43.675       43.074        0.973      347.680       26.825      862.371
06/08/2013  09:44:00       26.516       11.809       55.282       37.452       44.786       29.454     1402.666     2005.780      867.522        0.409        0.214       29.026       21.833        0.566      348.027       27.425      862.364
06/08/2013  09:45:00       48.169        0.222       32.647       33.986       28.937       26.665     1155.074      837.345      711.031        0.304        0.135       48.169       21.807        0.205      347.349       26.254      862.348
06/08/2013  09:46:00       31.050      -14.027       23.980       31.637       30.273       25.313     1000.872      916.460      640.735        0.215        0.128       34.072       15.021        0.194      347.479       26.479      862.340
06/08/2013  09:47:00       53.990      -38.547       22.996       67.500       91.241       48.728     4556.275     8324.907     2374.437        1.009        0.763       66.338       48.493        0.534      347.965       27.316      862.327
06/08/2013  09:48:00      151.491      103.056       38.059       89.039       59.108       57.155     7927.996     3493.701     3266.749        2.485        0.734      183.221       16.892        0.008      347.914       27.225      862.326
06/08/2013  09:49:00      170.967      111.892       34.822       60.926       56.432       48.439     3711.919     3184.515     2346.300        2.610        0.462      204.327       22.305        0.012      347.635       26.745      862.331
06/08/2013  09:50:00       88.879       66.729       12.088       38.839       32.774       35.974     1508.471     1074.139     1294.127        0.819        0.194      111.140       22.364        0.040      347.662       26.794      862.334
06/08/2013  09:51:00       92.972       67.406        6.066       25.710       25.906       23.541      660.979      671.104      554.191        0.755        0.094      114.836        9.713        0.007      347.626       26.732      862.321
06/08/2013  09:52:00       43.984       31.749      -10.098       43.900       34.331       35.793     1927.188     1178.617     1281.115        0.371        0.219       54.246       19.366        0.127      348.103       27.555      862.309
06/08/2013  09:53:00       31.206      -60.588       -0.267       41.562       60.201       37.551     1727.400     3624.164     1410.091        0.570        0.338       68.152       27.361        0.161      347.997       27.372      862.297
06/08/2013  09:54:00       45.715      -88.496       26.571       46.380       82.724       51.301     2151.087     6843.198     2631.797        1.112        0.581       99.606       55.386        0.309      348.061       27.482      862.277
06/08/2013  09:55:00      139.533       56.360      109.765      126.006      146.749       94.575    15877.420    21535.237     8944.433        4.052        2.318      150.485       78.221        0.270      347.923       27.241      862.244
06/08/2013  09:56:00      128.327      119.156       20.180      123.093       84.360       78.438    15151.880     7116.689     6152.497        2.974        1.421      175.118       52.727        0.091      348.115       27.574      862.271
06/08/2013  09:57:00      262.062      139.094       20.516      100.723       80.865       60.181    10145.047     6539.148     3621.766        5.437        1.015      296.688       42.182        0.020      347.779       26.993      862.297
06/08/2013  09:58:00      101.116      114.802       -3.468       75.554       51.970       43.348     5708.351     2700.897     1879.053        1.685        0.514      152.983       16.988        0.012      347.539       26.580      862.312
06/08/2013  09:59:00       23.891       82.215       -1.625       43.990       48.421       36.306     1935.104     2344.586     1318.154        0.646        0.280       85.616       32.323        0.143      347.990       27.359      862.292
06/08/2013  10:00:00      108.445       85.673       21.408       55.194       35.206       50.738     3046.342     1239.461     2574.386        1.321        0.343      138.203       33.350        0.058      347.845       27.109      862.290
06/08/2013  10:01:00       80.295       -1.299       47.123       57.059       76.791       51.611     3255.680     5896.808     2663.734        1.024        0.591       80.305       54.511        0.461      347.627       26.734      862.289
06/08/2013  10:02:00       56.309      -59.844       28.061       57.824       89.090       28.820     3343.567     7937.081      830.613        0.982        0.606       82.171       36.155        0.194      347.925       27.249      862.258
06/08/2013  10:03:00       31.153       22.848       11.841       43.972       24.972       30.362     1933.567      623.623      921.855        0.256        0.174       38.633        9.577        0.061      347.702       26.862      862.257
06/08/2013  10:04:00       -6.717       59.150        1.484       41.881       46.016       33.327     1754.011     2117.514     1110.670        0.426        0.249       59.530       31.007        0.271      348.144       27.625      862.239
06/08/2013  10:05:00       35.268      137.938       -3.157       68.155      119.943       62.266     4645.141    14386.434     3877.042        2.159        1.145      142.376       70.430        0.245      348.424       28.108      862.235
06/08/2013  10:06:00      148.747       93.328       39.812       82.257       64.639       50.422     6766.201     4178.255     2542.392        2.295        0.674      175.601       23.553        0.018      348.450       28.152      862.224
06/08/2013  10:07:00       87.380       98.759       77.521       64.272       69.986       61.780     4130.907     4898.031     3816.810        1.812        0.642      131.866       45.804        0.121      347.796       27.025      862.235
06/08/2013  10:08:00      233.763      129.335       24.600       89.961       81.158       59.964     8093.048     6586.559     3595.695        4.512        0.914      267.157       14.863        0.003      347.934       27.259      862.228
06/08/2013  10:09:00       89.572       61.129       43.567       79.242       47.478       48.126     6279.219     2254.120     2316.093        1.225        0.542      108.443       34.271        0.100      348.137       27.613      862.242
06/08/2013  10:10:00      191.534       93.742       15.244       63.423       46.457       40.908     4022.522     2158.243     1673.457        2.678        0.393      213.244        8.919        0.002      347.599       26.683      862.230
06/08/2013  10:11:00        8.946        3.408        7.775       45.035       61.261       24.921     2028.179     3752.970      621.039        0.328        0.320        9.573       16.131        2.839      347.773       26.985      862.223
06/08/2013  10:12:00      -18.563       24.277       16.752       23.769       30.389       23.761      564.966      923.503      564.572        0.163        0.103       30.561       14.095        0.213      348.680       28.553      862.212
06/08/2013  10:13:00       91.515       75.551       26.149       82.581       68.159       53.834     6819.665     4645.689     2898.108        1.456        0.718      118.672       47.289        0.159      348.445       28.146      862.191
06/08/2013  10:14:00      123.316       89.236       24.374       82.105       61.131       45.673     6741.180     3737.008     2086.046        1.816        0.628      152.216       41.385        0.074      348.244       27.797      862.175
06/08/2013  10:15:00       85.438      126.701       18.077       77.005       72.032       49.954     5929.836     5188.592     2495.428        1.864        0.681      152.816       41.126        0.072      348.381       28.034      862.166
06/08/2013  10:16:00       72.722      170.068       -5.184      102.614      110.467       74.199    10529.535    12202.949     5505.492        3.123        1.412      184.964       72.344        0.153      348.461       28.171      862.160
06/08/2013  10:17:00      136.773       83.867       20.759      124.529       76.286       45.147    15507.523     5819.590     2038.217        2.476        1.168      160.439       38.900        0.059      348.306       27.905      862.169
06/08/2013  10:18:00       42.946       37.605        6.901       44.320       48.528       31.054     1964.284     2354.954      964.329        0.429        0.264       57.084       29.374        0.265      348.241       27.794      862.157
06/08/2013  10:19:00        1.478       -5.569       25.179       19.957       22.586       17.898      398.277      510.148      320.326        0.095        0.061        5.762       17.563        9.291      348.998       29.103      862.145
06/08/2013  10:20:00       85.837       53.892       24.733       97.893       96.678       47.295     9583.101     9346.682     2236.781        1.602        1.058      101.353       49.099        0.235      348.369       28.014      862.134
06/08/2013  10:21:00       63.263       54.485       43.520       75.608       53.909       48.799     5716.520     2906.128     2381.341        0.993        0.550       83.491       19.636        0.055      348.951       29.023      862.128
06/08/2013  10:22:00        1.456      -14.016       16.123       35.059       61.694       37.006     1229.146     3806.142     1369.449        0.343        0.320       14.091       31.518        5.003      348.928       28.985      862.127
06/08/2013  10:23:00       22.033      -40.439        9.183       91.308       59.890       32.189     8337.157     3586.843     1036.148        0.758        0.648       46.052       21.389        0.216      348.367       28.013      862.136
06/08/2013  10:24:00       34.850      -42.854       23.928       35.697       59.670       32.455     1274.303     3560.486     1053.347        0.475        0.294       55.236       30.786        0.311      348.739       28.655      862.129
06/08/2013  10:25:00       68.940       75.063       25.354       96.887       51.960       33.915     9387.063     2699.850     1150.213        1.213        0.662      101.917       30.302        0.088      348.574       28.369      862.127
06/08/2013  10:26:00      111.354       81.286       25.294       82.673       40.154       28.005     6834.869     1612.326      784.281        1.444        0.462      137.866       27.881        0.041      348.240       27.791      862.130
06/08/2013  10:27:00       36.950       64.059       11.118       59.697       48.926       39.538     3563.728     2393.759     1563.220        0.656        0.376       73.951       35.464        0.230      348.825       28.805      862.118
06/08/2013  10:28:00        3.379       23.126       10.713       36.454      111.631       38.170     1328.928    12461.534     1456.938        0.795        0.762       23.371       37.610        2.590      348.938       29.002      862.117
06/08/2013  10:29:00       -7.141      111.495       -1.416       44.566       64.540       37.441     1986.116     4165.466     1401.799        1.002        0.378      111.724       35.166        0.099      348.786       28.737      862.103
06/08/2013  10:30:00       62.406       61.064       28.519       65.502       53.163       42.960     4290.485     2826.282     1845.588        0.870        0.448       87.311       23.938        0.075      349.052       29.197      862.092
06/08/2013  10:31:00       14.510      131.122       17.531       67.570       60.277       59.941     4565.728     3633.293     3592.882        1.475        0.590      131.923       44.568        0.114      348.652       28.505      862.080
06/08/2013  10:32:00      -38.678      117.189       21.243       56.698       68.730       41.605     3214.614     4723.881     1730.993        1.267        0.483      123.407       35.164        0.081      349.031       29.159      862.093
06/08/2013  10:33:00      -91.309       43.589      -26.916       26.931       58.742       25.572      725.269     3450.614      653.928        0.789        0.241      101.180       20.221        0.040      348.023       27.416      862.085
06/08/2013  10:34:00      -52.448       10.550       -2.704       29.777       32.731       28.304      886.689     1071.351      801.090        0.281        0.138       53.498       12.802        0.057      348.500       28.241      862.078
06/08/2013  10:35:00      -53.125       34.493       -5.214       31.098       21.364       22.280      967.082      456.405      496.390        0.298        0.096       63.341       15.724        0.062      348.588       28.394      862.057
06/08/2013  10:36:00       24.985       12.553       19.447       68.813       32.237       35.538     4735.185     1039.240     1262.918        0.410        0.352       27.962       16.318        0.341      348.870       28.881      862.049
06/08/2013  10:37:00       61.604       60.804       24.195       76.287       70.124       56.835     5819.773     4917.409     3230.242        1.102        0.698       86.558       40.265        0.216      349.152       29.370      862.040
06/08/2013  10:38:00      334.109      199.347       36.533      140.328      115.107       56.409    19691.942    13249.720     3181.947        9.441        1.806      389.060       23.431        0.004      348.387       28.043      862.028
06/08/2013  10:39:00      273.121      188.094       34.854      126.265       92.168       75.124    15942.768     8494.860     5643.618        7.063        1.504      331.624       66.146        0.040      348.435       28.126      862.012
06/08/2013  10:40:00      127.328      115.162       89.255      100.967      104.743       71.690    10194.341    10971.097     5139.417        3.187        1.315      171.682       55.896        0.106      348.551       28.328      862.029
06/08/2013  10:41:00      150.799       94.204       57.883       91.326       57.028       67.653     8340.434     3252.185     4576.952        2.556        0.808      177.805       36.418        0.042      348.515       28.265      862.016
06/08/2013  10:42:00      228.104      165.769        0.363       89.051       67.080       53.825     7930.051     4499.774     2897.083        4.742        0.766      281.977       32.225        0.013      348.446       28.144      862.017
06/08/2013  10:43:00      202.602      128.380       37.623       75.637       50.866       49.775     5720.988     2587.348     2477.532        3.486        0.539      239.852        8.763        0.001      348.527       28.283      862.018
06/08/2013  10:44:00       61.745       69.100       73.853      112.677       77.015       66.359    12696.026     5931.268     4403.579        1.853        1.152       92.667       63.376        0.468      348.714       28.611      862.001
06/08/2013  10:45:00       80.211       49.428       58.864       92.431       64.833       57.754     8543.431     4203.333     3335.542        1.421        0.804       94.217       36.490        0.150      348.800       28.760      862.001
06/08/2013  10:46:00      -24.803       27.091       21.878       43.736       29.073       32.864     1912.814      845.233     1080.012        0.283        0.192       36.730       22.680        0.381      348.662       28.522      861.987
06/08/2013  10:47:00       83.382        0.819       20.255      123.701       86.451       51.111    15301.918     7473.836     2612.332        1.637        1.269       83.386       40.058        0.231      348.809       28.775      861.974
06/08/2013  10:48:00      245.879      133.202       30.833      106.078       92.387       72.852    11252.648     8535.427     5307.399        5.212        1.255      279.641       51.915        0.034      348.657       28.509      861.969
06/08/2013  10:49:00      212.737      170.690       16.862      103.387       77.069       73.229    10688.802     5939.584     5362.491        4.833        1.100      272.749       42.107        0.024      348.451       28.152      861.975
06/08/2013  10:50:00      110.092       42.988       14.948       75.844       69.684       43.741     5752.328     4855.808     1913.258        1.335        0.626      118.187       41.417        0.123      348.745       28.663      861.968
06/08/2013  10:51:00       55.507       64.360       52.896       72.417       45.633       40.340     5244.243     2082.351     1627.342        0.949        0.448       84.990       33.766        0.158      348.922       28.974      861.980
06/08/2013  10:52:00       17.050       14.790       28.913       32.016       31.380       30.568     1025.030      984.728      934.423        0.214        0.147       22.571       21.276        0.889      348.856       28.858      861.971
06/08/2013  10:53:00      175.111       83.376       29.533       85.100       60.987       51.300     7242.078     3719.454     2631.669        2.604        0.680      193.947       35.682        0.034      348.735       28.647      861.974
06/08/2013  10:54:00       82.680       49.644       38.443       67.230       46.476       43.919     4519.881     2160.038     1928.864        0.969        0.430       96.439       42.316        0.193      348.716       28.615      861.985
06/08/2013  10:55:00      103.504       52.019       19.390       49.481       43.033       38.009     2448.394     1851.851     1444.663        0.977        0.287      115.841       26.001        0.050      348.321       27.933      861.969
06/08/2013  10:56:00       24.006       60.019        1.302       31.336       49.752       27.772      981.923     2475.303      771.257        0.420        0.211       64.642       28.816        0.199      348.535       28.302      861.966
06/08/2013  10:57:00       76.674       73.975       19.956       70.787       51.220       41.271     5010.799     2623.518     1703.280        1.054        0.467      106.541       33.751        0.100      348.741       28.658      861.959
06/08/2013  10:58:00      -54.133      114.694      -14.980       32.710       44.878       26.773     1069.964     2014.011      716.808        1.005        0.190      126.827        6.809        0.003      348.653       28.506      861.954
06/08/2013  10:59:00      -35.272       83.656       -9.114       30.198       66.310       31.569      911.897     4396.974      996.613        0.731        0.315       90.788       27.578        0.092      348.912       28.956      861.951
06/08/2013  11:00:00        9.867       22.778       43.778       43.255       31.295       30.940     1871.011      979.386      957.303        0.317        0.190       24.823       30.015        1.462      349.172       29.405      861.931
06/08/2013  11:01:00       16.381        5.531       23.046       20.966       30.778       23.894      439.574      947.287      570.946        0.139        0.098       17.290       15.977        0.854      349.123       29.321      861.924
06/08/2013  11:02:00        9.860       25.953       19.144       23.303       23.587       21.937      543.009      556.328      481.242        0.136        0.079       27.763       10.076        0.132      349.227       29.500      861.935
06/08/2013  11:03:00       46.286      -37.278       17.010       36.223       52.336       27.075     1312.111     2739.057      733.041        0.430        0.239       59.431       27.651        0.216      348.852       28.852      861.926
06/08/2013  11:04:00       81.513       66.819       48.671       47.178       37.303       40.903     2225.759     1391.502     1673.020        0.938        0.265      105.400       23.947        0.052      348.950       29.022      861.931
06/08/2013  11:05:00       79.815       25.589       12.412       57.876       43.701       40.920     3349.649     1909.779     1674.449        0.706        0.347       83.817       25.156        0.090      349.679       30.284      861.937
06/08/2013  11:06:00       29.100       91.604        8.241       91.040       74.655       44.892     8288.336     5573.386     2015.248        1.259        0.794       96.115       15.726        0.027      349.570       30.093      861.945
06/08/2013  11:07:00      287.750      126.104       43.260      155.649       80.484       75.067    24226.660     6477.712     5635.072        6.845        1.817      314.169       52.197        0.028      348.884       28.902      861.961
06/08/2013  11:08:00      100.321       78.315       26.000       72.986       57.220       50.080     5326.902     3274.171     2507.959        1.399        0.555      127.269       25.314        0.040      349.304       29.633      861.979
06/08/2013  11:09:00       -3.011       60.375        9.230       76.487       64.564       41.706     5850.256     4168.555     1739.399        0.775        0.588       60.450       44.633        0.545      349.415       29.827      861.970
06/08/2013  11:10:00       33.704      116.087       -1.981       71.584       60.721       46.027     5124.283     3687.025     2118.455        1.277        0.546      120.880       38.998        0.104      349.097       29.274      861.950
06/08/2013  11:11:00       69.649       40.651       26.333       56.043       52.910       31.118     3140.818     2799.456      968.358        0.705        0.345       80.644       20.595        0.065      349.184       29.427      861.934
06/08/2013  11:12:00       86.740       76.521        6.822       43.484       33.275       33.981     1890.839     1107.204     1154.679        0.879        0.208      115.669       22.082        0.036      349.047       29.189      861.922
06/08/2013  11:13:00      104.371       81.559       16.417       45.066       37.097       31.575     2030.978     1376.221      996.955        1.111        0.220      132.458       23.595        0.032      348.984       29.079      861.926
06/08/2013  11:14:00       64.005       63.414       40.579       79.803       90.683       84.284     6368.495     8223.396     7103.711        1.573        1.085       90.100       42.109        0.218      349.428       29.847      861.906
06/08/2013  11:15:00       19.575       79.534      114.360       64.805       84.512       61.154     4199.685     7142.337     3739.789        1.743        0.754       81.907       52.750        0.415      349.722       30.357      861.923
06/08/2013  11:16:00      128.911       98.072       67.057       77.487       49.947       53.895     6004.168     2494.730     2904.657        2.107        0.570      161.976       39.089        0.058      349.062       29.212      861.931
06/08/2013  11:17:00       99.546       37.766       36.528       97.199       83.102       55.025     9447.552     6905.888     3027.703        1.602        0.969      106.469       36.850        0.120      348.998       29.103      861.927
06/08/2013  11:18:00       19.791       -4.465        8.576       29.075       34.985       30.168      845.348     1223.942      910.138        0.173        0.149       20.289       18.827        0.861      349.291       29.613      861.916
06/08/2013  11:19:00       42.129      -26.020       -3.032       63.861       82.813       28.883     4078.205     6857.998      834.255        0.711        0.589       49.516       28.257        0.326      349.453       29.892      861.914
06/08/2013  11:20:00       90.177      -37.365       58.971      107.275      126.390       76.535    11508.005    15974.380     5857.625        2.317        1.667       97.611       89.127        0.834      349.476       29.931      861.882
06/08/2013  11:21:00       27.309       26.199       62.647       70.426       57.899       49.680     4959.752     3352.272     2468.079        0.807        0.539       37.844       40.196        1.128      349.253       29.546      861.892
06/08/2013  11:22:00       39.330       29.039       19.443       39.892       35.120       27.490     1591.352     1233.397      755.690        0.317        0.179       48.889       21.975        0.202      349.320       29.661      861.877
06/08/2013  11:23:00       23.363       -4.055       46.445       40.156       79.750       36.443     1612.499     6360.029     1328.077        0.601        0.465       23.712       41.676        3.089      349.271       29.576      861.862
06/08/2013  11:24:00       42.239      -46.268       23.567       49.207       79.302       38.974     2421.364     6288.741     1518.960        0.735        0.511       62.649       41.661        0.442      349.118       29.311      861.856
06/08/2013  11:25:00       22.420       10.307       55.384       51.043       69.479       45.293     2605.399     4827.340     2051.463        0.658        0.474       24.676       47.457        3.699      349.680       30.286      861.833
06/08/2013  11:26:00       14.422       13.765       67.690       45.937       80.652       47.929     2110.216     6504.724     2297.157        0.794        0.546       19.937       45.425        5.191      349.720       30.355      861.841
06/08/2013  11:27:00        8.204       18.618       64.061       48.116       59.250       42.195     2315.140     3510.553     1780.418        0.606        0.380       20.346       39.826        3.832      349.813       30.518      861.845
06/08/2013  11:28:00       35.716      -99.279       28.268       67.866      109.026       51.840     4605.750    11886.769     2687.357        1.555        0.959      105.508       47.671        0.204      349.995       30.830      861.821
06/08/2013  11:29:00       42.792      -31.305       40.515       65.878       65.306       43.951     4339.966     4264.832     1931.721        0.749        0.527       53.020       34.237        0.417      349.848       30.579      861.817
06/08/2013  11:30:00       79.173      -32.180       58.493       90.502      111.121       81.330     8190.603    12347.846     6614.627        1.893        1.358       85.463       84.524        0.978      349.741       30.391      861.786
06/08/2013  11:31:00       98.274     -123.398       12.960      129.197      100.226       73.100    16691.829    10045.175     5343.569        2.856        1.604      157.749       58.308        0.137      349.585       30.119      861.776
06/08/2013  11:32:00      117.677      -18.826       46.489       88.142       77.076       57.990     7768.991     5940.693     3362.841        1.671        0.854      119.174       53.430        0.201      349.326       29.671      861.767
06/08/2013  11:33:00       25.872      -29.480       41.566       52.200       85.801       50.778     2724.811     7361.888     2578.381        0.796        0.633       39.223       42.683        1.184      349.790       30.477      861.780
06/08/2013  11:34:00      -18.854      -49.811       36.414       62.545       69.556       43.885     3911.925     4838.050     1925.862        0.742        0.534       53.260       47.706        0.802      349.785       30.468      861.781
06/08/2013  11:35:00      -17.836      -23.531       14.821       39.344       83.467       33.219     1547.911     6966.815     1103.531        0.535        0.481       29.527       16.531        0.313      349.671       30.270      861.777
06/08/2013  11:36:00       17.585      -12.547       -2.001       32.718       34.851       25.003     1070.477     1214.619      625.163        0.169        0.146       21.602       20.042        0.861      349.029       29.160      861.772
06/08/2013  11:37:00       78.169      -36.392       24.768       64.575       79.667       47.724     4169.899     6346.792     2277.547        1.042        0.640       86.225       52.246        0.367      349.396       29.793      861.756
06/08/2013  11:38:00       66.778      -23.155       25.473       36.840       47.539       39.287     1357.173     2259.933     1543.503        0.540        0.258       70.679       34.946        0.244      348.932       28.989      861.756
06/08/2013  11:39:00       51.097       49.625        2.312       24.270       31.184       38.610      589.033      972.414     1490.716        0.406        0.153       71.229       25.051        0.124      349.165       29.394      861.739
06/08/2013  11:40:00       49.657       21.570       17.740       28.975       30.807       28.577      839.548      949.077      816.644        0.293        0.130       54.140       17.728        0.107      349.279       29.589      861.723
06/08/2013  11:41:00       16.632       -8.604       18.566       35.975       46.592       34.131     1294.166     2170.791     1164.915        0.266        0.231       18.726       20.875        1.243      349.634       30.207      861.723
06/08/2013  11:42:00       46.142        6.267       35.024       54.664       47.890       40.886     2988.123     2293.463     1671.695        0.517        0.348       46.565       33.086        0.505      349.739       30.389      861.716
06/08/2013  11:43:00       17.698       37.590       17.956       62.247       63.308       36.367     3874.678     4007.892     1322.590        0.563        0.460       41.548       30.011        0.522      349.785       30.466      861.702
06/08/2013  11:44:00       69.890       65.669       17.796       60.458       47.765       38.317     3655.129     2281.463     1468.177        0.846        0.370       95.900       22.659        0.056      349.538       30.039      861.690
06/08/2013  11:45:00       12.418       69.273       13.581       43.864       44.305       39.188     1924.009     1962.900     1535.696        0.528        0.271       70.377       29.698        0.178      349.827       30.541      861.674
06/08/2013  11:46:00       49.576       60.104       11.129       92.261       36.784       37.023     8512.028     1353.080     1370.671        0.871        0.562       77.912       24.117        0.096      349.732       30.377      861.663
06/08/2013  11:47:00      221.900      153.133        7.297       65.630       63.553       55.529     4307.281     4038.966     3083.491        4.208        0.571      269.609       29.166        0.012      349.161       29.382      861.637
06/08/2013  11:48:00      111.960       54.069       34.544       65.104       89.223       42.654     4238.532     7960.671     1819.367        1.533        0.701      124.333       27.809        0.050      349.297       29.619      861.628
06/08/2013  11:49:00      -27.297      166.414       -2.900       61.907       74.426       40.244     3832.528     5539.277     1619.583        1.972        0.550      168.637       46.992        0.078      349.380       29.764      861.620
06/08/2013  11:50:00       -4.935       61.486       -0.411       52.143       52.441       41.626     2718.869     2750.042     1732.693        0.550        0.360       61.684       36.181        0.344      349.515       30.000      861.610
06/08/2013  11:51:00      180.870      150.690       23.803      165.390      106.361       81.367    27353.766    11312.655     6620.613        5.063        2.264      235.417       79.610        0.114      349.645       30.222      861.584
06/08/2013  11:52:00      197.848       88.075       41.200      116.042       92.395       67.584    13465.709     8536.913     4567.560        3.758        1.329      216.566       46.275        0.046      349.575       30.101      861.567
06/08/2013  11:53:00      147.906       69.875       28.333       81.203       59.944       52.918     6593.964     3593.229     2800.287        2.027        0.649      163.581       32.916        0.040      349.472       29.924      861.583
06/08/2013  11:54:00      124.912     -104.221        2.588      132.384      216.100       78.571    17525.634    46699.145     6173.421        4.842        3.520      162.681      119.705        0.541      349.778       30.454      861.590
06/08/2013  11:55:00       66.761     -178.436      -36.921      100.761      105.680       66.968    10152.746    11168.366     4484.761        3.173        1.290      190.517       50.652        0.071      349.574       30.100      861.594
06/08/2013  11:56:00       55.523     -113.177        7.571       62.184       82.139       51.728     3866.886     6746.865     2675.744        1.462        0.664      126.063       44.122        0.123      349.703       30.325      861.600
06/08/2013  11:57:00      118.101      -37.220       67.310      138.647      155.121       71.595    19223.117    24062.473     5125.863        3.413        2.421      123.827      100.795        0.663      349.752       30.408      861.581
06/08/2013  11:58:00       37.598       49.485       91.681       63.285       93.002       63.016     4004.950     8649.331     3970.994        1.444        0.831       62.148       59.345        0.912      349.743       30.394      861.570
06/08/2013  11:59:00       94.365      -68.074       11.883       79.740      109.633       48.500     6358.520    12019.361     2352.248        1.720        1.037      116.357       58.702        0.255      349.242       29.524      861.566
06/08/2013  12:00:00       77.511      -70.019       40.277       70.525      121.419       56.148     4973.825    14742.575     3152.595        1.770        1.143      104.454       66.927        0.411      349.739       30.385      861.555
06/08/2013  12:01:00       20.607      -36.762       58.808       72.945      120.959       67.642     5321.010    14631.005     4575.483        1.488        1.226       42.144       65.801        2.438      349.983       30.812      861.526
06/08/2013  12:02:00       73.891      -13.830       44.764       59.419       72.448       50.221     3530.631     5248.755     2522.175        0.948        0.565       75.174       36.856        0.240      349.514       29.999      861.540
06/08/2013  12:03:00       26.215       39.060       44.753       45.626       43.627       38.341     2081.723     1903.278     1470.029        0.483        0.273       47.042       13.545        0.083      349.712       30.342      861.530
06/08/2013  12:04:00       52.069       48.257       48.291       43.289       35.576       31.281     1873.897     1265.674      978.476        0.574        0.206       70.992        5.767        0.007      349.655       30.242      861.521
06/08/2013  12:05:00       11.139        0.622        8.592       13.585       12.942       17.580      184.558      167.487      309.051        0.043        0.033       11.157        8.983        0.648      350.020       30.878      861.527
06/08/2013  12:06:00        3.054      -12.534       27.826       48.190       35.561       25.610     2322.286     1264.555      655.890        0.259        0.212       12.901       18.736        2.109      350.012       30.864      861.513
06/08/2013  12:07:00      122.712     -151.895       17.054      112.408      117.638       80.102    12635.619    13838.798     6416.337        3.565        1.645      195.270       84.312        0.186      349.826       30.538      861.506
06/08/2013  12:08:00       82.842     -172.675        7.355       93.084      126.478       57.428     8664.702    15996.713     3297.958        3.234        1.398      191.518       69.599        0.132      349.699       30.318      861.501
06/08/2013  12:09:00       12.594       29.691       72.817       57.244       75.872       74.024     3276.881     5756.598     5479.493        1.042        0.726       32.252       49.702        2.375      350.014       30.866      861.501
06/08/2013  12:10:00      -35.459      -43.848       13.746       60.047       65.359       42.531     3605.613     4271.766     1808.885        0.653        0.484       56.391       40.223        0.509      350.036       30.904      861.491
06/08/2013  12:11:00     -125.806      -58.849        6.643       62.065       50.569       36.282     3852.095     2557.187     1316.384        1.353        0.386      138.890       30.701        0.049      349.674       30.275      861.483
06/08/2013  12:12:00      -65.227       12.062        2.018       28.458       24.114       21.911      809.853      581.478      480.083        0.314        0.094       66.333       15.734        0.056      349.731       30.375      861.480
06/08/2013  12:13:00        4.314       -2.615       28.657       30.129       12.351       19.805      907.738      152.550      392.238        0.115        0.073        5.044       10.199        4.088      350.664       31.996      861.467
06/08/2013  12:14:00       21.267        8.811       21.508       28.920       27.506       22.105      836.382      756.555      488.646        0.154        0.104       23.020       17.996        0.611      350.273       31.316      861.454
06/08/2013  12:15:00      -22.502       -1.141       20.554       31.419       31.805       21.244      987.137     1011.539      451.290        0.169        0.122       22.531       23.877        1.123      350.275       31.320      861.457
06/08/2013  12:16:00      -32.267      -40.702       -1.879       33.981       20.201       18.747     1154.716      408.070      351.449        0.231        0.096       51.941       13.346        0.066      349.505       29.982      861.444
06/08/2013  12:17:00       35.713      -10.898       20.943       24.061       16.677       25.737      578.947      278.113      662.391        0.168        0.076       37.339       18.480        0.245      349.965       30.780      861.415
06/08/2013  12:18:00       31.687       45.249       18.687       29.148       41.623       35.925      849.615     1732.507     1290.601        0.364        0.194       55.241       17.105        0.096      350.311       31.381      861.410
06/08/2013  12:19:00       -4.227       82.596        0.196       43.651       64.833       41.425     1905.399     4203.268     1716.010        0.733        0.391       82.704       38.087        0.212      350.339       31.432      861.395
06/08/2013  12:20:00        2.014       53.489       22.378       48.196       44.511       35.705     2322.861     1981.227     1274.829        0.447        0.279       53.527       22.369        0.175      350.602       31.889      861.386
06/08/2013  12:21:00       -3.982       51.148       20.956       20.686       49.289       35.372      427.917     2429.437     1251.146        0.359        0.205       51.303       34.766        0.459      350.673       32.013      861.386
06/08/2013  12:22:00       -0.967       32.828       19.156       28.839       37.161       29.477      831.670     1380.907      868.919        0.226        0.154       32.843       19.570        0.355      350.776       32.191      861.376
06/08/2013  12:23:00       10.991       40.189       29.970       50.191       55.912       34.972     2519.139     3126.122     1223.048        0.475        0.343       41.664       36.077        0.750      350.636       31.947      861.376
06/08/2013  12:24:00       24.581       29.248        2.335       40.439       36.716       25.413     1635.288     1348.081      645.810        0.255        0.181       38.205       12.166        0.101      350.203       31.195      861.363
06/08/2013  12:25:00       12.844       22.735       68.901       56.994       52.581       51.569     3248.302     2764.762     2659.318        0.705        0.434       26.112       17.539        0.451      350.693       32.048      861.342
06/08/2013  12:26:00       10.386      -14.096       31.316       40.285       63.776       39.911     1622.851     4067.365     1592.921        0.428        0.364       17.509       19.047        1.183      350.094       31.005      861.365
06/08/2013  12:27:00       50.076       21.353       30.316       38.515       36.089       26.811     1483.373     1302.433      718.823        0.369        0.175       54.439       24.804        0.208      349.708       30.335      861.385
06/08/2013  12:28:00       -4.921      -58.505        4.469       14.284       27.893       13.481      204.030      778.038      181.732        0.232        0.058       58.711        4.000        0.005      349.497       29.971      861.380
06/08/2013  12:29:00       21.725       14.428       29.556       35.121       49.114       25.099     1233.450     2412.217      629.970        0.291        0.214       26.080       22.990        0.777      349.915       30.693      861.372
06/08/2013  12:30:00       97.754       52.872        7.903       51.309       48.294       30.105     2632.642     2332.359      906.319        0.914        0.294      111.137       23.503        0.045      349.816       30.522      861.358
06/08/2013  12:31:00       34.772       35.712       19.617       30.481       34.820       37.912      929.065     1212.417     1437.346        0.322        0.179       49.844       27.040        0.294      350.351       31.452      861.359
06/08/2013  12:32:00        5.860      -13.033       17.517       34.247       42.461       36.759     1172.844     1802.920     1351.209        0.242        0.216       14.289       33.749        5.578      349.932       30.724      861.350
06/08/2013  12:33:00       25.707       22.688       39.388       51.663       57.593       42.674     2669.112     3317.001     1821.035        0.527        0.390       34.287       31.575        0.848      350.149       31.101      861.345
06/08/2013  12:34:00      133.925       65.656       12.023       74.825       65.591       49.002     5598.757     4302.207     2401.174        1.734        0.615      149.153       24.300        0.027      350.392       31.522      861.326
06/08/2013  12:35:00       95.110       82.965       44.914      110.105      109.308       80.226    12123.106    11948.201     6436.260        2.422        1.525      126.210       67.564        0.287      350.551       31.799      861.322
06/08/2013  12:36:00      196.157      148.649       47.574      122.609       84.025       55.527    15032.933     7060.132     3083.274        4.400        1.259      246.118       32.663        0.018      349.895       30.656      861.325
06/08/2013  12:37:00      129.892       94.183       35.255      105.074       75.552       68.292    11040.450     5708.039     4663.802        2.419        1.071      160.444       43.472        0.073      350.471       31.661      861.308
06/08/2013  12:38:00      151.093       99.227       54.346       88.069       82.659       75.732     7756.202     6832.449     5735.269        2.797        1.016      180.762       59.076        0.107      350.469       31.654      861.314
06/08/2013  12:39:00       69.467       62.797       76.224       97.718       72.447       58.927     9548.761     5248.593     3472.347        1.642        0.913       93.643       53.544        0.327      350.309       31.378      861.299
06/08/2013  12:40:00       82.797       44.781       16.161       92.737       69.330       47.759     8600.106     4806.679     2280.917        1.240        0.784       94.131       36.314        0.149      350.102       31.018      861.304
06/08/2013  12:41:00       62.244      164.122      -10.412       78.567       88.823       67.841     6172.841     7889.462     4602.398        2.479        0.933      175.529       57.776        0.108      350.305       31.369      861.303
06/08/2013  12:42:00       27.469       58.253       17.362       40.449       45.273       43.117     1636.149     2049.649     1859.053        0.500        0.277       64.405       34.110        0.280      350.280       31.328      861.309
06/08/2013  12:43:00       57.382       83.317       -6.628       40.424       52.518       35.072     1634.094     2758.088     1230.031        0.795        0.281      101.165       30.860        0.093      350.080       30.980      861.293
06/08/2013  12:44:00       54.267       56.018       17.745       49.475       24.545       34.831     2447.777      602.435     1213.221        0.533        0.213       77.993       23.315        0.089      350.130       31.067      861.284
06/08/2013  12:45:00       -7.470       37.519       20.225       36.072       46.691       32.860     1301.160     2180.044     1079.784        0.322        0.228       38.256       31.095        0.661      350.742       32.133      861.262
06/08/2013  12:46:00       31.814       11.476       27.218       35.761       29.841       29.400     1278.837      890.489      864.356        0.246        0.152       33.821       23.857        0.498      350.431       31.593      861.244
06/08/2013  12:47:00       60.474       18.393       17.692       57.758       37.338       40.095     3335.966     1394.090     1607.587        0.532        0.317       63.209       19.717        0.097      349.877       30.629      861.229
06/08/2013  12:48:00      -42.252      -44.373        6.861       68.579       46.877       39.798     4703.056     2197.462     1583.877        0.614        0.424       61.271       32.352        0.279      350.542       31.784      861.201
06/08/2013  12:49:00       14.981     -101.177       16.823       45.733       80.054       38.260     2091.551     6408.685     1463.860        1.035        0.498      102.280       40.870        0.160      350.328       31.411      861.187
06/08/2013  12:50:00       31.064       28.674       25.921       41.073       40.387       35.392     1687.030     1631.072     1252.560        0.351        0.229       42.275       24.005        0.322      350.440       31.607      861.166
06/08/2013  12:51:00       11.318       48.753       56.937       44.367       48.784       43.579     1968.436     2379.923     1899.103        0.600        0.312       50.050       22.357        0.200      350.780       32.200      861.176
06/08/2013  12:52:00       53.720       43.209       51.841       47.242       45.314       38.346     2231.763     2053.398     1470.381        0.660        0.288       68.941       23.837        0.120      350.701       32.061      861.177
06/08/2013  12:53:00      205.476       99.831       26.586      124.258      142.969       66.497    15440.068    20440.011     4421.835        4.659        2.015      228.444       45.548        0.040      350.372       31.485      861.166
06/08/2013  12:54:00      110.405       64.753       31.810       71.644       49.131       44.954     5132.888     2413.886     2020.871        1.348        0.478      127.993       33.832        0.070      350.344       31.437      861.160
06/08/2013  12:55:00      275.510      122.638       14.848      157.002      101.508       86.378    24649.621    10303.808     7461.163        6.678        2.121      301.573       79.543        0.070      350.393       31.521      861.143
06/08/2013  12:56:00      319.509      206.160       32.422      106.599      100.029       64.136    11363.251    10005.715     4113.460        8.556        1.274      380.248       33.758        0.008      350.336       31.421      861.154
06/08/2013  12:57:00      292.857      203.209       24.021       73.137       60.665       60.793     5349.062     3680.246     3695.752        7.018        0.636      356.454       30.197        0.007      350.008       30.851      861.193
06/08/2013  12:58:00      166.690      123.163       34.479       97.488       71.031       50.745     9503.930     5045.408     2575.084        3.063        0.856      207.255       37.783        0.033      350.204       31.194      861.195
06/08/2013  12:59:00       21.074       84.698        3.045       44.232       57.747       32.800     1956.431     3334.725     1075.838        0.700        0.318       87.281       21.902        0.063      350.600       31.885      861.174
06/08/2013  13:00:00      169.903       84.684       34.972      100.614       58.252       47.383    10123.146     3393.271     2245.194        2.651        0.788      189.838       18.975        0.010      350.311       31.380      861.162
06/08/2013  13:01:00       93.239       28.365        7.634       80.534       66.070       56.875     6485.645     4365.295     3234.720        1.182        0.704       97.458       46.359        0.226      350.175       31.144      861.131
06/08/2013  13:02:00       72.327       53.544       23.958       69.495       56.871       37.068     4829.542     3234.259     1374.008        0.905        0.472       89.990       30.489        0.115      350.215       31.213      861.142
06/08/2013  13:03:00       10.510      -23.452       61.722       51.951      111.028       60.743     2698.913    12327.134     3689.653        1.159        0.936       25.699       62.946        5.999      350.506       31.722      861.125
06/08/2013  13:04:00      125.672      -77.521       30.988       96.224       67.917       52.861     9259.150     4612.750     2794.271        1.971        0.833      147.658       47.787        0.105      350.372       31.486      861.143
06/08/2013  13:05:00       87.082     -114.165       20.254       89.557      152.447       51.803     8020.471    23240.100     2683.531        2.748        1.697      143.585       71.208        0.246      350.780       32.195      861.125
06/08/2013  13:06:00      168.266     -158.981       -4.827      166.716      150.442       72.775    27794.074    22632.803     5296.257        5.466        2.786      231.491      100.355        0.188      350.665       31.996      861.124
06/08/2013  13:07:00      229.654     -273.949      -65.636      133.488      141.252       87.626    17818.927    19952.103     7678.403        8.876        2.272      357.476       76.125        0.045      350.417       31.562      861.075
06/08/2013  13:08:00       27.579       -7.497       60.230       55.943       95.120       78.151     3129.587     9047.797     6107.505        1.136        0.914       28.580       68.990        5.827      350.469       31.658      861.100
06/08/2013  13:09:00       17.136      -11.182       57.135       68.207       49.970       42.853     4652.173     2497.017     1836.396        0.633        0.449       20.462       36.807        3.236      350.738       32.125      861.091
06/08/2013  13:10:00       24.624       43.531       81.388       54.752       45.733       31.622     2997.769     2091.471      999.971        0.761        0.304       50.013       27.884        0.311      350.830       32.285      861.082
06/08/2013  13:11:00       52.326      -19.126       34.226       73.448      109.557       62.627     5394.623    12002.823     3922.095        1.279        1.066       55.712       72.315        1.685      350.338       31.429      861.075
06/08/2013  13:12:00       49.434       63.388       80.822       77.954       68.116       53.375     6076.779     4639.752     2848.941        1.328        0.678       80.385       44.258        0.303      350.564       31.821      861.088
06/08/2013  13:13:00      152.300      100.681      113.522      128.859      105.816       80.547    16604.688    11197.018     6487.889        4.025        1.714      182.570       48.067        0.069      350.690       32.040      861.091
06/08/2013  13:14:00      141.319      137.988      110.496      134.792      111.904       93.160    18168.861    12522.563     8678.719        4.529        1.969      197.514       81.289        0.169      350.481       31.675      861.087
06/08/2013  13:15:00        9.671      -35.803       49.091       40.930       63.711       42.297     1675.257     4059.100     1789.076        0.565        0.376       37.086       30.953        0.697      350.341       31.434      861.101
06/08/2013  13:16:00       28.177        1.967       -7.504       31.531       34.657       38.144      994.220     1201.080     1454.990        0.225        0.183       28.245       22.399        0.629      350.284       31.336      861.102
06/08/2013  13:17:00      -11.375       67.740       -8.926       44.422       49.338       28.416     1973.290     2434.224      807.443        0.501        0.261       68.689       17.592        0.066      350.401       31.539      861.079
06/08/2013  13:18:00      -33.050       39.689       14.718       32.916       28.754       27.856     1083.462      826.772      775.955        0.278        0.134       51.648       22.664        0.193      350.931       32.462      861.033
06/08/2013  13:19:00      -93.204       56.057      -12.661       53.918       28.875       31.009     2907.105      833.779      961.569        0.835        0.235      108.763       33.290        0.094      350.464       31.649      861.002
06/08/2013  13:20:00     -116.874       91.611      -24.156       39.143       50.583       29.372     1532.194     2558.594      862.696        1.379        0.248      148.499       20.588        0.019      350.466       31.652      860.970
06/08/2013  13:21:00      -12.331       41.737       26.394       31.113       31.931       25.418      968.001     1019.583      646.079        0.261        0.132       43.521       21.967        0.255      351.414       33.303      860.945
06/08/2013  13:22:00      -51.823      -23.996        8.592       56.439       29.591       23.758     3185.387      875.599      564.444        0.398        0.231       57.109       22.419        0.154      350.892       32.394      860.919
06/08/2013  13:23:00      -49.158      -35.372        6.003       54.526       32.493       23.753     2973.035     1055.770      564.229        0.415        0.230       60.561       23.634        0.152      350.797       32.227      860.892
06/08/2013  13:24:00       -5.601       18.431       48.192       49.851       51.887       33.757     2485.092     2692.234     1139.519        0.450        0.316       19.263       31.485        2.672      350.817       32.264      860.885
06/08/2013  13:25:00      142.644     -185.464      -32.473      113.439      148.070       60.794    12868.431    21924.805     3695.870        4.714        1.924      233.975       74.932        0.103      350.383       31.506      860.872
06/08/2013  13:26:00      103.238     -100.496       23.299       98.035      162.312      108.149     9610.864    26345.236    11696.257        3.447        2.383      144.075      117.186        0.662      350.582       31.852      860.852
06/08/2013  13:27:00       -3.191      -63.662        3.705       43.617       81.587       35.483     1902.470     6656.373     1259.011        0.695        0.491       63.742       43.255        0.460      350.563       31.821      860.860
06/08/2013  13:28:00       74.106      -95.356       -2.994       69.856       86.652       42.373     4879.930     7508.486     1795.453        1.439        0.709      120.766       53.189        0.194      350.650       31.970      860.847
06/08/2013  13:29:00       43.801      -58.697       12.645       51.526       59.653       34.871     2654.897     3558.507     1215.991        0.648        0.371       73.238       42.112        0.331      350.550       31.799      860.850
06/08/2013  13:30:00       29.875      -16.322       33.578       42.384       54.503       29.389     1796.442     2970.571      863.721        0.396        0.282       34.043       25.572        0.564      350.715       32.086      860.838
06/08/2013  13:31:00       86.753      -41.565       23.186       65.927       44.023       41.365     4346.368     1938.022     1711.024        0.889        0.400       96.197       41.595        0.187      350.523       31.750      860.808
06/08/2013  13:32:00      121.860     -148.503        5.994       59.111       90.545       51.000     3494.135     8198.308     2601.006        2.561        0.715      192.102       51.730        0.073      350.494       31.697      860.790
06/08/2013  13:33:00       70.547      -69.366        3.775       80.643       74.755       49.974     6503.241     5588.333     2497.400        1.219        0.729       98.937       61.433        0.386      350.708       32.071      860.776
06/08/2013  13:34:00       31.630      -58.969        6.782       38.105       56.259       40.160     1451.964     3165.125     1612.786        0.538        0.311       66.917       37.592        0.316      350.317       31.393      860.755
06/08/2013  13:35:00       46.277       24.913       46.828       53.964       60.536       44.177     2912.112     3664.643     1951.604        0.674        0.426       52.557       42.484        0.653      350.709       32.075      860.755
06/08/2013  13:36:00      154.122      108.017      112.246      127.105      114.046       83.586    16155.638    13006.377     6986.561        4.208        1.807      188.206       73.466        0.152      350.552       31.798      860.747
06/08/2013  13:37:00      149.052      124.458      105.942      109.640       82.973       79.722    12021.034     6884.532     6355.526        3.709        1.263      194.181       68.926        0.126      350.524       31.749      860.740
06/08/2013  13:38:00      233.499      112.552       50.230      116.813      122.370       90.261    13645.218    14974.344     8146.960        5.323        1.838      259.210       70.007        0.073      350.513       31.730      860.715
06/08/2013  13:39:00      178.669       97.132       33.460      123.928       91.224       52.902    15358.166     8321.869     2798.619        3.447        1.324      203.364       22.690        0.012      350.777       32.192      860.699
06/08/2013  13:40:00      223.558       90.578       29.689      129.823      109.470       71.721    16853.913    11983.689     5143.880        4.652        1.699      241.210       42.784        0.031      350.762       32.163      860.677
06/08/2013  13:41:00      181.896       83.316       34.036      127.267       86.127       58.155    16196.843     7417.813     3382.010        3.409        1.350      200.069       34.326        0.029      350.900       32.404      860.680
06/08/2013  13:42:00      266.623      154.961       15.299      102.273       75.843       65.337    10459.696     5752.160     4268.958        5.790        1.024      308.384       49.506        0.026      350.706       32.065      860.673
06/08/2013  13:43:00      189.729      124.855       48.519      106.818       69.174       86.193    11410.027     4784.993     7429.214        3.878        1.181      227.125       72.222        0.101      350.625       31.924      860.666
06/08/2013  13:44:00       83.638       -9.633       63.841       94.019      108.229       66.067     8839.497    11713.509     4364.894        1.804        1.246       84.191       73.912        0.771      350.729       32.108      860.675
06/08/2013  13:45:00       79.462       -0.072       64.475       94.846       99.934       60.797     8995.752     9986.880     3696.259        1.657        1.134       79.462       64.043        0.650      350.386       31.513      860.693
06/08/2013  13:46:00       84.632       78.387       94.958       95.920       83.859       58.070     9200.606     7032.340     3372.175        2.096        0.980      115.357       51.972        0.203      350.631       31.937      860.663
06/08/2013  13:47:00       24.313       75.098      101.933       52.669       80.927       43.016     2774.072     6549.131     1850.375        1.390        0.559       78.936       42.515        0.290      350.467       31.652      860.665
06/08/2013  13:48:00       81.004     -105.794       11.272       49.249       79.983       34.706     2425.475     6397.273     1204.489        1.395        0.501      133.244       35.930        0.073      350.538       31.776      860.674
06/08/2013  13:49:00       -0.980      -28.749       11.290       60.446       40.657       24.098     3653.755     1652.970      580.722        0.342        0.294       28.766       25.339        0.776      350.499       31.710      860.661
06/08/2013  13:50:00      -38.596      -20.821       13.204       43.198       30.114       27.145     1866.044      906.863      736.854        0.280        0.175       43.854       15.066        0.118      351.133       32.813      860.623
06/08/2013  13:51:00      -13.703      -53.740       16.326       63.094      121.369       42.750     3980.834    14730.487     1827.553        1.194        1.027       55.460       42.724        0.593      350.957       32.505      860.583
06/08/2013  13:52:00       99.363     -221.235      -47.986       71.072       72.430       45.516     5051.220     5246.084     2071.665        3.674        0.618      242.524       29.165        0.014      350.600       31.881      860.556
06/08/2013  13:53:00        7.776     -106.995       -8.085       62.268       63.599       39.396     3877.281     4044.818     1552.054        1.052        0.474      107.277       33.165        0.096      350.772       32.182      860.574
06/08/2013  13:54:00      -45.911      -35.303        7.762       70.269       57.431       30.387     4937.714     3298.355      923.394        0.629        0.458       57.915       11.746        0.041      350.794       32.222      860.560
06/08/2013  13:55:00      -75.923      -23.699       -4.919       69.041       50.370       27.710     4766.632     2537.185      767.862        0.721        0.404       79.536       24.419        0.094      350.725       32.102      860.545
06/08/2013  13:56:00       19.219        3.949       16.807       38.348       33.283       21.079     1470.563     1107.767      444.335        0.184        0.151       19.621       16.138        0.676      350.973       32.535      860.547
06/08/2013  13:57:00      -19.672       -7.120        0.632       46.338       34.247       26.997     2147.228     1172.836      728.825        0.224        0.202       20.921       22.845        1.192      350.611       31.903      860.541
06/08/2013  13:58:00      119.527       64.563       21.860       61.801       42.051       34.063     3819.367     1768.271     1160.281        1.284        0.337      135.849       23.198        0.029      350.884       32.378      860.559
06/08/2013  13:59:00      152.593      -32.237       10.711       86.956       87.195       45.659     7561.307     7602.917     2084.724        2.084        0.862      155.961       34.872        0.050      350.811       32.250      860.561
06/08/2013  14:00:00      107.594      -79.940        3.383       91.252       85.410       58.883     8326.965     7294.888     3467.182        1.853        0.954      134.041       61.158        0.208      350.949       32.491      860.521
06/08/2013  14:01:00      174.223     -184.288        3.687       84.599      194.269       71.258     7156.967    37740.449     5077.638        5.714        2.499      253.605       91.655        0.131      350.710       32.073      860.509
06/08/2013  14:02:00       43.597      -71.596       13.974       85.567      193.679       68.434     7321.687    37511.460     4683.165        2.836        2.476       83.825       87.200        1.082      350.981       32.546      860.479
06/08/2013  14:03:00       96.424      -18.358       46.311       86.080      135.012       73.720     7409.684    18228.326     5434.632        2.142        1.554       98.156       39.295        0.160      351.377       33.236      860.497
06/08/2013  14:04:00      204.649       89.914       37.540      170.396      140.612       62.935    29034.887    19771.662     3960.834        5.206        2.638      223.530       34.680        0.024      351.484       33.422      860.515
06/08/2013  14:05:00      174.253       76.508       15.728      118.623      112.200       61.393    14071.453    12588.849     3769.083        3.344        1.521      190.309       23.308        0.015      351.329       33.151      860.522
06/08/2013  14:06:00      201.256      116.180       52.800      115.415       96.746       86.782    13320.703     9359.798     7531.062        4.349        1.511      232.383       52.875        0.052      351.160       32.858      860.513
06/08/2013  14:07:00      234.841      139.449       36.374      156.781       98.599      100.369    24580.240     9721.702    10073.890        6.014        2.219      273.124       29.659        0.012      350.988       32.557      860.508
06/08/2013  14:08:00       64.037       94.245       84.340      107.278       67.191       73.157    11508.636     4514.658     5351.942        2.073        1.069      113.943       69.364        0.371      351.427       33.324      860.514
06/08/2013  14:09:00       65.010       50.889      113.768       75.367       88.523       59.607     5680.160     7836.382     3553.004        1.841        0.853       82.559       60.394        0.535      351.073       32.706      860.551
06/08/2013  14:10:00       69.574        7.026       37.412       70.436       41.734       31.188     4961.277     1741.692      972.674        0.698        0.384       69.928       22.066        0.100      350.647       31.966      860.549
06/08/2013  14:11:00       97.544       13.357       44.255       58.176       57.070       47.719     3384.489     3257.038     2277.080        1.028        0.446       98.454       33.790        0.118      350.395       31.526      860.536
06/08/2013  14:12:00       81.871      -63.283       21.652       85.360       84.683       50.327     7286.321     7171.168     2532.802        1.408        0.850      103.477       55.402        0.287      350.649       31.970      860.521
06/08/2013  14:13:00        3.256      -19.253       10.889       52.163       48.376       34.354     2720.995     2340.244     1180.196        0.337        0.312       19.527       31.230        2.558      350.888       32.387      860.536
06/08/2013  14:14:00       -8.118      -71.844       17.953       58.809       70.384       46.380     3458.453     4953.898     2151.081        0.805        0.528       72.301       32.979        0.208      351.132       32.813      860.479
06/08/2013  14:15:00       64.688       48.323       59.178       78.994       75.379       48.960     6240.004     5682.044     2397.120        1.217        0.716       80.744       36.556        0.205      350.751       32.146      860.476
06/08/2013  14:16:00       88.479      -80.281       22.154      103.348      133.033       72.420    10680.808    17697.704     5244.700        2.419        1.681      119.472       68.127        0.325      350.861       32.336      860.467
06/08/2013  14:17:00       49.599     -164.549       -9.510       50.816      108.594       61.681     2582.273    11792.589     3804.583        2.390        0.909      171.862       60.704        0.125      351.134       32.812      860.464
06/08/2013  14:18:00      155.310      121.114       36.951      107.578       99.926       69.732    11573.025     9985.196     4862.526        3.328        1.321      196.951       39.699        0.041      350.776       32.187      860.464
06/08/2013  14:19:00      111.187       56.093       68.855       89.031      128.617       69.711     7926.493    16542.284     4859.582        2.478        1.466      124.535       66.392        0.284      350.657       31.980      860.444
06/08/2013  14:20:00       75.119      -82.793       27.029       85.303      126.559       59.086     7276.683    16017.166     3491.210        2.000        1.339      111.792       73.899        0.437      350.873       32.358      860.446
06/08/2013  14:21:00      118.426     -236.490      -10.797       58.641       75.498       49.836     3438.782     5699.973     2483.650        4.084        0.581      264.485       35.174        0.018      350.812       32.248      860.453
06/08/2013  14:22:00      112.938     -156.560        7.601       85.709      112.506       56.801     7345.985    12657.518     3226.327        3.027        1.161      193.044       61.518        0.102      351.057       32.677      860.438
06/08/2013  14:23:00       88.955       -7.859       50.691       89.579      123.682       83.568     8024.308    15297.275     6983.624        2.042        1.515       89.302       89.984        1.015      351.114       32.779      860.409
06/08/2013  14:24:00       80.557       23.240       82.492      102.044      115.577       87.220    10412.879    13358.128     7607.275        2.260        1.569       83.842       93.489        1.243      350.952       32.496      860.384
06/08/2013  14:25:00       89.726     -151.722        2.679       79.581       72.815       60.347     6333.143     5302.014     3641.791        2.317        0.764      176.268       61.120        0.120      351.078       32.715      860.387
06/08/2013  14:26:00       38.385      -43.917       68.749      113.713      120.727       81.112    12930.619    14574.932     6579.088        2.110        1.704       58.328       68.993        1.399      351.303       33.107      860.374
06/08/2013  14:27:00       44.781      -77.969       26.708       63.483       86.326       68.118     4030.122     7452.157     4640.042        1.246        0.806       89.914       51.945        0.334      351.296       33.097      860.404
06/08/2013  14:28:00        8.797       42.477       12.931       50.445       39.490       36.849     2544.656     1559.428     1357.872        0.375        0.273       43.379       29.488        0.462      350.655       31.982      860.399
06/08/2013  14:29:00      -63.637      126.575      -14.122       51.583       69.452       33.853     2660.820     4823.572     1146.050        1.445        0.432      141.671       41.643        0.086      351.020       32.616      860.354
06/08/2013  14:30:00       20.423      -34.075       17.566       39.692       57.639       23.932     1575.426     3322.281      572.742        0.368        0.274       39.727       26.857        0.457      351.388       33.259      860.345
06/08/2013  14:31:00       20.848      -19.024       34.651       32.935       36.801       24.979     1084.709     1354.312      623.935        0.253        0.153       28.223       18.772        0.442      351.381       33.246      860.313
06/08/2013  14:32:00       33.351       11.354       38.502       29.317       38.689       24.797      859.483     1496.858      614.891        0.285        0.149       35.230       21.613        0.376      350.912       32.429      860.316
06/08/2013  14:33:00      113.431       67.824       36.478       62.075       59.842       46.476     3853.350     3581.123     2160.008        1.419        0.480      132.162       20.621        0.024      350.875       32.363      860.296
06/08/2013  14:34:00      235.010     -182.399      -19.285      150.207      153.267       72.401    22562.036    23490.679     5241.953        7.007        2.565      297.488       65.470        0.048      351.094       32.743      860.278
06/08/2013  14:35:00       87.118       74.380      125.985       87.135      117.638       81.428     7592.537    13838.730     6630.452        2.852        1.403      114.551       79.629        0.483      351.231       32.981      860.268
06/08/2013  14:36:00      124.954     -140.004       10.661      108.415      117.836       69.348    11753.878    13885.417     4809.211        3.288        1.522      187.656       82.708        0.194      351.306       33.111      860.278
06/08/2013  14:37:00      145.187      -59.239       37.825      105.288       92.976       65.884    11085.571     8644.575     4340.762        2.504        1.204      156.807       60.169        0.147      350.679       32.019      860.268
06/08/2013  14:38:00      136.147       -5.901       57.513      111.644      131.247       74.233    12464.406    17225.806     5510.595        2.853        1.760      136.275       65.269        0.229      351.003       32.584      860.255
06/08/2013  14:39:00      189.115     -250.599      -62.347       85.879      106.195       54.691     7375.252    11277.465     2991.071        6.204        1.082      313.949       46.474        0.022      350.847       32.311      860.261
06/08/2013  14:40:00       54.317      -71.788       28.814      104.553      102.620       68.386    10931.252    10530.944     4676.594        1.753        1.307       90.022       65.398        0.528      351.387       33.255      860.249
06/08/2013  14:41:00      -33.377       10.262       33.325       81.672       45.787       46.194     6670.269     2096.428     2133.866        0.661        0.545       34.919       47.801        1.874      351.589       33.608      860.217
06/08/2013  14:42:00       89.086        1.896       13.819       86.738      104.493       49.575     7523.395    10918.809     2457.677        1.451        1.045       89.107       43.634        0.240      350.903       32.411      860.202
06/08/2013  14:43:00       79.974       -3.554       72.481       86.194      137.383       66.057     7429.346    18874.223     4363.523        2.116        1.533       80.053       64.600        0.651      350.948       32.490      860.183
06/08/2013  14:44:00       35.842      -96.432       19.437       54.455       87.986       49.120     2965.326     7741.538     2412.804        1.204        0.656      102.877       53.286        0.268      350.974       32.535      860.199
06/08/2013  14:45:00       67.661     -168.058        0.197       86.254       72.309       55.298     7439.789     5228.546     3057.875        2.427        0.786      181.167       52.607        0.084      351.438       33.342      860.200
06/08/2013  14:46:00       92.315     -118.876        6.996       76.963      143.079       65.681     5923.278    20471.730     4314.046        2.670        1.535      150.511       88.246        0.344      351.546       33.530      860.201
06/08/2013  14:47:00       26.736       -9.990       27.091       42.969      103.086       33.550     1846.294    10626.803     1125.607        0.757        0.680       28.542       41.150        2.079      351.401       33.280      860.206
06/08/2013  14:48:00       32.205       63.426       60.884       55.969       62.442       54.773     3132.487     3899.055     3000.058        0.940        0.502       71.133       47.744        0.450      351.238       32.996      860.185
06/08/2013  14:49:00       73.581       99.167      101.648       61.728       80.407       56.395     3810.403     6465.343     3180.344        1.952        0.673      123.484       52.633        0.182      350.588       31.863      860.169
06/08/2013  14:50:00       30.748      -34.988       15.209       34.034       47.382       35.790     1158.319     2245.034     1280.958        0.354        0.234       46.579       28.616        0.377      350.849       32.318      860.171
06/08/2013  14:51:00       91.935       34.467       21.445       44.656       58.712       32.022     1994.139     3447.040     1025.429        0.828        0.323       98.184       23.460        0.057      350.750       32.147      860.174
06/08/2013  14:52:00      -10.134       22.689       26.688       29.789       37.932       32.626      887.392     1438.852     1064.424        0.236        0.170       24.849       19.830        0.637      351.252       33.020      860.162
06/08/2013  14:53:00       61.904      -90.304       -7.599       62.493      109.028       33.951     3905.359    11887.123     1152.653        1.449        0.847      109.485       23.464        0.046      351.205       32.936      860.151
06/08/2013  14:54:00      102.380     -177.279        1.671       56.735       85.901       33.877     3218.855     7378.971     1147.651        2.683        0.587      204.718       28.471        0.019      351.199       32.924      860.122
06/08/2013  14:55:00       65.905        5.050       41.754       53.886       44.028       32.013     2903.718     1938.507     1024.848        0.599        0.293       66.098       28.491        0.186      351.057       32.681      860.103
06/08/2013  14:56:00       87.353      -97.077        0.601       78.376       86.097       45.823     6142.764     7412.633     2099.748        1.635        0.783      130.593       34.940        0.072      351.562       33.560      860.101
06/08/2013  14:57:00      108.773       -7.151       28.562       64.165       80.853       49.596     4117.206     6537.266     2459.799        1.290        0.656      109.008       41.498        0.145      351.301       33.105      860.101
06/08/2013  14:58:00      129.845     -121.979       -1.477       62.338       89.027       52.260     3886.009     7925.750     2731.104        2.314        0.727      178.154       45.313        0.065      351.267       33.044      860.103
06/08/2013  14:59:00      -16.022       -5.693       14.257       52.851       32.391       25.454     2793.208     1049.206      647.884        0.249        0.225       17.004       18.832        1.227      351.278       33.066      860.113
06/08/2013  15:00:00        5.927       33.627       36.423       28.591       23.966       21.701      817.469      574.377      470.941        0.218        0.093       34.145       12.268        0.129      351.211       32.948      860.102
06/08/2013  15:01:00       78.338       12.657       33.077       82.186       55.946       43.427     6754.576     3129.969     1885.878        0.958        0.589       79.354       46.914        0.350      350.673       32.012      860.089
06/08/2013  15:02:00       74.813       -5.949       36.343       65.636       49.790       41.365     4308.090     2479.076     1711.092        0.772        0.425       75.049       33.062        0.194      350.827       32.279      860.083
06/08/2013  15:03:00      149.938       31.213       34.158       71.598      103.227       51.175     5126.243    10655.791     2618.897        2.151        0.920      153.153       56.948        0.138      350.780       32.196      860.075
06/08/2013  15:04:00       99.325       59.437       46.334       73.603       44.735       38.969     5417.340     2001.219     1518.589        1.224        0.447      115.751       29.326        0.064      351.056       32.677      860.079
06/08/2013  15:05:00       46.922       41.751       45.117       61.790       50.197       46.621     3817.965     2519.703     2173.516        0.724        0.426       62.807       39.996        0.406      351.068       32.699      860.070
06/08/2013  15:06:00       29.926       49.594       -0.247       59.127       37.156       31.506     3496.021     1380.572      992.655        0.461        0.293       57.923       31.049        0.287      351.273       33.055      860.078
06/08/2013  15:07:00       61.607       49.943       24.265       45.966       29.154       33.998     2112.889      849.957     1155.834        0.550        0.206       79.307       23.081        0.085      351.295       33.096      860.072
06/08/2013  15:08:00      -29.201        6.482       12.431       51.236       56.692       37.970     2625.111     3213.958     1441.729        0.416        0.364       29.912       35.651        1.421      351.521       33.490      860.067
06/08/2013  15:09:00       35.325      -67.818       23.624       63.404       56.816       53.925     4020.086     3228.014     2907.950        0.828        0.508       76.467       40.259        0.277      351.588       33.607      860.042
06/08/2013  15:10:00       12.014      -41.902        9.497       39.121       65.888       31.338     1530.461     4341.185      982.049        0.442        0.343       43.590       29.294        0.452      351.584       33.600      860.040
06/08/2013  15:11:00       29.136     -115.777       15.095       62.882       81.947       53.241     3954.086     6715.273     2834.568        1.399        0.675      119.387       35.825        0.090      351.335       33.164      860.022
06/08/2013  15:12:00       10.742     -107.568       13.684       73.517       74.078       67.291     5404.809     5487.550     4528.094        1.364        0.771      108.103       47.775        0.195      351.532       33.509      860.008
06/08/2013  15:13:00      -39.504     -103.233       -3.129       51.462       46.162       35.088     2648.289     2130.887     1231.179        0.912        0.301      110.533       21.071        0.036      351.587       33.604      860.016
06/08/2013  15:14:00      -40.890     -123.197        2.343       20.354       38.164       24.116      414.305     1456.517      581.573        0.965        0.123      129.805       16.187        0.016      351.065       32.694      860.023
06/08/2013  15:15:00       -5.976        9.492       14.577       18.411       24.187       23.433      338.959      584.992      549.085        0.091        0.074       11.216       16.890        2.268      351.495       33.444      859.996
06/08/2013  15:16:00       43.995       16.369        4.681       24.165       23.471       18.139      583.937      550.866      329.033        0.184        0.073       46.941        1.678        0.001      350.539       31.779      859.976
06/08/2013  15:17:00       25.461        6.493       11.119       22.178       18.516       23.163      491.877      342.832      536.545        0.109        0.069       26.276       10.488        0.159      351.080       32.721      859.974
06/08/2013  15:18:00       70.058        2.896        7.914       29.135       21.656       21.361      848.823      468.973      456.275        0.338        0.089       70.117       10.016        0.020      350.388       31.515      859.974
06/08/2013  15:19:00       72.943       20.542       22.360       32.770       22.296       24.632     1073.873      497.110      606.724        0.421        0.109       75.780       18.151        0.057      350.935       32.468      859.958
06/08/2013  15:20:00       27.098        7.719        5.796       19.426       16.521       15.771      377.359      272.958      248.738        0.086        0.045       28.176        8.670        0.095      350.698       32.055      859.953
06/08/2013  15:21:00       10.459        8.105       23.291       28.400       26.508       23.182      806.585      702.685      537.394        0.138        0.102       13.232       18.187        1.889      351.191       32.915      859.945
06/08/2013  15:22:00       19.178      -24.586       10.059       29.327       56.621       32.821      860.092     3205.993     1077.189        0.311        0.257       31.182       31.989        1.052      351.120       32.792      859.925
06/08/2013  15:23:00       63.046       -5.070       12.792       42.612       49.764       39.819     1815.772     2476.496     1585.527        0.502        0.294       63.249       38.518        0.371      351.176       32.888      859.922
06/08/2013  15:24:00       92.746       34.765       17.184       29.227       35.048       31.054      854.204     1228.337      964.351        0.658        0.152       99.048       15.374        0.024      350.856       32.330      859.902
06/08/2013  15:25:00      109.398       66.081       15.082       55.182       84.795       44.661     3045.047     7190.130     1994.606        1.439        0.611      127.807       25.394        0.039      351.171       32.879      859.882
06/08/2013  15:26:00       69.990       33.995       23.878       62.476       88.657       44.678     3903.198     7860.075     1996.091        1.019        0.688       77.809       14.785        0.036      351.737       33.866      859.877
06/08/2013  15:27:00       27.361        2.111       14.136       49.753       37.554       28.984     2475.386     1410.321      840.086        0.284        0.236       27.442       16.719        0.371      351.725       33.845      859.872
06/08/2013  15:28:00      114.216      107.297       88.359       93.488       83.635       74.185     8740.059     6994.885     5503.458        2.680        1.062      156.710       58.840        0.141      352.008       34.338      859.862
06/08/2013  15:29:00      296.589      181.446       67.351      114.819       68.383       67.642    13183.474     4676.263     4575.402        7.392        1.122      347.689       30.417        0.008      351.414       33.300      859.852
06/08/2013  15:30:00       95.265      226.482       -8.865      108.309      115.300       64.985    11730.943    13294.148     4223.027        4.484        1.462      245.702       57.817        0.055      351.689       33.778      859.856
06/08/2013  15:31:00      117.330       94.830       18.024       89.049       70.239       56.234     7929.687     4933.466     3162.299        1.955        0.801      150.861       41.239        0.075      351.582       33.595      859.853
06/08/2013  15:32:00      105.236       63.670       18.372       69.127       42.520       42.877     4778.505     1807.910     1838.446        1.194        0.421      122.998       31.107        0.064      351.457       33.377      859.835
06/08/2013  15:33:00       91.249       41.867        8.671       66.513       48.944       44.707     4423.949     2395.494     1998.702        0.948        0.441      100.396       25.307        0.064      351.204       32.935      859.822
06/08/2013  15:34:00       52.981       49.802        4.749       73.978       73.764       38.566     5472.784     5441.143     1487.340        0.885        0.620       72.714       29.069        0.160      351.312       33.124      859.807
06/08/2013  15:35:00      -46.841      180.772      -16.602       80.249      103.728       36.414     6439.957    10759.421     1326.006        2.683        0.926      186.742       39.410        0.045      351.669       33.746      859.787
06/08/2013  15:36:00     -178.229      103.772      -38.682       54.641      118.389       39.918     2985.692    14015.932     1593.434        3.131        0.930      206.238       21.386        0.011      351.316       33.130      859.778
06/08/2013  15:37:00     -107.591       56.691       -5.364       68.958       75.672       36.769     4755.169     5726.215     1351.933        1.332        0.592      121.613       36.926        0.092      351.737       33.864      859.755
06/08/2013  15:38:00      -75.663       77.346      -19.531       53.991       75.594       39.617     2915.046     5714.381     1569.517        1.114        0.510      108.200       40.807        0.142      351.620       33.660      859.754
06/08/2013  15:39:00     -162.328      112.119      -29.658       56.353       99.908       42.168     3175.659     9981.628     1778.099        2.736        0.747      197.284       43.412        0.048      351.409       33.292      859.742
06/08/2013  15:40:00     -147.419      154.736      -36.665       55.111       81.708       33.508     3037.236     6676.155     1122.771        2.893        0.542      213.718       27.799        0.017      351.661       33.730      859.737
06/08/2013  15:41:00      -12.468      297.139      -42.261       73.601       89.909       44.705     5417.045     8083.691     1998.561        5.286        0.775      297.400       42.354        0.020      351.466       33.389      859.731
06/08/2013  15:42:00     -137.332      160.090      -21.673       73.360       85.819       49.491     5381.735     7364.886     2449.375        3.007        0.760      210.924       45.079        0.046      351.596       33.617      859.731
06/08/2013  15:43:00      -61.231      175.425       -9.710       65.692       93.115       49.164     4315.479     8670.397     2417.130        2.501        0.770      185.804       47.548        0.065      351.710       33.817      859.737
06/08/2013  15:44:00     -135.977      217.718      -31.508       77.881       87.066       51.664     6065.482     7580.574     2669.212        4.160        0.816      256.692       43.330        0.028      351.409       33.288      859.723
06/08/2013  15:45:00      -73.025      186.457      -19.893       60.621       80.990       41.810     3674.909     6559.410     1748.090        2.624        0.599      200.247       43.075        0.046      351.502       33.454      859.721
06/08/2013  15:46:00      -54.141        5.695      -11.280       42.282       65.081       24.733     1787.747     4235.494      611.711        0.486        0.332       54.440       19.767        0.132      351.339       33.171      859.682
06/08/2013  15:47:00      -95.445       81.441       -6.021       73.420       72.967       39.296     5390.479     5324.241     1544.154        1.402        0.613      125.468       42.739        0.116      351.685       33.775      859.647
06/08/2013  15:48:00      -23.046       29.955       11.993       49.538       29.989       24.137     2454.004      899.314      582.582        0.275        0.197       37.795       26.391        0.488      351.777       33.936      859.621
06/08/2013  15:49:00      -76.904      196.831      -17.993       69.984      144.137       50.034     4897.821    20775.530     2503.376        3.657        1.409      211.321       31.002        0.022      351.704       33.806      859.582
06/08/2013  15:50:00     -249.206      230.169      -27.234      114.932      123.589       68.690    13209.275    15274.349     4718.369        7.451        1.660      339.236       62.148        0.034      351.648       33.706      859.582
06/08/2013  15:51:00     -213.282      148.707      -52.551       96.794      118.272       40.911     9369.047    13988.176     1673.676        4.769        1.252      260.006       52.000        0.040      351.408       33.289      859.593
06/08/2013  15:52:00     -211.913       35.600      -26.145       69.315      143.350       53.429     4804.612    20549.354     2854.639        3.753        1.410      214.882       32.746        0.023      351.775       33.930      859.576
06/08/2013  15:53:00     -188.492      156.632      -32.709       97.502      102.024       57.942     9506.718    10408.983     3357.329        4.220        1.164      245.077       59.372        0.059      351.690       33.780      859.575
06/08/2013  15:54:00     -150.373      184.973      -33.680       60.816       87.390       41.151     3698.543     7637.045     1693.367        3.549        0.651      238.384       37.307        0.024      351.596       33.617      859.576
06/08/2013  15:55:00     -142.136      281.163      -31.565       64.906       99.871       46.925     4212.842     9974.276     2201.926        5.832        0.819      315.048       34.729        0.012      351.457       33.375      859.555
06/08/2013  15:56:00     -221.491      172.667      -33.665       63.135      123.701       50.255     3985.973    15301.989     2525.603        5.091        1.091      280.842       44.982        0.026      351.520       33.485      859.529
06/08/2013  15:57:00     -167.704      121.549      -25.427       79.009      100.248       47.703     6242.400    10049.725     2275.536        3.105        0.928      207.120       48.618        0.055      351.545       33.529      859.502
06/08/2013  15:58:00     -123.808       78.970      -11.337       57.421      125.827       46.106     3297.148    15832.524     2125.778        2.147        1.063      146.849       31.302        0.045      351.722       33.838      859.478
06/08/2013  15:59:00      -17.770       16.598       30.767       65.133       61.485       32.144     4242.361     3780.359     1033.263        0.530        0.453       24.316       34.473        2.010      351.973       34.277      859.472
06/08/2013  16:00:00       27.339      134.833      -15.949       96.630       73.243       47.718     9337.444     5364.603     2276.989        1.808        0.849      137.576       44.994        0.107      351.744       33.876      859.476
06/08/2013  16:01:00      -68.478      256.922      -24.079       71.943       89.756       46.076     5175.829     8056.134     2122.986        4.331        0.768      265.891       44.014        0.027      351.686       33.773      859.497
06/08/2013  16:02:00      -54.093      305.022      -27.295       91.854      110.836       60.301     8437.168    12284.672     3636.168        6.053        1.218      309.781       57.156        0.034      351.636       33.686      859.479
06/08/2013  16:03:00      -95.237      187.658      -19.940       64.136       69.548       48.614     4113.431     4836.985     2363.352        2.800        0.566      210.441       46.251        0.048      351.661       33.730      859.497
06/08/2013  16:04:00      -86.104      113.603       -9.541       52.398       70.684       39.989     2745.562     4996.231     1599.093        1.487        0.467      142.546       29.696        0.043      351.700       33.802      859.505
06/08/2013  16:05:00        7.351       51.302       21.948       24.562       64.729       29.398      603.298     4189.820      864.227        0.441        0.283       51.826       31.792        0.376      351.916       34.179      859.504
06/08/2013  16:06:00      -26.663      174.913      -12.550       57.483       82.928       40.725     3304.280     6877.062     1658.535        2.165        0.592      176.934       35.515        0.040      351.620       33.659      859.498
06/08/2013  16:07:00      -35.077      124.995       -7.515       58.280       77.363       35.736     3396.500     5984.980     1277.030        1.378        0.533      129.824       42.186        0.106      351.649       33.712      859.486
06/08/2013  16:08:00       17.119       82.584       -4.499       31.738       64.813       29.216     1007.296     4200.683      853.600        0.660        0.303       84.339       27.994        0.110      351.645       33.706      859.492
06/08/2013  16:09:00       26.674       42.792       22.022       41.050       34.892       37.689     1685.068     1217.461     1420.493        0.367        0.216       50.425       26.431        0.275      351.858       34.078      859.478
06/08/2013  16:10:00       33.443      197.361      -16.274       57.433       82.665       41.832     3298.585     6833.571     1749.890        2.611        0.594      200.174       42.066        0.044      351.751       33.888      859.466
06/08/2013  16:11:00      166.640       90.132       31.543      108.416       67.549       63.883    11754.099     4562.826     4081.024        2.864        1.020      189.454       29.139        0.024      351.599       33.624      859.461
06/08/2013  16:12:00      282.329      179.492       13.647       94.405       75.557       64.130     8912.343     5708.899     4112.606        6.542        0.937      334.555       29.525        0.008      351.508       33.465      859.432
06/08/2013  16:13:00      183.054      140.281      132.081      124.434      109.526      104.393    15483.799    11995.836    10897.929        5.450        1.919      230.624       84.268        0.134      351.371       33.224      859.428
06/08/2013  16:14:00      184.139      145.532      126.002      107.293       91.012       85.509    11511.705     8283.189     7311.762        4.903        1.355      234.706       71.778        0.094      351.319       33.134      859.434
06/08/2013  16:15:00      182.878       95.046      104.031      113.688      104.487       82.166    12924.865    10917.464     6751.174        4.194        1.530      206.102       73.536        0.127      351.171       32.876      859.437
06/08/2013  16:16:00      133.742       96.797       65.606       88.569       79.303       66.627     7844.483     6289.022     4439.125        2.506        0.929      165.095       54.261        0.108      351.071       32.702      859.450
06/08/2013  16:17:00      123.204        9.690       56.479       98.741       81.580       45.447     9749.776     6655.352     2065.448        1.846        0.924      123.585       48.047        0.151      350.937       32.472      859.438
06/08/2013  16:18:00      117.337       86.331       80.476       77.317       55.113       56.606     5977.966     3037.476     3204.257        1.996        0.611      145.674       45.440        0.097      351.169       32.874      859.447
06/08/2013  16:19:00      116.730       72.860       23.280       42.965       34.377       33.702     1845.964     1181.804     1135.828        1.182        0.208      137.602       25.554        0.034      351.068       32.698      859.453
06/08/2013  16:20:00       17.378       57.503        6.141       28.993       18.068       23.572      840.616      326.467      555.659        0.268        0.086       60.071       13.434        0.050      351.257       33.027      859.428
06/08/2013  16:21:00      -21.448       51.393        8.961       30.708       36.299       25.893      942.980     1317.638      670.434        0.306        0.147       55.689       19.539        0.123      351.883       34.122      859.385
06/08/2013  16:22:00       58.397        1.280       15.426       38.602       42.035       28.249     1490.105     1766.980      798.031        0.385        0.203       58.411       26.954        0.213      350.725       32.103      859.382
06/08/2013  16:23:00      157.770       49.791       29.633      130.175       56.901       43.612    16945.603     3237.780     1901.971        2.516        1.104      165.440       33.431        0.041      350.717       32.089      859.391
06/08/2013  16:24:00      132.651       60.285       75.450       99.743       77.948       61.248     9948.674     6075.821     3751.342        2.335        0.989      145.707       54.664        0.141      351.445       33.354      859.364
06/08/2013  16:25:00       95.605       10.156       61.563      107.770      103.661       65.613    11614.369    10745.563     4305.038        1.984        1.333       96.143       67.765        0.497      351.702       33.803      859.340
06/08/2013  16:26:00      173.809     -134.162        9.017      108.575       96.570       64.846    11788.473     9325.741     4205.067        3.680        1.266      219.565       61.306        0.078      351.713       33.822      859.336
06/08/2013  16:27:00       90.869      -39.056       28.630       71.680      138.990       55.935     5138.023    19318.131     3128.740        1.909        1.379       98.907       58.437        0.349      351.569       33.573      859.330
06/08/2013  16:28:00      164.618      146.384       71.466       61.096       65.482       83.409     3732.692     4287.957     6957.118        3.430        0.749      220.289       44.815        0.041      351.872       34.099      859.345
06/08/2013  16:29:00      296.347      159.188       58.984      108.113       88.993       65.148    11688.346     7919.709     4244.324        7.024        1.193      336.397       52.589        0.024      351.749       33.883      859.331
06/08/2013  16:30:00      147.812       63.589       23.619      112.319       66.990       60.699    12615.604     4487.597     3684.339        2.361        1.039      160.910       56.913        0.125      351.379       33.241      859.337
06/08/2013  16:31:00      142.073      121.106       15.231      104.728       73.541       70.854    10967.936     5408.216     5020.349        2.824        1.070      186.685       44.890        0.058      351.747       33.881      859.339
06/08/2013  16:32:00      194.150      137.963        2.663       93.076       82.598       63.582     8663.204     6822.453     4042.734        3.813        0.976      238.176       38.688        0.026      351.865       34.084      859.325
06/08/2013  16:33:00      146.962       68.818       31.820      103.321       66.895       45.820    10675.288     4475.003     2099.469        2.229        0.862      162.276       23.442        0.021      351.884       34.120      859.333
06/08/2013  16:34:00      134.103       47.716       24.584      106.320       72.231       52.883    11303.985     5217.359     2796.616        2.009        0.966      142.339       48.383        0.116      351.664       33.737      859.333
06/08/2013  16:35:00       40.703       50.893       27.853       62.867       56.476       42.767     3952.274     3189.564     1828.987        0.699        0.449       65.168       36.389        0.312      351.490       33.435      859.340
06/08/2013  16:36:00       42.229       63.340       -1.081       52.101       65.485       38.294     2714.497     4288.285     1466.394        0.713        0.423       76.126       41.719        0.300      351.755       33.898      859.346
06/08/2013  16:37:00       98.791      140.745        0.075       90.602       64.351       55.676     8208.676     4141.013     3099.819        2.251        0.772      171.956       42.403        0.061      351.674       33.753      859.333
06/08/2013  16:38:00       66.099       81.138        4.107       57.874       55.025       37.521     3349.396     3027.758     1407.833        0.938        0.389      104.654       30.468        0.085      351.741       33.873      859.324
06/08/2013  16:39:00       76.723       54.210        1.118       67.814       34.691       25.519     4598.763     1203.437      651.203        0.764        0.323       93.942       21.542        0.053      351.777       33.934      859.316
06/08/2013  16:40:00       17.146       25.557        5.027       17.651       36.197       20.342      311.543     1310.239      413.790        0.150        0.102       30.776       18.591        0.365      351.671       33.750      859.311
06/08/2013  16:41:00        0.338       67.889       -4.743       14.924       19.011       10.158      222.714      361.431      103.182        0.266        0.034       67.890        8.195        0.015      351.553       33.544      859.292
06/08/2013  16:42:00       -4.350       31.666       13.362       14.494       23.180       15.716      210.074      537.314      246.999        0.110        0.050       31.964       14.700        0.212      351.610       33.645      859.274
06/08/2013  16:43:00       25.537        6.796        4.862       28.823       23.583       18.300      830.766      556.171      334.878        0.122        0.086       26.425       15.744        0.355      350.686       32.035      859.255
06/08/2013  16:44:00        6.086       16.367       18.981       14.555       23.936       16.890      211.848      572.928      285.281        0.087        0.054       17.462        9.565        0.300      350.728       32.107      859.256
06/08/2013  16:45:00      -11.056       29.973       20.789       28.086       19.859       16.099      788.808      394.370      259.174        0.145        0.072       31.947       11.785        0.136      351.159       32.857      859.248
06/08/2013  16:46:00       15.729       20.069       12.432       15.407       13.602       14.232      237.382      185.008      202.552        0.071        0.031       25.498        9.550        0.140      350.778       32.194      859.237
06/08/2013  16:47:00       46.123       36.597       28.569       21.694       19.880       24.463      470.651      395.215      598.428        0.287        0.073       58.879       13.362        0.052      350.603       31.890      859.233
06/08/2013  16:48:00      -22.187       99.558       -4.572       36.746       43.783       25.751     1350.258     1916.953      663.094        0.718        0.197      102.001       21.727        0.045      351.536       33.516      859.228
06/08/2013  16:49:00      -52.069       55.822      -17.787       24.310       26.945       21.585      591.000      726.006      465.919        0.396        0.089       76.337       12.907        0.029      351.859       34.080      859.221
06/08/2013  16:50:00     -121.386       14.927      -11.141       29.954       39.250       24.807      897.223     1540.573      615.395        0.907        0.153      122.300       19.326        0.025      352.027       34.372      859.199
06/08/2013  16:51:00     -129.588      -67.217      -12.852       39.464       35.300       27.929     1557.403     1246.093      780.013        1.253        0.179      145.983       25.063        0.029      351.800       33.976      859.193
06/08/2013  16:52:00      -19.837       19.195       25.915       48.890       41.084       31.351     2390.210     1687.902      982.897        0.325        0.253       27.603       22.742        0.679      351.553       33.547      859.193
06/08/2013  16:53:00       43.341     -117.720      -26.573       63.098       70.856       46.112     3981.343     5020.513     2126.306        1.378        0.556      125.445       48.980        0.152      351.275       33.061      859.186
06/08/2013  16:54:00       15.782      -30.386       11.838       37.450       50.074       32.393     1402.535     2507.451     1049.287        0.313        0.248       34.240       23.214        0.460      351.525       33.496      859.184
06/08/2013  16:55:00       -8.570        0.534       38.186       14.136       33.509       18.612      199.820     1122.881      346.399        0.160        0.083        8.587        9.861        1.319      351.544       33.530      859.171
06/08/2013  16:56:00       11.643       19.797       -2.884       20.994       23.658       19.790      440.756      559.716      391.633        0.096        0.070       22.967       15.509        0.456      351.586       33.603      859.164
06/08/2013  16:57:00       41.406       51.421       11.903       53.000       64.894       45.384     2808.986     4211.247     2059.714        0.679        0.454       66.019       40.344        0.373      351.351       33.192      859.153
06/08/2013  16:58:00      168.552      114.737       22.402      100.926       68.344       57.866    10186.095     4670.859     3348.496        3.014        0.910      203.898       32.157        0.025      351.733       33.855      859.132
06/08/2013  16:59:00       79.237      130.293      -15.142       87.865       99.243       46.827     7720.193     9849.175     2192.749        2.162        0.988      152.495       53.735        0.124      351.716       33.827      859.126
06/08/2013  17:00:00       22.320      224.218      -28.090       44.018       84.267       33.191     1937.613     7100.908     1101.626        3.085        0.507      225.326       40.815        0.033      351.669       33.745      859.119
06/08/2013  17:01:00       -6.888      256.663      -31.994       38.867       58.798       26.622     1510.654     3457.158      708.730        3.631        0.284      256.755       28.982        0.013      351.731       33.851      859.106
06/08/2013  17:02:00        8.519      223.847      -38.812       37.584       53.537       19.759     1412.574     2866.182      390.408        2.818        0.233      224.009       22.284        0.010      351.722       33.837      859.115
06/08/2013  17:03:00        2.908      107.753       -7.343       45.404       58.779       34.107     2061.543     3454.948     1163.318        0.918        0.334      107.792       26.435        0.060      351.897       34.145      859.125
06/08/2013  17:04:00       -0.640      -34.713      -17.743       40.490       36.577       29.179     1639.454     1337.885      851.395        0.267        0.191       34.719       18.319        0.278      352.141       34.572      859.102
06/08/2013  17:05:00      -45.918       31.766      -12.377       29.411       52.734       23.141      865.012     2780.878      535.485        0.373        0.209       55.834       22.526        0.163      351.808       33.990      859.073
06/08/2013  17:06:00     -145.464      -54.044      -17.379       62.591       49.772       37.873     3917.688     2477.279     1434.359        1.610        0.391      155.179       26.180        0.028      351.798       33.970      859.057
06/08/2013  17:07:00      -90.792      -23.090      -30.359       34.177       27.281       34.348     1168.040      744.229     1179.791        0.639        0.155       93.682       13.219        0.020      351.628       33.675      859.058
06/08/2013  17:08:00      -35.628       -7.234       -5.504       36.939       38.670       28.002     1364.467     1495.344      784.093        0.250        0.182       36.355       12.800        0.124      351.929       34.202      859.033
06/08/2013  17:09:00      -78.233      -15.292       -3.522       26.106       37.125       29.118      681.517     1378.238      847.885        0.464        0.145       79.713       22.620        0.081      351.989       34.306      859.006
06/08/2013  17:10:00      -36.743      -37.620        0.713       46.231       35.971       25.149     2137.321     1293.911      632.492        0.341        0.203       52.586       21.347        0.165      352.173       34.628      858.993
06/08/2013  17:11:00       -7.911       -8.461       14.975       30.718       32.682       23.173      943.589     1068.085      537.005        0.145        0.127       11.583       12.330        1.133      352.453       35.118      858.986
06/08/2013  17:12:00      -69.221      -22.189       14.542       56.625       39.395       26.454     3206.439     1551.928      699.838        0.548        0.273       72.690       31.279        0.185      352.089       34.481      858.967
06/08/2013  17:13:00      -79.505      -20.252       -1.116       40.460       26.548       17.668     1636.985      704.815      312.161        0.469        0.133       82.044       16.160        0.039      352.074       34.457      858.955
06/08/2013  17:14:00      -53.832       -1.586        6.533       41.750       37.187       22.354     1743.095     1382.879      499.721        0.328        0.181       53.856       22.728        0.178      352.206       34.686      858.942
06/08/2013  17:15:00      -93.299       33.192       -0.611       22.008       19.184       22.691      484.338      368.019      514.874        0.559        0.068       99.027       15.211        0.024      351.793       33.963      858.938
06/08/2013  17:16:00      -91.445       18.955      -11.960       28.677       22.706       24.752      822.349      515.575      612.678        0.541        0.098       93.389       14.627        0.025      351.956       34.249      858.923
06/08/2013  17:17:00      -81.954       -5.312       -2.843       43.699       32.249       24.411     1909.617     1039.985      595.891        0.515        0.177       82.126       19.357        0.056      352.102       34.503      858.911
06/08/2013  17:18:00      -61.729      -12.678        9.894       39.021       32.181       23.122     1522.675     1035.604      534.638        0.358        0.155       63.018       23.044        0.134      352.219       34.710      858.909
06/08/2013  17:19:00      -66.088      -13.223        3.212       52.438       34.346       18.928     2749.722     1179.655      358.268        0.442        0.214       67.398       21.470        0.101      352.069       34.446      858.896
06/08/2013  17:20:00      -40.569      -25.128       -2.541       65.585       26.083       25.112     4301.404      680.326      630.619        0.395        0.281       47.721       23.753        0.248      352.149       34.585      858.865
06/08/2013  17:21:00       50.992       42.848       17.054       51.705       36.409       41.364     2673.387     1325.623     1710.986        0.522        0.285       66.604       30.661        0.212      351.967       34.267      858.870
06/08/2013  17:22:00       92.961       46.765       11.998       57.608       58.236       34.184     3318.694     3391.475     1168.560        0.942        0.394      104.061       25.771        0.061      351.885       34.125      858.863
06/08/2013  17:23:00      132.106       57.832       26.154       83.955       71.097       50.533     7048.435     5054.722     2553.574        1.807        0.733      144.210       48.767        0.114      351.927       34.197      858.856
06/08/2013  17:24:00      142.515       60.441        7.914       48.427       35.558       41.047     2345.200     1264.398     1684.866        1.466        0.265      154.802       24.695        0.025      351.786       33.952      858.848
06/08/2013  17:25:00       16.470        5.746       26.171       26.982       43.902       28.491      728.020     1927.426      811.762        0.223        0.173       17.443       24.847        2.029      352.061       34.431      858.839
06/08/2013  17:26:00       47.213      -11.752       12.968       44.708       59.959       29.806     1998.778     3595.108      888.413        0.451        0.324       48.654       27.708        0.324      351.957       34.251      858.835
06/08/2013  17:27:00       -1.110       53.332       -9.591       43.821       45.730       26.760     1920.294     2091.232      716.096        0.383        0.236       53.344       30.566        0.328      352.023       34.365      858.825
06/08/2013  17:28:00      114.403      110.815        7.682       86.473       39.243       32.330     7477.571     1540.019     1045.260        1.774        0.503      159.273       31.530        0.039      352.025       34.367      858.813
06/08/2013  17:29:00       41.649       31.259       37.709       56.606       67.853       33.465     3204.279     4604.049     1119.916        0.653        0.446       52.074       16.645        0.102      352.490       35.183      858.806
06/08/2013  17:30:00      -73.638       68.778       -4.412       49.208       62.157       36.310     2421.383     3863.512     1318.431        0.889        0.380      100.762       36.551        0.132      352.494       35.189      858.793
06/08/2013  17:31:00      -82.871      179.173      -16.272       52.684       56.124       41.580     2775.610     3149.865     1728.933        2.344        0.383      197.410       38.397        0.038      351.937       34.214      858.805
06/08/2013  17:32:00       28.528      123.843       -2.772       57.995       65.062       46.232     3363.433     4233.120     2137.370        1.294        0.487      127.086       43.506        0.117      351.953       34.243      858.808
06/08/2013  17:33:00       47.441       72.731       -2.637       78.140       80.274       38.736     6105.789     6443.859     1500.482        1.080        0.703       86.836       40.967        0.223      352.042       34.399      858.796
06/08/2013  17:34:00     -133.265      220.437      -39.844       81.362       70.328       39.052     6619.821     4946.065     1525.055        4.051        0.655      257.589       33.754        0.017      351.891       34.132      858.806
06/08/2013  17:35:00      -69.206      254.800      -35.766       48.548       65.896       29.349     2356.895     4342.262      861.377        3.927        0.378      264.031       25.383        0.009      351.754       33.891      858.810
06/08/2013  17:36:00      -63.248      241.265      -30.636       64.995       63.560       32.345     4224.411     4039.934     1046.169        3.623        0.466      249.418       27.980        0.013      351.774       33.927      858.810
06/08/2013  17:37:00      -50.795      154.571      -16.031       67.001       60.788       36.681     4489.091     3695.165     1345.492        1.813        0.476      162.703       33.670        0.043      351.917       34.180      858.805
06/08/2013  17:38:00      -14.420      162.892      -16.779       40.776       61.686       33.575     1662.675     3805.137     1127.253        1.681        0.330      163.529       37.362        0.052      351.944       34.227      858.796
06/08/2013  17:39:00      103.116      120.214       -4.967      107.025       86.786       60.795    11454.334     7531.891     3696.020        2.389        1.134      158.380       44.228        0.078      352.080       34.461      858.777
06/08/2013  17:40:00       51.211      140.434       -9.952       74.299       94.796       62.548     5520.344     8986.247     3912.284        2.043        0.921      149.480       59.835        0.160      351.962       34.259      858.797
06/08/2013  17:41:00       23.201      150.389      -22.334       57.604       60.922       38.998     3318.172     3711.509     1520.840        1.610        0.428      152.168       35.817        0.055      351.897       34.143      858.793
06/08/2013  17:42:00      -21.453      158.383      -19.910       40.759       68.390       33.727     1661.316     4677.216     1137.508        1.671        0.374      159.829       39.746        0.062      351.880       34.115      858.785
06/08/2013  17:43:00        3.886       92.803      -14.755       44.077       59.553       21.458     1942.762     3546.565      460.426        0.740        0.297       92.884       23.411        0.064      351.778       33.939      858.785
06/08/2013  17:44:00      -76.848      123.594      -26.844       53.703      101.844       38.320     2884.050    10372.283     1468.414        1.831        0.736      145.537       40.571        0.078      351.989       34.303      858.764
06/08/2013  17:45:00        4.959      201.318       -8.301       50.054      111.956       44.666     2505.356    12534.141     1995.059        2.882        0.852      201.379       61.390        0.093      352.128       34.546      858.745
06/08/2013  17:46:00       45.863       71.919       -2.396       42.852       57.079       33.476     1836.285     3258.057     1120.623        0.675        0.311       85.298       27.552        0.104      352.277       34.810      858.745
06/08/2013  17:47:00       25.178       29.292       -4.648       40.170       44.961       21.299     1613.646     2021.482      453.652        0.280        0.204       38.626       20.817        0.290      352.291       34.835      858.744
06/08/2013  17:48:00       90.411        9.890       32.378       85.893       76.986       44.183     7377.601     5926.836     1952.098        1.229        0.763       90.950       27.439        0.091      352.220       34.709      858.727
06/08/2013  17:49:00       21.382       56.678       -4.559       37.925       63.617       38.168     1438.339     4047.132     1456.760        0.531        0.347       60.578       43.280        0.510      352.153       34.593      858.732
06/08/2013  17:50:00        8.254      152.008       -6.289       62.156      120.415       48.993     3863.421    14499.787     2400.267        2.198        1.038      152.232       56.690        0.139      352.058       34.424      858.729
06/08/2013  17:51:00       35.445       90.600        0.755       59.650       65.038       43.683     3558.083     4229.930     1908.215        0.958        0.485       97.287       38.646        0.158      352.130       34.554      858.727
06/08/2013  17:52:00      140.539       90.319       16.029      116.400       89.930       56.331    13549.031     8087.492     3173.176        2.648        1.240      167.059       27.345        0.027      352.215       34.700      858.728
06/08/2013  17:53:00      247.061      123.937       29.056      113.089      102.200       71.498    12789.130    10444.768     5112.004        5.279        1.417      276.404       45.827        0.027      351.909       34.160      858.726
06/08/2013  17:54:00      128.489      110.545       11.782       95.589       60.887       50.771     9137.228     3707.205     2577.712        2.214        0.771      169.499       32.688        0.037      351.844       34.051      858.727
06/08/2013  17:55:00       27.916       21.019       21.112       38.081       43.622       30.852     1450.148     1902.909      951.832        0.299        0.215       34.945       23.429        0.450      352.027       34.371      858.714
06/08/2013  17:56:00       55.131       17.963       24.242       42.906       33.738       28.833     1840.935     1138.278      831.335        0.388        0.191       57.984       22.163        0.146      352.106       34.510      858.701
06/08/2013  17:57:00       88.750       62.466       35.094      108.850       80.484       53.499    11848.250     6477.735     2862.192        1.709        1.059      108.529       50.845        0.219      352.150       34.586      858.696
06/08/2013  17:58:00      130.697       78.900       13.988      121.117       72.213       48.812    14669.420     5214.725     2382.567        2.288        1.113      152.666       19.217        0.016      352.072       34.449      858.682
06/08/2013  17:59:00      203.399      164.971       21.369      150.763       94.387       71.111    22729.430     8908.951     5056.731        5.286        1.835      261.890       55.609        0.045      351.895       34.138      858.689
06/08/2013  18:00:00      207.840      132.226        9.790      110.014       69.706       58.605    12103.135     4858.985     3434.593        4.058        1.020      246.336       32.349        0.017      351.768       33.916      858.687
06/08/2013  18:01:00      174.902      113.877       20.598       86.979       72.490       45.970     7565.329     5254.839     2113.249        2.946        0.747      208.707       38.802        0.035      351.881       34.114      858.695
06/08/2013  18:02:00       72.195       82.293        3.653       65.179       51.218       35.118     4248.276     2623.241     1233.252        1.005        0.405      109.473       29.033        0.070      352.015       34.350      858.708
06/08/2013  18:03:00        3.001      143.121      -14.868       45.936       61.295       35.039     2110.078     3757.037     1227.725        1.390        0.355      143.152       37.991        0.070      352.026       34.369      858.705
06/08/2013  18:04:00      -85.633      187.884      -31.614       95.307      105.764       49.750     9083.338    11185.929     2475.109        3.318        1.137      206.479       36.644        0.031      351.874       34.102      858.708
06/08/2013  18:05:00      -23.999      100.188      -13.732       47.180       57.524       28.757     2225.956     3309.055      826.972        0.858        0.318      103.022       32.817        0.101      351.793       33.963      858.732
06/08/2013  18:06:00        7.369      -55.661       10.244       33.404       48.477       25.265     1115.824     2349.979      638.316        0.368        0.205       56.147       14.806        0.070      351.987       34.302      858.699
06/08/2013  18:07:00      -63.071      -34.218       26.648       82.596       56.534       46.469     6822.135     3196.119     2159.398        0.902        0.609       71.755       46.043        0.412      351.941       34.221      858.654
06/08/2013  18:08:00      -33.928      -11.892       14.766       36.565       30.707       19.060     1337.031      942.927      363.300        0.208        0.132       35.952       19.014        0.280      352.145       34.578      858.677
06/08/2013  18:09:00       49.486       46.973       10.788       37.362       32.241       28.291     1395.923     1039.502      800.396        0.400        0.162       68.231        9.281        0.019      351.832       34.031      858.697
06/08/2013  18:10:00      155.576      160.453       -4.908      131.126       86.862       81.523    17194.146     7544.977     6646.050        4.067        1.569      223.493       60.849        0.074      351.820       34.008      858.697
06/08/2013  18:11:00       82.839      190.735        6.312      140.934      120.642       98.962    19862.477    14554.540     9793.560        4.374        2.211      207.947       75.732        0.133      351.789       33.954      858.680
06/08/2013  18:12:00       63.860      175.523      -11.580      100.962      110.275       50.851    10193.420    12160.577     2585.832        2.998        1.247      186.780       50.255        0.072      351.834       34.030      858.696
06/08/2013  18:13:00       56.609      193.702      -30.210       78.172       49.373       34.628     6110.848     2437.690     1199.094        2.569        0.487      201.804       18.164        0.008      351.852       34.065      858.701
06/08/2013  18:14:00      141.472       91.311       47.144      108.731       53.120       49.892    11822.327     2821.777     2489.255        2.385        0.857      168.381       24.811        0.022      351.908       34.163      858.685
06/08/2013  18:15:00      219.048      134.670        7.861      148.063       89.309       70.337    21922.619     7976.043     4947.329        5.051        1.742      257.134       50.073        0.038      351.876       34.106      858.701
06/08/2013  18:16:00      208.708      118.459        8.841       89.658       59.728       45.778     8038.468     3567.490     2095.588        3.568        0.685      239.982       24.447        0.010      351.737       33.865      858.719
06/08/2013  18:17:00       26.711       77.196       -4.039       57.974       74.521       35.150     3360.946     5553.341     1235.527        0.842        0.507       81.687       35.442        0.188      351.851       34.067      858.704
06/08/2013  18:18:00       47.729      100.281        2.988       59.720       70.138       40.449     3566.436     4919.358     1636.112        1.123        0.506      111.060       37.337        0.113      351.771       33.925      858.707
06/08/2013  18:19:00      144.550       80.802       45.920      134.066       66.795       73.017    17973.559     4461.633     5331.430        2.864        1.388      165.601       44.626        0.073      351.845       34.052      858.714
06/08/2013  18:20:00      169.540      110.714       24.930      104.748       86.331       73.318    10972.183     7453.032     5375.500        3.271        1.190      202.488       46.439        0.053      351.804       33.980      858.723
06/08/2013  18:21:00       56.150      114.838       -8.012       84.617       90.242       42.931     7160.054     8143.667     1843.045        1.677        0.857      127.830       44.545        0.121      351.784       33.945      858.740
06/08/2013  18:22:00      215.622      101.591       24.760      128.396       67.480       63.690    16485.550     4553.518     4056.405        4.126        1.255      238.356       56.001        0.055      351.772       33.925      858.745
06/08/2013  18:23:00      163.154       65.202       23.907      105.083       77.218       49.058    11042.346     5962.655     2406.685        2.542        0.971      175.701       35.161        0.040      351.837       34.038      858.735
06/08/2013  18:24:00      141.268       40.647       32.638       96.313       95.947       47.009     9276.193     9205.809     2209.818        2.168        1.035      146.999       53.227        0.131      351.780       33.939      858.741
06/08/2013  18:25:00       27.383       -9.705       40.779       55.021       58.021       28.961     3027.355     3366.426      838.756        0.487        0.362       29.052       25.713        0.783      351.902       34.153      858.712
06/08/2013  18:26:00      -14.097      183.007      -31.238       65.507       80.309       31.039     4291.207     6449.568      963.411        2.318        0.585      183.549       28.464        0.024      351.806       33.983      858.722
06/08/2013  18:27:00       53.887      184.360       -4.061       71.825      105.230       62.157     5158.808    11073.399     3863.540        2.850        1.005      192.074       64.546        0.113      351.796       33.965      858.718
06/08/2013  18:28:00       76.506       73.920       13.198       85.301       62.752       40.891     7276.327     3937.842     1672.061        1.219        0.644      106.383       27.822        0.068      351.888       34.129      858.735
06/08/2013  18:29:00      148.070      104.194       13.054       56.666       46.488       51.558     3211.032     2161.159     2658.265        2.049        0.402      181.056       33.780        0.035      351.940       34.219      858.744
06/08/2013  18:30:00       80.452       43.880       56.025       72.920       57.913       41.977     5317.308     3353.889     1762.050        1.098        0.522       91.641       37.176        0.165      351.922       34.188      858.729
06/08/2013  18:31:00       66.466       42.363       34.155       85.470       43.148       47.362     7305.065     1861.773     2243.153        0.939        0.570       78.819       18.547        0.055      351.981       34.290      858.730
06/08/2013  18:32:00      195.262      108.983       27.451      112.072       91.308       65.056    12560.119     8337.109     4232.300        3.794        1.256      223.617       42.922        0.037      351.968       34.265      858.732
06/08/2013  18:33:00      210.184      118.082       42.302      167.518       64.416       49.690    28062.302     4149.361     2469.058        4.729        1.734      241.082       44.629        0.034      351.903       34.153      858.733
06/08/2013  18:34:00       86.981       20.828       26.370       70.193       53.254       42.004     4927.103     2836.035     1764.313        0.911        0.476       89.440       28.697        0.103      351.924       34.191      858.739
06/08/2013  18:35:00      183.289      116.722       51.552      130.855       84.287       67.108    17123.060     7104.219     4503.434        3.930        1.437      217.299       70.068        0.104      351.847       34.053      858.740
06/08/2013  18:36:00      158.609      113.657        4.123       96.821       62.921       50.531     9374.368     3959.042     2553.409        2.699        0.794      195.127       45.930        0.055      351.791       33.956      858.743
06/08/2013  18:37:00       59.995      118.381      -16.382       66.320       86.100       47.893     4398.402     7413.232     2293.701        1.599        0.705      132.716       51.071        0.148      351.804       33.982      858.750
06/08/2013  18:38:00       86.729      125.808      -13.131       63.493       92.662       53.757     4031.356     8586.167     2889.836        1.951        0.775      152.805       49.770        0.106      351.764       33.913      858.748
06/08/2013  18:39:00       65.055      147.890      -13.193       72.615       78.572       47.451     5272.897     6173.615     2251.590        1.999        0.685      161.567       40.627        0.063      351.801       33.975      858.753
06/08/2013  18:40:00       27.490      127.939      -11.749       72.520      115.180       56.617     5259.196    13266.355     3205.494        1.949        1.087      130.859       55.286        0.178      351.811       33.993      858.747
06/08/2013  18:41:00      141.573      103.676       44.210      124.582       64.288       65.623    15520.630     4133.003     4306.378        2.835        1.198      175.476        5.496        0.001      351.771       33.924      858.734
06/08/2013  18:42:00       65.558      160.427       -7.818       73.211      111.868       49.917     5359.805    12514.386     2491.694        2.523        1.018      173.305       56.294        0.106      351.782       33.942      858.735
06/08/2013  18:43:00      159.481      151.590       17.048      121.709       95.587       66.576    14813.143     9136.927     4432.415        3.854        1.419      220.031       56.889        0.067      351.779       33.937      858.728
06/08/2013  18:44:00      154.113      123.693       15.147       94.945       79.699       65.503     9014.489     6351.905     4290.657        2.946        0.983      197.613       47.212        0.057      351.817       34.003      858.733
06/08/2013  18:45:00      132.593      111.725       24.001       94.633       81.478       68.210     8955.351     6638.598     4652.622        2.544        1.012      173.388       44.850        0.067      351.751       33.890      858.744
06/08/2013  18:46:00      128.780      134.555        4.861      112.445       80.072       65.996    12643.878     6411.557     4355.472        2.906        1.171      186.251       53.050        0.081      351.720       33.837      858.739
06/08/2013  18:47:00      265.812      162.133       21.708      108.063       79.082       71.351    11677.520     6253.901     5091.001        6.021        1.151      311.357       30.077        0.009      351.750       33.884      858.750
06/08/2013  18:48:00      102.073       73.686       36.768       78.612       68.973       50.714     6179.909     4757.278     2571.866        1.535        0.675      125.891       32.784        0.068      351.781       33.941      858.752
06/08/2013  18:49:00      294.781      189.267       35.272      127.567       95.722       76.041    16273.245     9162.614     5782.259        7.758        1.561      350.311       43.279        0.015      351.728       33.847      858.743
06/08/2013  18:50:00      136.390       76.841       46.993      117.812       72.875       51.603    13879.709     5310.797     2662.837        2.428        1.093      156.547       44.129        0.079      351.805       33.981      858.741
06/08/2013  18:51:00      250.767      145.511       34.113       84.703       78.574       61.378     7174.514     6173.849     3767.245        5.117        0.856      289.927       45.914        0.025      351.779       33.935      858.749
06/08/2013  18:52:00      238.236      153.423       31.662       66.432       68.184       51.708     4413.222     4649.045     2673.759        4.651        0.587      283.364       37.256        0.017      351.769       33.919      858.766
06/08/2013  18:53:00      202.541      121.580       24.061       85.244       92.162       45.747     7266.456     8493.879     2092.753        3.711        0.893      236.230       34.868        0.022      351.756       33.898      858.785
06/08/2013  18:54:00      204.313       97.081       26.348       86.242       64.521       57.377     7437.715     4162.908     3292.132        3.337        0.745      226.205       42.460        0.035      351.771       33.922      858.804
06/08/2013  18:55:00      142.764       77.467       16.502       93.913       59.017       46.403     8819.589     3483.029     2153.238        2.055        0.723      162.428       31.726        0.038      351.793       33.959      858.816
06/08/2013  18:56:00       85.184       58.219       24.025       76.472       38.262       33.799     5847.936     1463.981     1142.348        0.984        0.423      103.179       18.300        0.031      351.777       33.937      858.822
06/08/2013  18:57:00       98.909       82.123       13.020       66.499       53.884       46.638     4422.114     2903.506     2175.063        1.310        0.475      128.558       37.864        0.087      351.805       33.985      858.824
06/08/2013  18:58:00      108.482      105.536       35.157       86.063       74.415       54.096     7406.879     5537.592     2926.385        2.000        0.794      151.348       37.259        0.061      351.704       33.809      858.827
06/08/2013  18:59:00      205.545      129.817       34.000      103.855       78.829       80.790    10785.819     6214.037     6527.021        4.189        1.176      243.107       29.070        0.014      351.661       33.730      858.824
06/08/2013  19:00:00      239.983      176.807       29.366      125.967       78.006       78.226    15867.600     6084.881     6119.273        5.889        1.404      298.081       43.745        0.022      351.623       33.667      858.812
06/08/2013  19:01:00      182.341      100.891       30.831       99.659       80.357       69.816     9931.859     6457.297     4874.212        3.282        1.063      208.392       35.928        0.030      351.630       33.677      858.792
06/08/2013  19:02:00       52.225       76.623       -1.069       68.590       68.685       55.475     4704.637     4717.651     3077.491        1.055        0.625       92.728       45.471        0.240      351.694       33.791      858.805
06/08/2013  19:03:00      162.581      116.350       40.018      116.274       93.226       67.972    13519.642     8691.059     4620.177        3.420        1.342      199.925       41.139        0.042      351.654       33.721      858.806
06/08/2013  19:04:00      208.277      138.985       30.219       94.335       76.557       60.517     8899.032     5861.034     3662.312        4.101        0.921      250.393       18.220        0.005      351.654       33.719      858.800
06/08/2013  19:05:00      106.758      104.105       12.477       91.404       49.818       57.509     8354.737     2481.845     3307.235        1.826        0.707      149.114       36.903        0.061      351.630       33.678      858.797
06/08/2013  19:06:00      170.183      155.692       10.443      111.311       84.416       65.282    12390.112     7126.037     4261.796        3.854        1.189      230.656       45.952        0.040      351.612       33.646      858.798
06/08/2013  19:07:00      194.674      141.642       30.941      105.043       77.192       58.253    11033.946     5958.538     3393.426        3.965        1.019      240.750       35.619        0.022      351.572       33.578      858.798
06/08/2013  19:08:00      111.793      103.044       19.575       86.301       61.932       52.769     7447.820     3835.615     2784.531        1.878        0.703      152.039       29.473        0.038      351.601       33.629      858.827
06/08/2013  19:09:00      127.560       76.857       23.569      106.275       61.460       64.843    11294.351     3777.362     4204.609        2.100        0.964      148.924       47.291        0.101      351.602       33.628      858.826
06/08/2013  19:10:00      194.411      100.446       24.689      127.391       70.260       59.305    16228.401     4936.454     3517.104        3.658        1.234      218.827       38.555        0.031      351.586       33.600      858.822
06/08/2013  19:11:00      179.882       97.074       37.823      102.653       80.879       55.751    10537.740     6541.355     3108.152        3.170        1.009      204.403       38.444        0.035      351.575       33.582      858.824
06/08/2013  19:12:00       66.480       83.727       10.682       62.666       73.861       54.349     3926.993     5455.458     2953.777        1.194        0.617      106.910       45.728        0.183      351.609       33.644      858.853
06/08/2013  19:13:00       77.619      105.916        3.740       65.964       66.338       51.617     4351.272     4400.725     2664.339        1.433        0.571      131.312       42.424        0.104      351.529       33.503      858.853
06/08/2013  19:14:00      131.683      108.796        9.047       84.144       92.650       59.751     7080.242     8584.019     3570.240        2.424        0.962      170.812       50.508        0.087      351.517       33.480      858.850
06/08/2013  19:15:00      206.472      165.237       37.881      134.131       81.072       81.036    17991.083     6572.700     6566.822        5.124        1.557      264.450       45.751        0.030      351.456       33.374      858.842
06/08/2013  19:16:00      219.043      133.436       24.200      133.283       82.150       64.518    17764.450     6748.609     4162.544        4.752        1.434      256.486       49.111        0.037      351.458       33.377      858.861
06/08/2013  19:17:00       86.717      108.014       16.496       90.492       86.410       62.246     8188.860     7466.668     3874.573        1.949        0.977      138.517       56.283        0.165      351.449       33.362      858.873
06/08/2013  19:18:00       51.771      169.773       -9.308       62.281      108.279       62.599     3878.956    11724.286     3918.674        2.555        0.976      177.491       58.703        0.109      351.469       33.396      858.870
06/08/2013  19:19:00       57.815      222.072       -7.369       89.419      147.278       78.909     7995.669    21690.870     6226.653        4.431        1.796      229.475       88.304        0.148      351.444       33.354      858.884
06/08/2013  19:20:00      100.713      243.241       11.940      117.860      155.855       98.510    13890.992    24290.827     9704.318        5.866        2.394      263.266      104.039        0.156      351.441       33.347      858.885
06/08/2013  19:21:00       71.112      231.701      -22.317       85.333      121.783       76.396     7281.756    14831.192     5836.417        4.359        1.397      242.368       70.741        0.085      351.456       33.373      858.881
06/08/2013  19:22:00       67.190      208.800        0.924      116.570      138.445       77.833    13588.547    19167.018     6057.910        4.346        1.941      219.345       67.699        0.095      351.457       33.375      858.870
06/08/2013  19:23:00      195.639      149.190       15.702      142.576      101.089       73.288    20328.054    10218.887     5371.159        4.834        1.796      246.033       57.287        0.054      351.424       33.316      858.862
06/08/2013  19:24:00       69.212      136.560       -0.249       86.876      106.177       64.169     7547.520    11273.472     4117.681        2.318        1.147      153.098       44.245        0.084      351.418       33.306      858.861
06/08/2013  19:25:00       50.067      152.895        2.438       55.707       89.814       64.267     3103.217     8066.641     4130.216        2.059        0.765      160.884       61.731        0.147      351.431       33.331      858.879
06/08/2013  19:26:00       81.695      194.473      -23.782       93.152      112.531       72.417     8677.247    12663.297     5244.249        3.582        1.329      210.935       69.997        0.110      351.404       33.282      858.881
06/08/2013  19:27:00       47.560      136.722       -1.920       91.126       97.601       67.854     8304.019     9525.961     4604.219        2.169        1.122      144.758       58.910        0.166      351.401       33.277      858.876
06/08/2013  19:28:00       26.047      246.810      -15.209       73.308      122.983       63.282     5374.085    15124.901     4004.568        4.316        1.225      248.181       71.908        0.084      351.349       33.186      858.882
06/08/2013  19:29:00       49.091      143.533       -0.765       88.010       98.402       67.258     7745.777     9682.912     4523.587        2.248        1.098      151.696       64.064        0.178      351.369       33.222      858.895
06/08/2013  19:30:00       72.791      178.970      -16.615       89.288      120.890       60.742     7972.381    14614.454     3689.551        3.194        1.314      193.207       61.266        0.101      351.362       33.207      858.898
06/08/2013  19:31:00       80.949      168.135        1.842       91.178      123.585       74.334     8313.503    15273.365     5525.595        3.196        1.456      186.607       66.581        0.127      351.370       33.222      858.899
06/08/2013  19:32:00      -10.584      282.104      -24.758       63.040       79.712       53.829     3974.054     6354.020     2897.513        4.676        0.661      282.302       46.608        0.027      351.309       33.115      858.905
06/08/2013  19:33:00       57.461      127.417        6.877       89.139      101.257       65.484     7945.819    10253.033     4288.204        2.103        1.124      139.774       65.683        0.221      351.305       33.111      858.925
06/08/2013  19:34:00      115.768      139.878       18.409      110.049       85.565       62.170    12110.754     7321.288     3865.101        2.830        1.165      181.571       47.695        0.069      351.283       33.072      858.927
06/08/2013  19:35:00       66.852      100.066        8.084       65.089       60.748       44.337     4236.615     3690.329     1965.797        1.222        0.495      120.343       34.285        0.081      351.227       32.976      858.923
06/08/2013  19:36:00      166.362      107.864       28.389       90.028       73.757       59.456     8105.125     5440.113     3535.065        2.860        0.854      198.270       47.042        0.056      351.239       32.996      858.931
06/08/2013  19:37:00      128.727      143.997       25.630      110.623       92.577       83.710    12237.388     8570.592     7007.286        3.288        1.391      193.147       65.902        0.116      351.233       32.984      858.939
06/08/2013  19:38:00       82.774      193.865       -6.785       75.730      132.829       85.361     5734.981    17643.596     7286.458        3.757        1.533      210.796       84.049        0.159      351.224       32.969      858.934
06/08/2013  19:39:00      118.538      183.503        9.950      132.350      125.396       93.054    17516.534    15724.127     8659.090        4.485        2.095      218.459       76.563        0.123      351.235       32.987      858.943
06/08/2013  19:40:00      125.575      140.145       26.209      117.932       83.723       68.579    13907.887     7009.590     4703.030        3.085        1.281      188.175       58.437        0.096      351.225       32.972      858.956
06/08/2013  19:41:00       86.259      214.654      -20.142      100.422      116.413       64.349    10084.633    13552.067     4140.813        4.084        1.389      231.338       62.234        0.072      351.187       32.904      858.956
06/08/2013  19:42:00       48.826      150.599       -0.502       79.159      109.743       55.985     6266.129    12043.546     3134.339        2.325        1.072      158.317       53.082        0.112      351.174       32.882      858.959
06/08/2013  19:43:00       75.901      127.672        7.590       81.373      133.506       77.748     6621.601    17823.733     6044.680        2.630        1.525      148.530       82.671        0.310      351.168       32.872      858.967
06/08/2013  19:44:00       71.200      147.252      -10.525       82.123       86.274       55.864     6744.264     7443.130     3120.836        2.208        0.865      163.562       54.933        0.113      351.152       32.844      858.968
06/08/2013  19:45:00       63.053      215.863      -17.025       73.899      115.964       55.557     5461.051    13447.587     3086.573        3.642        1.100      224.884       51.606        0.053      351.111       32.770      858.968
06/08/2013  19:46:00       32.918      118.151       12.737       75.566      114.863       71.135     5710.177    13193.526     5060.251        1.958        1.198      122.651       68.050        0.308      351.080       32.718      858.966
06/08/2013  19:47:00       84.010      199.607        8.039      120.641      120.436       77.464    14554.170    14504.936     6000.657        4.101        1.753      216.565       82.148        0.144      351.077       32.711      858.979
06/08/2013  19:48:00       37.476      184.843       -4.659       79.786      115.466       76.609     6365.770    13332.351     5868.912        3.057        1.278      188.604       73.426        0.152      351.071       32.702      858.982
06/08/2013  19:49:00       57.645      116.234       11.936       61.753       61.151       63.570     3813.429     3739.439     4041.204        1.428        0.580      129.743       47.512        0.134      351.001       32.582      858.978
06/08/2013  19:50:00       89.659      146.706       24.418       98.719      113.044       78.428     9745.359    12778.943     6150.911        2.941        1.434      171.934       78.116        0.206      351.033       32.634      858.983
06/08/2013  19:51:00       37.272      108.730        3.138       59.022       71.762       48.167     3483.611     5149.841     2320.065        1.209        0.548      114.941       39.304        0.117      350.946       32.486      858.989
06/08/2013  19:52:00       51.237      110.541       14.891       70.252       87.640       60.728     4935.291     7680.833     3687.850        1.568        0.815      121.839       59.543        0.239      350.940       32.475      858.993
06/08/2013  19:53:00       84.253      141.033        3.191       91.256       81.007       75.373     8327.735     6562.068     5681.108        2.378        1.029      164.282       59.476        0.131      350.992       32.564      858.993
06/08/2013  19:54:00       81.739      189.203      -10.574       73.793      119.663       72.865     5445.442    14319.205     5309.330        3.383        1.254      206.104       72.610        0.124      350.958       32.505      859.010
06/08/2013  19:55:00       84.442      154.245       -8.955       78.756       76.526       57.901     6202.511     5856.260     3352.517        2.320        0.771      175.846       53.598        0.093      350.937       32.468      859.012
06/08/2013  19:56:00       28.545      116.555        2.317       51.154      106.757       54.268     2616.767    11397.157     2945.015        1.568        0.848      119.999       57.803        0.232      350.890       32.387      859.026
06/08/2013  19:57:00       49.171      109.412       14.158       69.157       82.141       57.090     4782.667     6747.093     3259.250        1.469        0.739      119.953       51.420        0.184      350.852       32.324      859.030
06/08/2013  19:58:00       40.395      170.035      -12.631       61.653       68.760       45.348     3801.065     4727.991     2056.469        2.064        0.529      174.768       38.865        0.049      350.849       32.316      859.031
06/08/2013  19:59:00       45.685      229.990      -22.741       66.817      105.890       59.812     4464.554    11212.612     3577.489        3.737        0.963      234.484       51.062        0.047      350.905       32.411      859.042
06/08/2013  20:00:00       54.212      151.349      -13.245       69.745      110.448       57.098     4864.431    12198.855     3260.182        2.317        1.016      160.765       59.327        0.136      350.858       32.331      859.033
06/08/2013  20:01:00       43.201      146.356        1.874       64.935      107.365       63.896     4216.617    11527.222     4082.701        2.155        0.991      152.599       70.061        0.211      350.832       32.286      859.047
06/08/2013  20:02:00       45.106      224.177      -10.044       76.965      112.716       68.209     5923.558    12704.971     4652.458        3.783        1.164      228.670       63.533        0.077      350.862       32.337      859.049
06/08/2013  20:03:00       20.998      152.010       -3.782       61.128       82.473       46.368     3736.659     6801.772     2149.973        1.812        0.634      153.454       47.415        0.095      350.748       32.141      859.055
06/08/2013  20:04:00       15.692      103.141        4.092       45.064       80.506       44.400     2030.808     6481.263     1971.391        1.069        0.524      104.328       42.864        0.169      350.734       32.116      859.069
06/08/2013  20:05:00       29.277      192.416      -20.667       65.640      120.604       51.807     4308.590    14545.352     2683.972        2.992        1.077      194.631       55.867        0.082      350.758       32.158      859.066
06/08/2013  20:06:00       31.703      200.850       -8.534       70.783      120.540       61.197     5010.212    14529.904     3745.079        3.235        1.164      203.336       70.697        0.121      350.802       32.235      859.066
06/08/2013  20:07:00       28.837      172.846       -8.826       54.508       93.114       53.860     2971.091     8670.235     2900.847        2.266        0.727      175.235       54.473        0.097      350.722       32.095      859.074
06/08/2013  20:08:00       53.843      103.459       -1.053       60.667       80.145       43.584     3680.474     6423.300     1899.579        1.280        0.600      116.631       43.707        0.140      350.653       31.975      859.081
06/08/2013  20:09:00       42.816      289.667      -29.292       65.786      121.172       54.967     4327.800    14682.723     3021.396        5.431        1.102      292.814       63.179        0.047      350.783       32.200      859.082
06/08/2013  20:10:00        4.385      258.655      -30.075       56.816      100.198       41.715     3228.085    10039.662     1740.153        4.141        0.750      258.692       41.617        0.026      350.718       32.086      859.094
06/08/2013  20:11:00       54.736      150.821       -5.050       74.898       86.605       53.647     5609.703     7500.464     2878.052        2.088        0.799      160.446       53.623        0.112      350.684       32.029      859.097
06/08/2013  20:12:00       23.655      224.322      -38.432       57.506      105.907       43.565     3306.913    11216.328     1897.894        3.439        0.821      225.566       46.101        0.042      350.728       32.104      859.104
06/08/2013  20:13:00       56.525      161.408      -10.493       68.998       81.490       47.452     4760.738     6640.693     2251.691        2.150        0.683      171.019       45.759        0.072      350.637       31.945      859.123
06/08/2013  20:14:00       43.973      213.754      -20.848       66.873       97.536       56.859     4472.035     9513.271     3232.898        3.264        0.861      218.230       55.028        0.064      350.654       31.974      859.120
06/08/2013  20:15:00       66.116      141.666       -7.368       68.377       94.650       55.356     4675.402     8958.564     3064.323        2.059        0.835      156.335       48.807        0.097      350.597       31.878      859.143
06/08/2013  20:16:00       91.218      209.941      -21.738       87.909      128.401       85.994     7727.967    16486.924     7395.035        4.223        1.580      228.901       90.149        0.155      350.659       31.984      859.135
06/08/2013  20:17:00       44.727      215.283      -18.592       66.737      111.350       61.629     4453.814    12398.847     3798.188        3.467        1.033      219.880       61.113        0.077      350.608       31.896      859.148
06/08/2013  20:18:00       70.768      109.888        8.216       63.552       76.009       70.149     4038.887     5777.316     4920.943        1.594        0.737      130.704       56.554        0.187      350.583       31.855      859.136
06/08/2013  20:19:00       23.445      117.966        7.005       63.281       82.434       58.689     4004.434     6795.381     3444.367        1.438        0.712      120.273       50.466        0.176      350.579       31.848      859.132
06/08/2013  20:20:00       53.402      161.025      -12.835       80.425       98.030       55.454     6468.202     9609.917     3075.134        2.405        0.958      169.649       52.515        0.096      350.550       31.796      859.146
06/08/2013  20:21:00       15.533      247.693      -22.887       60.670      141.394       60.455     3680.862    19992.242     3654.796        4.472        1.366      248.180       73.920        0.089      350.578       31.844      859.144
06/08/2013  20:22:00       53.347      201.490       -6.388       78.325       99.501       74.568     6134.846     9900.539     5560.391        3.254        1.080      208.433       67.466        0.105      350.583       31.854      859.152
06/08/2013  20:23:00       23.481      127.399       -4.458       61.826       99.791       58.634     3822.430     9958.283     3437.966        1.701        0.861      129.545       58.684        0.205      350.530       31.759      859.162
06/08/2013  20:24:00       26.761      191.888       -8.252       60.643       85.321       55.443     3677.552     7279.634     3073.919        2.582        0.702      193.745       48.678        0.063      350.510       31.726      859.164
06/08/2013  20:25:00       30.200      322.384      -33.449       61.612      103.192       57.565     3795.991    10648.601     3313.767        6.186        0.888      323.795       60.199        0.035      350.599       31.879      859.163
06/08/2013  20:26:00       25.920      210.041       -9.432       70.299      152.176       53.855     4941.935    23157.631     2900.408        3.793        1.550      211.635       69.008        0.106      350.538       31.776      859.172
06/08/2013  20:27:00       78.420      102.663       15.458       83.389       80.936       61.791     6953.687     6550.632     3818.116        1.712        0.866      129.188       53.123        0.169      350.531       31.762      859.174
06/08/2013  20:28:00       30.663      210.744      -22.032       64.230      153.992       58.944     4125.480    23713.487     3474.374        3.857        1.566      212.963       77.475        0.132      350.473       31.660      859.176
06/08/2013  20:29:00       37.754      220.722      -20.704       86.939      100.078       61.339     7558.463    10015.546     3762.516        3.595        1.067      223.928       62.349        0.078      350.484       31.679      859.180
06/08/2013  20:30:00       45.128      172.156       -9.243       66.882      101.619       63.466     4473.166    10326.496     4027.899        2.529        0.941      177.972       64.300        0.131      350.420       31.569      859.175
06/08/2013  20:31:00       19.523      130.350        7.817       63.013       96.608       55.310     3970.663     9333.131     3059.146        1.689        0.818      131.804       52.797        0.160      350.375       31.493      859.178
06/08/2013  20:32:00       27.505      314.190      -40.786       76.364      143.790       61.371     5831.514    20675.482     3766.344        6.570        1.514      315.391       78.733        0.062      350.534       31.766      859.176
06/08/2013  20:33:00       29.191      198.568       -4.769       76.853       97.711       55.963     5906.322     9547.350     3131.821        2.944        0.929      200.702       51.348        0.065      350.437       31.599      859.182
06/08/2013  20:34:00       37.614      189.627       -5.118       89.612      110.148       71.487     8030.347    12132.533     5110.440        3.133        1.264      193.321       72.831        0.142      350.489       31.689      859.180
06/08/2013  20:35:00        4.572      306.567      -40.194       62.766      108.297       58.745     3939.626    11728.200     3451.018        5.737        0.956      306.601       61.805        0.041      350.516       31.733      859.182
06/08/2013  20:36:00       24.226      202.711       -6.906       91.907      137.690       66.085     8446.813    18958.546     4367.230        3.674        1.589      204.154       77.346        0.144      350.496       31.702      859.191
06/08/2013  20:37:00       21.805      203.679       -2.360       81.867      115.700       63.735     6702.173    13386.532     4062.136        3.305        1.208      204.843       59.611        0.085      350.466       31.649      859.192
06/08/2013  20:38:00       29.614      246.749      -26.418       61.410       94.075       51.852     3771.228     8850.079     2688.648        3.888        0.765      248.519       47.698        0.037      350.484       31.680      859.200
06/08/2013  20:39:00       20.024      216.715      -16.188       63.376       99.202       59.333     4016.490     9841.036     3520.433        3.250        0.869      217.639       56.825        0.068      350.453       31.625      859.211
06/08/2013  20:40:00       20.759      157.691       -6.418       63.835       82.288       56.932     4074.914     6771.355     3241.296        1.971        0.704      159.051       51.145        0.103      350.406       31.546      859.217
06/08/2013  20:41:00       39.288      121.830        1.996       81.978       63.314       41.114     6720.360     4008.711     1690.349        1.440        0.621      128.008       39.398        0.095      350.364       31.473      859.233
06/08/2013  20:42:00        5.788      186.093      -27.681       56.550      106.681       44.360     3197.914    11380.822     1967.805        2.599        0.827      186.183       55.356        0.088      350.410       31.551      859.238
06/08/2013  20:43:00       22.807      234.905      -24.220       50.463       76.678       46.421     2546.542     5879.541     2154.948        3.343        0.529      236.010       47.099        0.040      350.426       31.577      859.258
06/08/2013  20:44:00       15.274      109.589       -1.057       57.282       91.520       49.436     3281.269     8375.861     2443.948        1.317        0.705      110.649       53.231        0.231      350.317       31.391      859.271
06/08/2013  20:45:00       38.400      264.251      -32.701       61.854       90.369       47.899     3825.896     8166.474     2294.283        4.333        0.714      267.027       46.952        0.031      350.396       31.527      859.273
06/08/2013  20:46:00       25.956      210.869       -9.042       81.164      125.193       62.605     6587.642    15673.231     3919.333        3.570        1.309      212.461       64.019        0.091      350.389       31.513      859.294
06/08/2013  20:47:00       35.435      225.983      -27.325       61.125       83.673       55.273     3736.294     7001.158     3055.050        3.343        0.690      228.744       52.531        0.053      350.379       31.497      859.302
06/08/2013  20:48:00       13.541      250.004      -20.985       65.649       96.047       55.837     4309.798     9224.945     3117.726        3.989        0.833      250.371       51.973        0.043      350.391       31.518      859.314
06/08/2013  20:49:00       13.700      284.168      -33.048       69.393       89.915       41.901     4815.431     8084.623     1755.671        4.834        0.733      284.498       42.772        0.023      350.370       31.482      859.327
06/08/2013  20:50:00        5.206      229.061      -29.028       65.321       74.721       40.476     4266.842     5583.163     1638.344        3.241        0.574      229.120       37.051        0.026      350.378       31.496      859.328
06/08/2013  20:51:00       15.566      154.885      -13.831       71.316       66.504       53.161     5085.902     4422.745     2826.080        1.838        0.617      155.665       49.656        0.102      350.264       31.299      859.353
06/08/2013  20:52:00      -25.287      225.530      -22.204       61.208      108.954       38.262     3746.457    11871.023     1463.981        3.454        0.854      226.943       40.846        0.032      350.276       31.319      859.364
06/08/2013  20:53:00        4.048      147.982        3.209       56.357      114.550       59.811     3176.064    13121.653     3577.383        2.090        0.994      148.037       69.380        0.220      350.218       31.217      859.378
06/08/2013  20:54:00       33.848      210.900      -10.027       82.891       98.949       60.641     6870.917     9790.841     3677.385        3.303        1.017      213.599       58.288        0.074      350.285       31.333      859.390
06/08/2013  20:55:00        7.124      208.913      -23.967       60.959       95.045       43.691     3715.963     9033.540     1908.924        2.946        0.733      209.034       47.653        0.052      350.272       31.311      859.390
06/08/2013  20:56:00       54.840      185.135      -18.413       76.191       97.609       64.381     5805.117     9527.575     4144.918        2.855        0.974      193.086       62.754        0.106      350.260       31.290      859.403
06/08/2013  20:57:00       13.604      143.041       -7.876       60.724       83.700       49.232     3687.364     7005.655     2423.756        1.691        0.656      143.686       50.141        0.122      350.230       31.238      859.418
06/08/2013  20:58:00       -9.562      223.034      -21.512       59.856       88.880       50.885     3582.738     7899.615     2589.264        3.218        0.704      223.239       54.589        0.060      350.277       31.320      859.420
06/08/2013  20:59:00       -3.261      274.218      -32.583       46.997       57.405       42.636     2208.686     3295.387     1817.800        4.179        0.366      274.237       35.162        0.016      350.359       31.459      859.428
06/08/2013  21:00:00      -15.884      279.354      -33.717       53.292       82.523       36.361     2839.985     6809.973     1322.137        4.520        0.549      279.805       31.284        0.013      350.328       31.409      859.441
06/08/2013  21:01:00      -28.655      212.171      -21.611       66.265       70.787       36.667     4391.005     5010.833     1344.475        2.852        0.537      214.098       35.446        0.027      350.240       31.256      859.451
06/08/2013  21:02:00      -17.871      162.949      -15.693       48.405       80.484       42.383     2343.060     6477.687     1796.327        1.887        0.531      163.926       32.850        0.040      350.169       31.133      859.472
06/08/2013  21:03:00       -6.907      214.872      -26.258       49.418       66.678       33.691     2442.096     4445.925     1135.086        2.746        0.401      214.983       31.161        0.021      350.197       31.181      859.486
06/08/2013  21:04:00      -57.240      227.353      -37.288       65.749       73.968       34.481     4322.908     5471.266     1188.927        3.367        0.549      234.448       27.748        0.014      350.225       31.229      859.502
06/08/2013  21:05:00       10.656      227.614      -12.654       63.351      138.800       52.480     4013.370    19265.501     2754.173        3.905        1.302      227.863       68.366        0.090      350.256       31.283      859.504
06/08/2013  21:06:00       -3.798      170.622       -9.519       40.279       76.108       37.008     1622.432     5792.355     1369.559        1.900        0.439      170.664       40.015        0.055      350.220       31.222      859.523
06/08/2013  21:07:00       -6.410      134.467        0.057       68.933       82.690       46.367     4751.695     6837.642     2149.880        1.593        0.687      134.620       41.638        0.096      350.156       31.110      859.531
06/08/2013  21:08:00      -17.736      225.443      -34.218       53.600       69.142       31.728     2872.948     4780.611     1006.647        3.048        0.433      226.139       28.935        0.016      350.224       31.227      859.543
06/08/2013  21:09:00       -4.136      208.379      -20.323       57.330       89.490       43.683     3286.767     8008.531     1908.205        2.853        0.660      208.420       49.885        0.057      350.228       31.234      859.553
06/08/2013  21:10:00      -42.461      208.791      -17.522       55.098       74.677       39.060     3035.841     5576.645     1525.720        2.792        0.507      213.065       40.898        0.037      350.156       31.110      859.558
06/08/2013  21:11:00      -47.083      182.483      -19.935       54.773       49.017       28.777     3000.070     2402.691      828.130        2.107        0.312      188.459       21.045        0.012      350.144       31.089      859.572
06/08/2013  21:12:00      -23.585      201.553      -16.661       59.190       72.994       40.771     3503.439     5328.168     1662.313        2.597        0.525      202.928       34.167        0.028      350.168       31.130      859.576
06/08/2013  21:13:00       -9.420      193.073      -11.522       45.619       90.789       53.819     2081.089     8242.573     2896.465        2.536        0.661      193.303       55.283        0.082      350.195       31.176      859.582
06/08/2013  21:14:00      -38.942      195.784      -26.344       69.405       69.025       40.046     4817.012     4764.413     1603.701        2.586        0.559      199.619       33.664        0.028      350.164       31.123      859.591
06/08/2013  21:15:00      -30.192      263.461      -34.431       55.352       94.563       37.570     3063.853     8942.199     1411.474        4.246        0.671      265.185       42.157        0.025      350.256       31.282      859.602
06/08/2013  21:16:00      -23.174      194.717      -19.996       54.069       63.319       34.106     2923.406     4009.249     1163.215        2.347        0.405      196.091       34.708        0.031      350.157       31.110      859.611
06/08/2013  21:17:00      -61.725      219.054      -30.841       88.056       97.199       40.201     7753.860     9447.672     1616.133        3.578        0.941      227.585       43.442        0.036      350.181       31.153      859.624
06/08/2013  21:18:00      -25.833      232.131      -31.419       50.165       65.611       29.133     2516.534     4304.755      848.745        3.160        0.384      233.564       20.187        0.007      350.191       31.169      859.639
06/08/2013  21:19:00      -15.463      205.052      -34.703       57.200       98.865       32.172     3271.863     9774.231     1035.036        2.878        0.704      205.634       28.658        0.019      350.181       31.154      859.655
06/08/2013  21:20:00      -74.277      156.774      -10.517       46.074       54.898       31.001     2122.850     3013.794      961.093        1.815        0.305      173.479       14.084        0.007      350.093       31.001      859.669
06/08/2013  21:21:00      -25.251      160.819      -16.596       55.893       86.480       30.377     3124.069     7478.728      922.771        1.915        0.576      162.790       35.488        0.048      350.098       31.008      859.682
06/08/2013  21:22:00      -66.142       92.803      -21.545       54.535      112.952       30.008     2974.095    12758.245      900.453        1.504        0.832      113.961       37.237        0.107      350.067       30.956      859.695
06/08/2013  21:23:00      -93.471       80.961      -19.086       40.338      126.343       21.329     1627.162    15962.491      454.915        1.685        0.902      123.658       26.241        0.045      349.847       30.577      859.709
06/08/2013  21:24:00     -116.603        0.930      -12.082       35.241       46.200       28.334     1241.917     2134.431      802.813        0.896        0.209      116.606       26.194        0.050      349.749       30.405      859.734
06/08/2013  21:25:00     -102.353      131.410      -16.172       47.546       64.867       41.072     2260.662     4207.677     1686.938        1.808        0.408      166.568       34.787        0.044      349.705       30.328      859.752
06/08/2013  21:26:00     -109.330       68.273      -15.488       45.029       56.838       29.775     2027.612     3230.511      886.554        1.150        0.307      128.896       23.975        0.035      349.692       30.306      859.764
06/08/2013  21:27:00     -131.182      128.426      -26.109       47.092       36.783       32.774     2217.611     1352.965     1074.133        1.951        0.232      183.581       24.867        0.018      349.700       30.321      859.785
06/08/2013  21:28:00      -88.256       62.791      -10.069       43.012       65.550       25.818     1850.028     4296.767      666.553        0.932        0.341      108.313       25.462        0.055      349.615       30.172      859.792
06/08/2013  21:29:00      -89.159       62.655       -8.874       79.944       54.227       45.030     6391.022     2940.596     2027.729        1.165        0.568      108.973       43.453        0.159      349.611       30.165      859.812
06/08/2013  21:30:00     -131.124       81.288      -20.954       62.664       62.964       34.702     3926.808     3964.482     1204.261        1.667        0.455      154.277       29.226        0.036      349.678       30.281      859.831
06/08/2013  21:31:00     -147.504       66.005       -7.101       58.312       40.467       35.584     3400.341     1637.550     1266.232        1.623        0.315      161.599       14.524        0.008      349.679       30.282      859.849
06/08/2013  21:32:00     -140.019       98.827      -26.711       54.268       57.672       25.330     2944.969     3326.042      641.603        1.850        0.346      171.383       22.558        0.017      349.673       30.272      859.860
06/08/2013  21:33:00      -87.076      104.042       -3.057       60.948       60.242       42.747     3714.677     3629.093     1827.309        1.379        0.459      135.672       36.060        0.071      349.563       30.083      859.878
06/08/2013  21:34:00     -113.391       94.772      -28.772       51.741       53.507       31.944     2677.084     2863.021     1020.413        1.461        0.328      147.781       30.845        0.044      349.603       30.153      859.886
06/08/2013  21:35:00     -121.210       66.595      -10.520       50.280       36.305       31.646     2528.103     1318.070     1001.453        1.204        0.242      138.300       27.701        0.040      349.572       30.098      859.911
06/08/2013  21:36:00     -113.530      152.754      -29.500       55.911       51.543       28.213     3126.037     2656.668      795.970        2.183        0.329      190.323       30.270        0.025      349.665       30.258      859.927
06/08/2013  21:37:00      -69.747       89.960       -7.940       43.143       46.781       26.033     1861.355     2188.482      677.734        0.887        0.236      113.831       23.080        0.041      349.583       30.117      859.947
06/08/2013  21:38:00     -105.450      109.739      -28.985       48.290       58.292       31.491     2331.933     3397.900      991.680        1.536        0.336      152.192       37.565        0.061      349.610       30.164      859.969
06/08/2013  21:39:00      -54.269      110.101       -5.797       38.105       56.526       31.333     1452.000     3195.159      981.736        1.036        0.281      122.749       23.667        0.037      349.581       30.114      859.978
06/08/2013  21:40:00     -117.913       80.047      -30.004       44.358       42.976       31.452     1967.656     1846.959      989.231        1.301        0.240      142.516       24.858        0.030      349.581       30.114      859.992
06/08/2013  21:41:00      -88.961       79.997      -13.149       48.658       37.427       28.576     2367.616     1400.789      816.600        0.953        0.229      119.639       24.379        0.042      349.603       30.153      859.991
06/08/2013  21:42:00      -70.517       93.873      -18.358       30.136       37.075       21.890      908.199     1374.589      479.155        0.844        0.138      117.408       19.338        0.027      349.561       30.080      860.004
06/08/2013  21:43:00      -87.903       52.806      -15.156       49.691       42.371       28.171     2469.198     1795.264      793.582        0.790        0.253      102.544       31.485        0.094      349.574       30.103      859.997
06/08/2013  21:44:00     -101.431      123.122      -28.966       40.928       44.871       28.434     1675.138     2013.434      808.500        1.539        0.225      159.522       27.404        0.030      349.601       30.148      860.009
06/08/2013  21:45:00     -108.267       75.243      -20.674       46.278       55.710       28.738     2141.662     3103.603      825.857        1.194        0.304      131.846       29.737        0.051      349.594       30.136      860.012
06/08/2013  21:46:00     -114.095       68.172      -16.061       46.429       38.333       23.933     2155.627     1469.416      572.784        1.106        0.210      132.910       17.969        0.018      349.619       30.181      860.026
06/08/2013  21:47:00     -136.676       76.427      -28.262       39.258       42.080       30.486     1541.207     1770.747      929.401        1.478        0.212      156.593       25.721        0.027      349.684       30.292      860.036
06/08/2013  21:48:00      -97.290       71.853      -19.062       40.125       36.091       26.914     1610.004     1302.592      724.389        0.931        0.182      120.947       24.595        0.041      349.614       30.171      860.037
06/08/2013  21:49:00      -93.679       63.125      -20.221       18.028       43.952       17.091      325.006     1931.756      292.113        0.786        0.127      112.962       19.313        0.029      349.649       30.233      860.045
06/08/2013  21:50:00     -106.739       39.994      -15.008       36.118       30.220       19.780     1304.515      913.252      391.258        0.791        0.130      113.986        6.432        0.003      349.672       30.272      860.053
06/08/2013  21:51:00      -88.953       59.946      -16.011       69.883       44.379       33.207     4883.674     1969.502     1102.683        0.986        0.398      107.267       32.349        0.091      349.635       30.206      860.067
06/08/2013  21:52:00      -99.201      106.216      -25.903       50.334       52.383       32.524     2533.472     2743.945     1057.807        1.406        0.317      145.336       35.314        0.059      349.632       30.201      860.068
06/08/2013  21:53:00      -67.649       36.914       -2.937       37.576       26.797       18.053     1411.957      718.063      325.910        0.420        0.123       77.065       11.513        0.022      349.551       30.061      860.087
06/08/2013  21:54:00      -92.992       44.041       -3.589       38.807       47.047       31.418     1505.987     2213.398      987.092        0.765        0.235      102.894       24.763        0.058      349.592       30.134      860.087
06/08/2013  21:55:00     -110.256       38.893       -8.360       52.740       49.801       37.100     2781.525     2480.118     1376.375        1.019        0.332      116.915       27.568        0.056      349.615       30.173      860.094
06/08/2013  21:56:00      -78.204       51.490      -12.508       50.926       36.920       28.332     2593.466     1363.073      802.681        0.684        0.238       93.633       30.477        0.106      349.546       30.053      860.104
06/08/2013  21:57:00     -120.758        1.136      -21.463       28.702       52.267       21.100      823.789     2731.856      445.191        0.952        0.200      120.763       24.012        0.040      349.633       30.203      860.102
06/08/2013  21:58:00      -57.705       15.457       -9.463       33.251       37.992       14.952     1105.625     1443.377      223.575        0.321        0.139       59.740       18.542        0.096      349.552       30.063      860.111
06/08/2013  21:59:00     -105.751       29.966      -15.434       54.277       48.171       32.396     2946.007     2320.486     1049.517        0.932        0.316      109.915       22.572        0.042      349.606       30.157      860.117
06/08/2013  22:00:00      -74.347        2.915       -8.189       21.996       29.880       18.287      483.805      892.841      334.400        0.366        0.086       74.404       14.374        0.037      349.374       29.755      860.114
06/08/2013  22:01:00      -70.889      -35.466        0.189       28.239       26.960       16.342      797.424      726.833      267.073        0.404        0.090       79.266       14.918        0.035      349.288       29.606      860.131
06/08/2013  22:02:00      -24.577      -22.783        2.763       40.888       45.139       30.996     1671.849     2037.566      960.733        0.290        0.234       33.512       30.165        0.810      349.463       29.910      860.122
06/08/2013  22:03:00      -28.639      -12.024        1.339       40.097       32.698       23.320     1607.765     1069.183      543.839        0.209        0.161       31.061       20.660        0.442      349.197       29.449      860.131
06/08/2013  22:04:00      -29.367      -50.155       -3.907       33.039       40.889       16.879     1091.597     1671.932      284.887        0.322        0.152       58.120       16.360        0.079      349.057       29.206      860.141
06/08/2013  22:05:00      -45.247      -80.470       -3.756       25.034       22.382       14.615      626.688      500.969      213.588        0.494        0.067       92.318       15.511        0.028      349.102       29.283      860.142
06/08/2013  22:06:00      -31.959      -40.210        1.392       28.702       27.327       17.076      823.798      746.761      291.589        0.225        0.093       51.364        9.339        0.033      349.131       29.334      860.158
06/08/2013  22:07:00      -98.363      -72.945        3.400       34.950       42.144       20.495     1221.524     1776.131      420.041        0.921        0.171      122.460       12.231        0.010      349.066       29.222      860.167
06/08/2013  22:08:00      -82.645      -71.464      -11.612       42.374       37.443       17.702     1795.588     1401.969      313.362        0.779        0.176      109.258       17.062        0.024      349.036       29.169      860.168
06/08/2013  22:09:00      -90.244      -55.173       -7.013       48.845       27.472       21.693     2385.834      754.705      470.588        0.742        0.181      105.773       18.691        0.031      348.912       28.954      860.173
06/08/2013  22:10:00      -64.096      -66.558        5.119       33.914       29.285       21.681     1150.186      857.626      470.049        0.552        0.124       92.403       21.847        0.056      348.929       28.983      860.164
06/08/2013  22:11:00     -114.557      -38.228      -14.128       28.482       31.508       23.991      811.221      992.758      575.583        0.858        0.119      120.767       19.384        0.026      348.975       29.063      860.175
06/08/2013  22:12:00      -96.589      -73.300       -5.202       32.956       33.900       19.724     1086.083     1149.202      389.044        0.868        0.131      121.253       17.320        0.020      348.884       28.905      860.184
06/08/2013  22:13:00      -24.915      -32.109        7.590       38.953       27.944       21.553     1517.305      780.869      464.523        0.224        0.138       40.641       17.074        0.177      348.837       28.823      860.182
06/08/2013  22:14:00     -117.842      -79.146      -11.364       34.148       28.387       18.211     1166.068      805.846      331.633        1.129        0.115      141.954       16.463        0.013      349.010       29.125      860.201
06/08/2013  22:15:00     -110.571     -117.732      -12.572       38.203       22.399       20.756     1459.433      501.720      430.796        1.432        0.120      161.514       15.208        0.009      349.086       29.256      860.202
06/08/2013  22:16:00      -85.351      -28.043      -13.937       21.500       30.821       17.092      462.247      949.912      292.130        0.498        0.085       89.839       11.402        0.016      349.207       29.466      860.211
06/08/2013  22:17:00      -55.667      -30.049        0.799       44.707       24.761       18.230     1998.750      613.100      332.342        0.347        0.147       63.260       20.483        0.105      348.936       28.996      860.224
06/08/2013  22:18:00      -64.002      -45.522       10.233       48.920       23.413       20.171     2393.151      548.183      406.868        0.481        0.167       78.540       23.407        0.089      348.824       28.802      860.234
06/08/2013  22:19:00      -64.282      -37.505        2.389       40.586       18.261       18.003     1647.226      333.476      324.098        0.392        0.115       74.424       16.805        0.051      348.805       28.769      860.242
06/08/2013  22:20:00      -43.575      -33.624        7.360       32.691       22.123       19.199     1068.679      489.418      368.601        0.250        0.096       55.040       15.148        0.076      348.713       28.609      860.246
06/08/2013  22:21:00      -43.858      -18.953        4.839       49.037       16.871       19.555     2404.654      284.626      382.398        0.269        0.154       47.778       27.357        0.328      348.759       28.691      860.264
06/08/2013  22:22:00      -76.540      -20.783       -3.511       24.437       30.931       13.265      597.145      956.746      175.949        0.402        0.086       79.312       10.875        0.019      348.872       28.886      860.274
06/08/2013  22:23:00      -23.457      -17.751        5.694       34.171       15.444       15.083     1167.653      238.507      227.504        0.127        0.082       29.416       12.214        0.172      348.678       28.548      860.276
06/08/2013  22:24:00      -81.321       -1.592       -1.368       39.433       15.970       13.375     1554.929      255.053      178.885        0.430        0.099       81.337       15.747        0.037      348.695       28.579      860.287
06/08/2013  22:25:00      -58.173      -31.909       -1.124       28.626       22.415       15.963      819.466      502.422      254.813        0.299        0.079       66.350       13.817        0.043      348.571       28.363      860.299
06/08/2013  22:26:00      -50.774      -79.054        3.073       22.304       30.243       16.878      497.484      914.668      284.854        0.527        0.085       93.955       18.517        0.039      348.913       28.954      860.305
06/08/2013  22:27:00      -56.967      -57.494        1.044       28.201       26.406       21.809      795.315      697.271      475.630        0.426        0.098       80.937       19.022        0.055      348.815       28.786      860.307
06/08/2013  22:28:00      -48.624      -40.214        3.976       37.870       24.218       19.083     1434.147      586.529      364.148        0.319        0.119       63.099       13.821        0.048      348.491       28.226      860.310
06/08/2013  22:29:00      -73.460      -51.846       -2.104       38.822       27.813       24.566     1507.156      773.567      603.502        0.549        0.144       89.914       24.312        0.073      348.585       28.389      860.298
06/08/2013  22:30:00      -33.225      -22.958       10.222       45.426       38.635       22.255     2063.495     1492.687      495.302        0.289        0.203       40.386       27.412        0.461      348.625       28.457      860.292
06/08/2013  22:31:00      -46.260       18.575        3.471       38.247       29.521       18.060     1462.866      871.466      326.162        0.258        0.133       49.850       16.416        0.108      348.421       28.104      860.291
06/08/2013  22:32:00      -83.767       -1.668       -0.213       22.540       27.512       13.232      508.066      756.892      175.085        0.423        0.072       83.784        9.207        0.012      348.417       28.098      860.293
06/08/2013  22:33:00      -87.468      -35.457       -4.232       18.941       18.024       11.808      358.750      324.860      139.430        0.487        0.041       94.381        6.839        0.005      348.405       28.077      860.273
06/08/2013  22:34:00      -46.650      -29.279        1.413       22.018       23.138       11.280      484.810      535.355      127.232        0.209        0.057       55.077       10.951        0.040      348.320       27.931      860.270
06/08/2013  22:35:00      -43.659       38.455       -6.069       27.537       29.612       14.713      758.291      876.866      216.486        0.264        0.093       58.180       18.450        0.101      348.130       27.601      860.272
06/08/2013  22:36:00      -74.999       12.415      -13.722       22.664       20.901       10.698      513.647      436.841      114.457        0.352        0.053       76.020        9.181        0.015      348.421       28.102      860.268
06/08/2013  22:37:00      -72.347      -36.554       -1.674       32.729       19.143       10.995     1071.158      366.460      120.887        0.407        0.078       81.058        8.379        0.011      348.432       28.125      860.265
06/08/2013  22:38:00      -58.576      -33.160       -0.332       27.368       26.417       13.763      748.994      697.865      189.433        0.308        0.082       67.311       11.214        0.028      348.242       27.794      860.257
06/08/2013  22:39:00      -41.800      -34.371        4.191       27.447       18.664       17.698      753.350      348.342      313.235        0.218        0.071       54.116       16.729        0.096      348.244       27.798      860.261
06/08/2013  22:40:00      -37.205      -45.860        8.378       48.639       33.262       28.492     2365.718     1106.370      811.807        0.392        0.214       59.054       30.231        0.262      348.348       27.979      860.242
06/08/2013  22:41:00      -25.198      -24.709       11.556       46.983       30.641       22.997     2207.414      938.858      528.876        0.253        0.184       35.291       24.297        0.474      348.433       28.126      860.249
06/08/2013  22:42:00      -52.995       54.144       -3.585       31.088       35.154       21.900      966.439     1235.838      479.605        0.422        0.134       75.763       21.578        0.081      348.004       27.384      860.253
06/08/2013  22:43:00      -77.239       25.497      -11.164       28.756       31.560       16.087      826.923      996.043      258.779        0.441        0.104       81.339       13.535        0.028      348.194       27.711      860.268
06/08/2013  22:44:00      -60.440      -24.448       -2.465       22.610       21.364       13.463      511.201      456.435      181.252        0.270        0.057       65.198       13.500        0.043      348.357       27.994      860.260
06/08/2013  22:45:00      -53.490      -37.799        1.146       32.152       20.699       14.769     1033.778      428.456      218.123        0.299        0.084       65.497       14.034        0.046      348.223       27.761      860.264
06/08/2013  22:46:00      -66.624       -6.871       -2.781       20.023       16.966       12.538      400.924      287.849      157.214        0.267        0.042       66.977       11.860        0.031      348.194       27.710      860.273
06/08/2013  22:47:00     -113.429        1.024      -14.959       14.368       11.114        7.583      206.428      123.515       57.499        0.674        0.019      113.434        5.071        0.002      348.177       27.683      860.288
06/08/2013  22:48:00      -94.302        1.449      -10.633       14.828        9.535        8.125      219.872       90.925       66.022        0.469        0.019       94.313        5.639        0.004      348.285       27.870      860.295
06/08/2013  22:49:00      -34.272      -25.979       -3.088       20.421       10.465        7.171      417.037      109.506       51.418        0.122        0.029       43.006        6.576        0.023      348.399       28.066      860.308
06/08/2013  22:50:00      -58.693      -12.736       -4.157       18.240       14.123       10.037      332.699      199.448      100.744        0.213        0.032       60.059        9.815        0.027      348.270       27.843      860.312
06/08/2013  22:51:00      -67.259      -18.969       -6.045       16.812       12.729       11.267      282.658      162.032      126.948        0.275        0.029       69.883       11.140        0.025      348.194       27.712      860.333
06/08/2013  22:52:00      -71.212        4.868       -7.412       19.903       22.064       11.332      396.148      486.818      128.421        0.308        0.051       71.378        5.658        0.006      348.067       27.493      860.345
06/08/2013  22:53:00      -59.223        5.625      -13.049        8.904       12.765       10.703       79.280      162.934      114.564        0.203        0.018       59.489        5.528        0.009      348.353       27.985      860.356
06/08/2013  22:54:00      -44.304      -30.634       -8.325       22.492       10.513        7.324      505.871      110.529       53.635        0.182        0.034       53.863        5.743        0.011      348.448       28.151      860.363
06/08/2013  22:55:00      -50.004      -15.913        3.395       20.036       15.892       14.638      401.442      252.557      214.285        0.182        0.043       52.475       13.681        0.068      348.024       27.417      860.377
06/08/2013  22:56:00      -63.950       -1.616      -11.115       12.791        6.661        5.559      163.606       44.374       30.907        0.223        0.012       63.971        3.556        0.003      347.931       27.255      860.387
06/08/2013  22:57:00      -42.277       -9.004       -9.807       17.536       10.417        6.383      307.495      108.513       40.742        0.121        0.023       43.225        6.638        0.024      347.985       27.350      860.405
06/08/2013  22:58:00      -29.555      -39.741       -1.929       13.302       17.298       11.200      176.953      299.229      125.435        0.153        0.030       49.526        8.746        0.031      348.139       27.617      860.406
06/08/2013  22:59:00      -58.194      -39.015      -14.246       21.214       14.266       12.546      450.032      203.508      157.395        0.296        0.041       70.062        2.900        0.002      347.870       27.151      860.412
06/08/2013  23:00:00      -73.091      -21.682       -3.452       18.150       23.393       10.613      329.421      547.248      112.637        0.341        0.049       76.240        2.840        0.001      347.915       27.229      860.410
06/08/2013  23:01:00      -63.648       26.281       -9.316       26.576       14.994       12.443      706.263      224.821      154.833        0.296        0.054       68.861       15.179        0.049      347.712       26.880      860.410
06/08/2013  23:02:00      -80.032       18.969       -9.485       17.004       15.362       12.652      289.146      235.990      160.065        0.377        0.034       82.249        6.860        0.007      347.845       27.109      860.412
06/08/2013  23:03:00      -66.264      -15.091      -11.714       10.285       12.093        7.995      105.790      146.232       63.916        0.254        0.016       67.961        5.701        0.007      347.725       26.902      860.408
06/08/2013  23:04:00      -63.728       -0.324      -12.080       10.263        8.578        9.868      105.329       73.586       97.386        0.224        0.014       63.728        5.257        0.007      347.925       27.248      860.413
06/08/2013  23:05:00      -75.892       -8.809      -12.814       22.649       10.507       10.533      512.985      110.407      110.942        0.337        0.037       76.401       12.357        0.026      347.837       27.097      860.411
06/08/2013  23:06:00     -110.863       -7.250      -15.081       26.369       21.260       14.092      695.317      451.981      198.582        0.696        0.067      111.100       13.425        0.015      347.541       26.586      860.408
06/08/2013  23:07:00     -107.992       -6.814      -13.064       31.297       15.323       14.001      979.503      234.800      196.029        0.664        0.071      108.206       12.192        0.013      347.389       26.322      860.403
06/08/2013  23:08:00     -124.272       -2.189      -17.308       17.650       18.551       14.526      311.515      344.136      211.013        0.831        0.043      124.291       10.672        0.007      347.512       26.534      860.401
06/08/2013  23:09:00     -122.869      -18.322      -18.323       35.729       27.075       15.436     1276.582      733.062      238.268        0.901        0.112      124.227       19.786        0.025      347.344       26.245      860.393
06/08/2013  23:10:00     -117.257      -48.972       -5.393       27.746       21.030       14.736      769.849      442.254      217.135        0.880        0.071      127.073        9.395        0.005      347.392       26.327      860.400
06/08/2013  23:11:00      -97.391      -40.084       -0.692       27.866       35.546       20.821      776.497     1263.503      433.509        0.678        0.124      105.318       16.851        0.026      347.262       26.103      860.392
06/08/2013  23:12:00      -82.716        3.483      -16.873       32.594       33.420       20.994     1062.338     1116.865      440.744        0.488        0.131       82.789       15.836        0.037      347.334       26.226      860.403
06/08/2013  23:13:00      -85.521       -1.957      -10.240       46.645       45.955       29.492     2175.743     2111.906      869.776        0.629        0.258       85.543       26.888        0.099      347.642       26.759      860.399
06/08/2013  23:14:00     -106.770       -4.282      -13.232       51.177       35.851       21.803     2619.097     1285.296      475.372        0.799        0.219      106.856       23.259        0.047      347.553       26.605      860.404
06/08/2013  23:15:00      -99.130       -0.666       -7.732       48.739       43.387       30.851     2375.461     1882.392      951.810        0.755        0.260       99.132       25.020        0.064      347.572       26.638      860.398
06/08/2013  23:16:00     -106.142       12.389       -9.494       55.758       52.913       29.003     3108.935     2799.779      841.154        0.913        0.337      106.863       21.364        0.040      347.469       26.460      860.406
06/08/2013  23:17:00     -112.129        8.543      -15.041       54.205       41.134       29.777     2938.206     1692.006      886.677        0.919        0.276      112.454       25.034        0.050      347.461       26.448      860.394
06/08/2013  23:18:00     -113.739       22.726       -7.097       40.878       34.135       27.318     1671.007     1165.198      746.275        0.854        0.179      115.987       19.628        0.029      347.621       26.723      860.390
06/08/2013  23:19:00      -97.587       -1.216       -7.136       59.975       34.462       27.226     3597.050     1187.598      741.267        0.755        0.276       97.594       25.421        0.068      347.439       26.409      860.388
06/08/2013  23:20:00      -85.023       14.612       -7.414       48.875       37.832       23.537     2388.750     1431.292      554.008        0.593        0.219       86.269       22.529        0.068      347.441       26.412      860.394
06/08/2013  23:21:00     -103.732       -7.955      -19.404       26.115       26.630       18.133      682.014      709.182      328.811        0.646        0.086      104.037       13.965        0.018      347.383       26.311      860.385
06/08/2013  23:22:00      -94.595      -14.737      -16.818       45.050       43.453       26.110     2029.540     1888.204      681.747        0.702        0.230       95.736       23.883        0.062      347.293       26.158      860.389
06/08/2013  23:23:00      -66.731        6.779      -13.394       40.061       33.719       21.515     1604.918     1136.976      462.898        0.394        0.160       67.074       20.399        0.092      347.303       26.175      860.394
06/08/2013  23:24:00      -85.963       14.574      -10.691       51.798       41.397       25.395     2682.990     1713.682      644.922        0.638        0.252       87.189       23.036        0.070      347.222       26.035      860.398
06/08/2013  23:25:00      -95.383       13.325      -16.761       38.630       48.717       33.438     1492.257     2373.334     1118.084        0.727        0.249       96.310       21.367        0.049      347.135       25.884      860.405
06/08/2013  23:26:00      -85.862       11.314      -14.078       46.236       36.350       22.676     2137.811     1321.307      514.189        0.584        0.199       86.604       19.508        0.051      347.121       25.861      860.414
06/08/2013  23:27:00     -127.527        8.506      -24.311       38.694       37.371       19.925     1497.228     1396.567      396.989        1.011        0.165      127.811       16.193        0.016      347.087       25.803      860.421
06/08/2013  23:28:00     -147.262       12.043      -21.233       53.033       47.341       28.035     2812.527     2241.170      785.939        1.406        0.292      147.754       22.026        0.022      347.045       25.728      860.414
06/08/2013  23:29:00     -159.845       -0.287      -10.405       53.290       40.181       27.063     2839.824     1614.545      732.413        1.542        0.259      159.845       24.509        0.024      347.042       25.725      860.411
06/08/2013  23:30:00     -175.648       39.377      -13.604       35.296       31.968       25.456     1245.785     1021.949      648.007        1.775        0.146      180.008       16.393        0.008      347.036       25.713      860.411
06/08/2013  23:31:00     -204.283       51.496      -15.137       50.117       34.915       21.663     2511.740     1219.026      469.295        2.441        0.210      210.674       14.056        0.004      347.267       26.110      860.408
06/08/2013  23:32:00     -190.148       13.125      -16.745       27.283       25.884       16.006      744.341      669.988      256.187        1.914        0.084      190.601       10.650        0.003      347.146       25.904      860.406
06/08/2013  23:33:00     -180.353       51.130      -16.802       36.280       38.818       21.085     1316.258     1506.815      444.559        1.934        0.163      187.460       18.620        0.010      347.410       26.360      860.403
06/08/2013  23:34:00     -134.155       13.429       -8.229       24.382       28.371       16.165      594.493      804.900      261.317        0.995        0.083      134.826       12.811        0.009      347.158       25.926      860.418
06/08/2013  23:35:00     -116.239      -15.063      -13.110       20.003       11.326       13.103      400.129      128.286      171.693        0.731        0.035      117.211       12.114        0.011      347.147       25.906      860.416
06/08/2013  23:36:00      -59.346      -38.411       -1.019       33.181       19.056       13.519     1100.977      363.137      182.751        0.332        0.082       70.692       13.167        0.035      347.180       25.962      860.427
06/08/2013  23:37:00      -35.285      -42.930        5.702       40.438       26.832       16.983     1635.227      719.978      288.420        0.288        0.132       55.570       20.048        0.130      347.260       26.101      860.430
06/08/2013  23:38:00      -91.185      -74.951       -2.753       53.700       51.858       21.825     2883.655     2689.255      476.337        0.999        0.302      118.035       22.783        0.037      347.257       26.095      860.421
06/08/2013  23:39:00      -52.365      -45.962       -0.998       51.107       28.582       20.622     2611.973      816.905      425.278        0.435        0.193       69.675       17.769        0.065      347.220       26.031      860.417
06/08/2013  23:40:00      -32.729      -47.098        0.834       40.521       33.871       19.697     1641.983     1147.261      387.978        0.323        0.159       57.354       17.438        0.092      347.340       26.238      860.415
06/08/2013  23:41:00     -122.182      -58.289       -1.351       47.344       34.634       19.722     2241.427     1199.517      388.967        1.108        0.191      135.374       14.379        0.011      347.313       26.191      860.407
06/08/2013  23:42:00      -90.178      -93.949        6.057       56.625       40.285       29.769     3206.392     1622.910      886.177        1.135        0.286      130.225       33.174        0.065      347.323       26.209      860.398
06/08/2013  23:43:00      -37.058      -61.575       20.770       66.668       43.380       32.775     4444.624     1881.810     1074.168        0.650        0.370       71.867       35.163        0.239      347.330       26.220      860.392
06/08/2013  23:44:00      -96.742      -79.231       -1.253       44.587       38.179       27.347     1987.964     1457.663      747.881        0.992        0.210      125.047       25.893        0.043      347.335       26.230      860.391
06/08/2013  23:45:00      -62.856      -83.815        6.513       46.222       31.521       24.028     2136.481      993.574      577.341        0.736        0.185      104.766       25.585        0.060      347.408       26.354      860.383
06/08/2013  23:46:00      -58.932      -75.447        9.709       63.082       56.849       30.024     3979.378     3231.808      901.436        0.868        0.406       95.735       36.010        0.141      347.330       26.220      860.381
06/08/2013  23:47:00      -77.246      -79.211        2.261       54.450       41.040       35.183     2964.825     1684.283     1237.873        0.907        0.294      110.641       30.423        0.076      347.311       26.189      860.380
06/08/2013  23:48:00      -45.097      -67.541        2.238       47.336       43.745       24.537     2240.742     1913.657      602.068        0.568        0.238       81.213       25.410        0.098      347.365       26.280      860.394
06/08/2013  23:49:00      -44.560      -49.356       12.534       53.563       39.582       29.217     2869.022     1566.737      853.613        0.493        0.264       66.495       29.290        0.194      347.222       26.035      860.394
06/08/2013  23:50:00      -80.518      -81.013        5.543       47.550       32.397       28.371     2260.968     1049.542      804.901        0.860        0.206      114.221       29.842        0.068      347.150       25.911      860.405
06/08/2013  23:51:00      -98.365      -66.967       -1.585       52.782       32.263       19.191     2785.971     1040.919      368.313        0.918        0.210      118.996       23.095        0.038      347.134       25.883      860.406
06/08/2013  23:52:00     -110.490      -47.584       -3.620       32.067       34.121       17.672     1028.267     1164.258      312.285        0.849        0.125      120.301       15.101        0.016      347.122       25.864      860.410
06/08/2013  23:53:00      -89.636      -33.194        8.712       40.490       33.954       20.601     1639.475     1152.882      424.404        0.621        0.161       95.585       18.917        0.039      347.045       25.729      860.407
06/08/2013  23:54:00      -33.092      -33.621        5.566       55.405       30.329       19.623     3069.662      919.853      385.078        0.331        0.219       47.175       17.041        0.130      347.059       25.755      860.413
06/08/2013  23:55:00       -2.312      -44.604        7.738       33.889       29.797       17.372     1148.496      887.874      301.773        0.220        0.117       44.664       14.567        0.106      347.050       25.739      860.408
06/08/2013  23:56:00      -88.626      -45.273        3.068       45.207       24.951       21.005     2043.657      622.571      441.214        0.651        0.155       99.519       14.806        0.022      346.995       25.645      860.400
06/08/2013  23:57:00      -51.268      -47.777        6.153       36.290       39.479       20.810     1316.932     1558.559      433.056        0.413        0.165       70.078       21.461        0.094      347.023       25.693      860.407
06/08/2013  23:58:00      -63.676      -39.448       -1.539       34.500       27.888       17.095     1190.252      777.753      292.253        0.394        0.113       74.905       12.378        0.027      346.911       25.499      860.392
06/08/2013  23:59:00      -61.037      -49.126        2.831       35.453       34.762       14.508     1256.907     1208.412      210.496        0.441        0.134       78.351       16.087        0.042      346.952       25.569      860.385
